[[{"header":{"parameterUnit":"m.s-1","parameterCategory":1,"la1":31.0,"la2":29.5877,"lo1":-88.7671,"lo2":-86.6584,"dy":0.0162,"dx":0.0185,"nx":115,"ny":88,"refTime":"2025-05-16T12:00:00:Z","depth":0,"parameterNumber":2,"parameterNumberName":"U-component_of_WINDS"},"data":[0.0,0.0,0.0,0.0,0.0,0.0,0.0,0.0,0.0,0.0,0.0,0.0,0.0,0.0,0.0,0.0,0.0,0.0,0.0,0.0,0.0,0.0,0.0,0.0,0.0,0.0,0.0,0.0,0.0,0.0,0.0,0.0,0.0,0.0,0.0,0.0,0.0,0.0,0.0,0.0,0.0,0.0,0.0,0.0,0.0,0.0,0.0,0.0,0.0,0.0,0.0,0.0,0.0,0.0,0.0,0.0,0.0,0.0,0.0,0.0,0.0,0.0,0.0,0.0,0.0,0.0,0.0,0.0,0.0,0.0,0.0,0.0,0.0,0.0,0.0,0.0,0.0,0.0,0.0,0.0,0.0,0.0,0.0,0.0,0.0,0.0,0.0,0.0,0.0,0.0,0.0,0.0,0.0,0.0,0.0,0.0,0.0,0.0,0.0,0.0,0.0,0.0,0.0,0.0,0.0,0.0,0.0,0.0,0.0,0.0,0.0,0.0,0.0,0.0,0.0,0.0,0.0,0.0,0.0,0.0,0.0,0.0,0.0,0.0,0.0,0.0,0.0,0.0,0.0,0.0,0.0,0.0,0.0,0.0,0.0,0.0,0.0,0.0,0.0,0.0,0.0,0.0,0.0,0.0,0.0,0.0,0.0,0.0,0.0,0.0,0.0,0.0,0.0,0.0,0.0,0.0,0.0,0.0,0.0,0.0,0.0,0.0,0.0,0.0,0.0,0.0,0.0,0.0,0.0,0.0,0.0,0.0,0.0,0.0,0.0,0.0,0.0,0.0,0.0,0.0,0.0,0.0,0.0,0.0,0.0,0.0,0.0,0.0,0.0,0.0,0.0,0.0,0.0,0.0,0.0,0.0,0.0,0.0,0.0,0.0,0.0,0.0,0.0,0.0,0.0,0.0,0.0,0.0,0.0,0.0,0.0,0.0,0.0,0.0,0.0,0.0,0.0,0.0,0.0,0.0,0.0,0.0,0.0,0.0,0.0,0.0,0.0,0.0,0.0,0.0,0.0,0.0,0.0,0.0,0.0,0.0,0.0,0.0,0.0,0.0,0.0,0.0,0.0,0.0,0.0,0.0,0.0,0.0,0.0,0.0,0.0,0.0,0.0,0.0,0.0,0.0,0.0,0.0,0.0,0.0,0.0,0.0,0.0,0.0,0.0,0.0,0.0,0.0,0.0,0.0,0.0,0.0,0.0,0.0,0.0,0.0,0.0,0.0,0.0,0.0,0.0,0.0,0.0,0.0,0.0,0.0,0.0,0.0,0.0,0.0,0.0,0.0,0.0,0.0,0.0,0.0,0.0,0.0,0.0,0.0,0.0,0.0,0.0,0.0,0.0,0.0,0.0,0.0,0.0,0.0,0.0,0.0,0.0,0.0,0.0,0.0,0.0,0.0,0.0,0.0,0.0,0.0,0.0,0.0,0.0,0.0,0.0,0.0,0.0,0.0,0.0,0.0,0.0,0.0,0.0,0.0,0.0,0.0,0.0,0.0,0.0,0.0,0.0,0.0,0.0,0.0,0.0,0.0,0.0,0.0,0.0,0.0,0.0,0.0,0.0,0.0,0.0,0.0,0.0,0.0,0.0,0.0,0.0,0.0,0.0,0.0,0.0,0.0,0.0,0.0,0.0,0.0,0.0,0.0,0.0,0.0,0.0,0.0,0.0,0.0,0.0,0.0,0.0,0.0,0.0,0.0,0.0,0.0,0.0,0.0,0.0,0.0,0.0,0.0,0.0,0.0,0.0,0.0,0.0,0.0,0.0,0.0,0.0,0.0,0.0,0.0,0.0,0.0,0.0,0.0,0.0,0.0,0.0,0.0,0.0,0.0,0.0,0.0,0.0,0.0,0.0,0.0,0.0,0.0,0.0,0.0,0.0,0.0,0.0,0.0,0.0,0.0,0.0,0.0,0.0,0.0,0.0,0.0,0.0,0.0,0.0,0.0,0.0,0.0,0.0,0.0,0.0,0.0,0.0,0.0,0.0,0.0,0.0,0.0,0.0,0.0,0.0,0.0,0.0,0.0,0.0,0.0,0.0,0.0,0.0,0.0,0.0,0.0,0.0,0.0,0.0,0.0,0.0,0.0,0.0,0.0,0.0,0.0,0.0,0.0,0.0,0.0,0.0,0.0,0.0,0.0,0.0,0.0,0.0,0.0,0.0,0.0,0.0,0.0,0.0,0.0,0.0,0.0,0.0,0.0,0.0,0.0,0.0,0.0,0.0,0.0,0.0,0.0,0.0,0.0,0.0,0.0,0.0,0.0,0.0,0.0,0.0,0.0,0.0,0.0,0.0,0.0,0.0,0.0,0.0,0.0,0.0,0.0,0.0,0.0,0.0,0.0,0.0,0.0,0.0,0.0,0.0,0.0,0.0,0.0,0.0,0.0,0.0,0.0,0.0,0.0,0.0,0.0,0.0,0.0,0.0,0.0,0.0,0.0,0.0,0.0,0.0,0.0,0.0,0.0,0.0,0.0,0.0,0.0,0.0,0.0,0.0,0.0,0.0,0.0,0.0,0.0,0.0,0.0,0.0,0.0,0.0,0.0,0.0,0.0,0.0,0.0,0.0,0.0,0.0,0.0,0.0,0.0,0.0,0.0,0.0,0.0,0.0,0.0,0.0,0.0,0.0,0.0,0.0,0.0,0.0,0.0,0.0,0.0,0.0,0.0,0.0,0.0,0.0,0.0,0.0,0.0,0.0,0.0,0.0,0.0,0.0,0.0,0.0,0.0,0.0,0.0,0.0,0.0,0.0,0.0,0.0,0.0,0.0,0.0,0.0,0.0,0.0,0.0,0.0,0.0,0.0,0.0,0.0,0.0,0.0,0.0,0.0,0.0,0.0,0.0,0.0,0.0,0.0,0.0,0.0,0.0,0.0,0.0,0.0,0.0,0.0,0.0,0.0,0.0,0.0,0.0,0.0,0.0,0.0,0.0,0.0,0.0,0.0,0.0,0.0,0.0,0.0,0.0,0.0,0.0,0.0,0.0,0.0,0.0,0.0,0.0,0.0,0.0,0.0,0.0,0.0,0.0,0.0,0.0,0.0,0.0,0.0,0.0,0.0,0.0,0.0,0.0,0.0,0.0,0.0,0.0,0.0,0.0,0.0,0.0,0.0,0.0,0.0,0.0,0.0,0.0,0.0,0.0,0.0,0.0,0.0,0.0,0.0,0.0,0.0,0.0,0.0,0.0,0.0,0.0,0.0,0.0,0.0,0.0,0.0,0.0,0.0,0.0,0.0,0.0,0.0,0.0,0.0,0.0,0.0,0.0,0.0,0.0,0.0,0.0,0.0,0.0,0.0,0.0,0.0,0.0,0.0,0.0,0.0,0.0,0.0,0.0,0.0,0.0,0.0,0.0,0.0,0.0,0.0,0.0,0.0,0.0,0.0,0.0,0.0,0.0,0.0,0.0,0.0,0.0,0.0,0.0,0.0,0.0,0.0,0.0,0.0,0.0,0.0,0.0,0.0,0.0,0.0,0.0,0.0,0.0,0.0,0.0,0.0,0.0,0.0,0.0,0.0,0.0,0.0,0.0,0.0,0.0,0.0,0.0,0.0,0.0,0.0,0.0,0.0,0.0,0.0,0.0,0.0,0.0,0.0,0.0,0.0,0.0,0.0,0.0,0.0,0.0,0.0,0.0,0.0,0.0,0.0,0.0,0.0,0.0,0.0,0.0,0.0,0.0,0.0,0.0,0.0,0.0,0.0,0.0,0.0,0.0,0.0,0.0,0.0,0.0,0.0,0.0,0.0,0.0,0.0,0.0,0.0,0.0,0.0,0.0,0.0,0.0,0.0,0.0,0.0,0.0,0.0,0.0,0.0,0.0,0.0,0.0,0.0,0.0,0.0,0.0,0.0,0.0,0.0,0.0,0.0,0.0,0.0,0.0,0.0,0.0,0.0,0.0,0.0,0.0,0.0,0.0,0.0,0.0,0.0,0.0,0.0,0.0,0.0,0.0,0.0,0.0,0.0,0.0,0.0,0.0,0.0,0.0,0.0,0.0,0.0,0.0,0.0,0.0,0.0,0.0,0.0,0.0,0.0,0.0,0.0,0.0,0.0,0.0,0.0,0.0,0.0,0.0,0.0,0.0,0.0,0.0,0.0,0.0,0.0,0.0,0.0,0.0,0.0,0.0,0.0,0.0,0.0,0.0,0.0,0.0,0.0,0.0,0.0,0.0,0.0,0.0,0.0,0.0,0.0,0.0,0.0,0.0,0.0,0.0,0.0,0.0,0.0,0.0,0.0,0.0,0.0,0.0,-2.5687,0.0,0.0,0.0,0.0,0.0,0.0,0.0,0.0,0.0,0.0,0.0,0.0,0.0,0.0,0.0,0.0,0.0,0.0,0.0,0.0,0.0,0.0,0.0,0.0,0.0,0.0,0.0,0.0,0.0,0.0,0.0,0.0,0.0,0.0,0.0,0.0,0.0,0.0,0.0,0.0,0.0,0.0,0.0,0.0,0.0,0.0,0.0,0.0,0.0,0.0,0.0,0.0,0.0,0.0,0.0,0.0,0.0,0.0,0.0,0.0,0.0,0.0,0.0,0.0,0.0,0.0,0.0,0.0,0.0,0.0,0.0,0.0,0.0,0.0,0.0,0.0,0.0,0.0,0.0,0.0,0.0,0.0,0.0,0.0,0.0,0.0,0.0,0.0,0.0,0.0,0.0,0.0,0.0,0.0,0.0,0.0,0.0,0.0,0.0,0.0,0.0,0.0,0.0,0.0,0.0,0.0,0.0,0.0,0.0,0.0,-2.5687,-2.5687,-2.5687,-2.5705,-2.5698,0.0,0.0,0.0,0.0,0.0,0.0,0.0,0.0,0.0,0.0,0.0,0.0,0.0,0.0,0.0,0.0,0.0,0.0,0.0,0.0,0.0,0.0,0.0,0.0,0.0,0.0,0.0,0.0,0.0,0.0,0.0,0.0,0.0,0.0,0.0,0.0,0.0,0.0,0.0,0.0,0.0,0.0,0.0,0.0,0.0,0.0,0.0,0.0,0.0,0.0,0.0,0.0,0.0,0.0,0.0,0.0,0.0,0.0,0.0,0.0,0.0,0.0,0.0,0.0,0.0,0.0,0.0,0.0,0.0,0.0,0.0,0.0,0.0,0.0,0.0,0.0,0.0,0.0,0.0,0.0,0.0,0.0,0.0,0.0,0.0,0.0,0.0,0.0,0.0,0.0,0.0,0.0,0.0,0.0,0.0,0.0,0.0,0.0,0.0,0.0,0.0,0.0,0.0,0.0,0.0,0.0,0.0,0.0,0.0,0.0,0.0,0.0,-2.6293,-2.619,-2.5998,0.0,0.0,0.0,0.0,0.0,0.0,0.0,0.0,0.0,0.0,0.0,0.0,0.0,0.0,0.0,0.0,0.0,0.0,0.0,0.0,0.0,0.0,0.0,0.0,0.0,0.0,0.0,0.0,0.0,0.0,0.0,0.0,0.0,0.0,0.0,0.0,0.0,0.0,0.0,0.0,0.0,0.0,0.0,0.0,0.0,0.0,0.0,0.0,0.0,0.0,0.0,0.0,0.0,0.0,0.0,0.0,0.0,0.0,0.0,0.0,0.0,0.0,0.0,0.0,0.0,0.0,0.0,0.0,0.0,0.0,0.0,0.0,0.0,0.0,0.0,0.0,0.0,0.0,0.0,0.0,0.0,0.0,0.0,0.0,0.0,0.0,0.0,0.0,0.0,0.0,0.0,0.0,0.0,0.0,0.0,0.0,0.0,0.0,0.0,0.0,0.0,0.0,0.0,0.0,0.0,0.0,0.0,0.0,0.0,0.0,-2.6449,-2.8009,-2.8049,0.0,-2.6883,0.0,0.0,0.0,0.0,0.0,0.0,0.0,0.0,0.0,0.0,0.0,0.0,0.0,0.0,0.0,0.0,0.0,0.0,0.0,0.0,0.0,0.0,0.0,0.0,0.0,0.0,0.0,0.0,0.0,0.0,0.0,0.0,0.0,0.0,0.0,0.0,0.0,0.0,0.0,0.0,0.0,0.0,0.0,0.0,0.0,0.0,0.0,0.0,0.0,0.0,0.0,0.0,0.0,0.0,0.0,0.0,0.0,0.0,0.0,0.0,0.0,0.0,0.0,0.0,0.0,0.0,0.0,0.0,0.0,0.0,0.0,0.0,0.0,0.0,0.0,0.0,0.0,0.0,0.0,0.0,0.0,0.0,0.0,0.0,0.0,0.0,0.0,0.0,0.0,0.0,0.0,0.0,0.0,0.0,0.0,0.0,0.0,0.0,0.0,0.0,0.0,0.0,0.0,0.0,0.0,0.0,0.0,0.0,0.0,0.0,-2.7581,-2.8282,-2.7764,-2.7284,0.0,0.0,0.0,0.0,0.0,0.0,0.0,0.0,0.0,0.0,0.0,0.0,0.0,0.0,0.0,0.0,0.0,0.0,0.0,0.0,0.0,0.0,0.0,0.0,0.0,0.0,0.0,0.0,0.0,0.0,0.0,0.0,0.0,0.0,0.0,0.0,0.0,0.0,0.0,0.0,0.0,0.0,0.0,0.0,0.0,0.0,0.0,0.0,0.0,0.0,0.0,0.0,0.0,0.0,0.0,0.0,0.0,0.0,0.0,0.0,0.0,0.0,0.0,0.0,0.0,0.0,0.0,0.0,0.0,0.0,0.0,0.0,0.0,0.0,0.0,0.0,0.0,0.0,0.0,0.0,0.0,0.0,0.0,0.0,0.0,0.0,0.0,0.0,0.0,0.0,0.0,0.0,0.0,0.0,0.0,0.0,0.0,0.0,0.0,0.0,0.0,0.0,0.0,0.0,0.0,0.0,0.0,0.0,0.0,0.0,-2.7893,-2.842,-2.8595,-2.7737,-2.694,-2.6235,0.0,0.0,0.0,0.0,0.0,0.0,0.0,0.0,0.0,0.0,0.0,0.0,0.0,0.0,0.0,0.0,0.0,0.0,0.0,0.0,0.0,0.0,0.0,0.0,0.0,0.0,0.0,0.0,0.0,0.0,0.0,0.0,0.0,0.0,0.0,0.0,0.0,0.0,0.0,0.0,0.0,0.0,0.0,0.0,0.0,0.0,0.0,0.0,0.0,0.0,0.0,0.0,0.0,0.0,0.0,0.0,0.0,0.0,0.0,0.0,0.0,0.0,0.0,0.0,0.0,0.0,0.0,0.0,0.0,0.0,0.0,0.0,0.0,0.0,0.0,0.0,0.0,0.0,0.0,0.0,0.0,0.0,0.0,0.0,0.0,0.0,0.0,0.0,0.0,0.0,0.0,0.0,0.0,0.0,0.0,0.0,0.0,0.0,0.0,0.0,0.0,0.0,0.0,0.0,0.0,0.0,0.0,0.0,0.0,-2.9044,-2.8693,-2.9514,-2.8618,-2.7002,0.0,0.0,0.0,0.0,0.0,0.0,0.0,0.0,0.0,0.0,0.0,0.0,0.0,0.0,0.0,0.0,0.0,0.0,0.0,0.0,0.0,0.0,0.0,0.0,0.0,0.0,0.0,0.0,0.0,0.0,0.0,0.0,0.0,0.0,0.0,0.0,0.0,0.0,0.0,0.0,0.0,0.0,0.0,0.0,0.0,0.0,0.0,0.0,0.0,0.0,0.0,0.0,0.0,0.0,0.0,0.0,0.0,0.0,0.0,0.0,0.0,0.0,0.0,0.0,0.0,0.0,0.0,0.0,0.0,0.0,0.0,0.0,0.0,0.0,0.0,0.0,0.0,0.0,0.0,0.0,0.0,0.0,0.0,0.0,0.0,0.0,0.0,0.0,0.0,0.0,0.0,0.0,0.0,0.0,0.0,0.0,0.0,0.0,0.0,0.0,0.0,0.0,0.0,0.0,0.0,0.0,0.0,0.0,0.0,-2.7463,-2.7483,-2.8675,-3.0939,-2.7155,-2.5265,0.0,0.0,0.0,0.0,0.0,0.0,0.0,0.0,0.0,0.0,0.0,0.0,0.0,0.0,0.0,0.0,0.0,0.0,0.0,0.0,0.0,0.0,0.0,0.0,0.0,0.0,0.0,0.0,0.0,0.0,0.0,0.0,0.0,0.0,0.0,0.0,0.0,0.0,0.0,0.0,0.0,0.0,0.0,0.0,0.0,0.0,0.0,0.0,0.0,0.0,0.0,0.0,0.0,0.0,0.0,0.0,0.0,0.0,0.0,0.0,0.0,0.0,0.0,0.0,0.0,0.0,0.0,0.0,0.0,0.0,0.0,0.0,0.0,0.0,0.0,0.0,0.0,0.0,0.0,0.0,0.0,0.0,0.0,0.0,0.0,0.0,0.0,0.0,0.0,0.0,0.0,0.0,0.0,0.0,0.0,0.0,0.0,0.0,0.0,0.0,0.0,0.0,0.0,0.0,0.0,0.0,0.0,0.0,0.0,-2.6917,0.0,-2.8966,0.0,-2.6236,-2.4232,0.0,0.0,0.0,0.0,0.0,0.0,0.0,0.0,0.0,0.0,0.0,0.0,0.0,0.0,0.0,0.0,0.0,0.0,0.0,0.0,0.0,0.0,0.0,0.0,0.0,0.0,0.0,0.0,0.0,0.0,0.0,0.0,0.0,0.0,0.0,0.0,0.0,0.0,0.0,0.0,0.0,0.0,0.0,0.0,0.0,0.0,0.0,0.0,0.0,0.0,0.0,0.0,0.0,0.0,0.0,0.0,0.0,0.0,0.0,0.0,0.0,0.0,0.0,0.0,0.0,0.0,0.0,0.0,0.0,0.0,0.0,0.0,0.0,0.0,0.0,0.0,0.0,0.0,0.0,0.0,0.0,0.0,0.0,0.0,0.0,0.0,0.0,0.0,0.0,0.0,0.0,0.0,0.0,0.0,0.0,0.0,0.0,0.0,0.0,0.0,0.0,0.0,0.0,0.0,0.0,0.0,0.0,0.0,-2.6135,-2.9358,-3.0215,-2.9527,-2.7195,-2.6098,-2.4037,0.0,0.0,0.0,0.0,0.0,0.0,0.0,0.0,0.0,0.0,0.0,0.0,0.0,0.0,0.0,0.0,0.0,0.0,0.0,0.0,0.0,0.0,0.0,0.0,0.0,0.0,0.0,0.0,0.0,0.0,0.0,0.0,0.0,0.0,0.0,0.0,0.0,0.0,0.0,0.0,0.0,0.0,0.0,0.0,0.0,0.0,0.0,0.0,0.0,0.0,0.0,0.0,0.0,0.0,0.0,0.0,0.0,0.0,0.0,0.0,0.0,0.0,0.0,0.0,0.0,0.0,0.0,0.0,0.0,0.0,0.0,0.0,0.0,0.0,0.0,0.0,0.0,0.0,0.0,0.0,0.0,0.0,0.0,0.0,0.0,0.0,0.0,0.0,0.0,0.0,0.0,0.0,0.0,0.0,0.0,0.0,0.0,0.0,0.0,0.0,0.0,0.0,0.0,0.0,0.0,0.0,0.0,0.0,0.0,-2.7819,-2.86,-2.9198,-2.9451,-2.5309,-2.362,0.0,0.0,0.0,0.0,0.0,0.0,0.0,0.0,0.0,0.0,0.0,0.0,0.0,0.0,0.0,0.0,0.0,0.0,0.0,0.0,0.0,0.0,0.0,0.0,0.0,0.0,0.0,0.0,0.0,0.0,0.0,0.0,0.0,0.0,0.0,0.0,0.0,0.0,0.0,0.0,0.0,0.0,0.0,0.0,0.0,0.0,0.0,0.0,0.0,0.0,0.0,0.0,0.0,0.0,0.0,0.0,0.0,0.0,0.0,0.0,0.0,0.0,0.0,0.0,0.0,0.0,0.0,0.0,0.0,0.0,0.0,0.0,0.0,0.0,0.0,0.0,0.0,0.0,0.0,0.0,0.0,0.0,0.0,0.0,0.0,0.0,0.0,0.0,0.0,0.0,0.0,0.0,0.0,0.0,0.0,0.0,0.0,0.0,0.0,0.0,0.0,0.0,0.0,0.0,0.0,0.0,0.0,0.0,0.0,-2.8962,-3.0043,-3.0679,-3.0786,-2.6509,-2.4741,-2.5768,0.0,0.0,0.0,0.0,0.0,0.0,0.0,0.0,0.0,0.0,0.0,0.0,0.0,0.0,0.0,0.0,0.0,0.0,0.0,0.0,0.0,0.0,0.0,0.0,0.0,0.0,0.0,0.0,0.0,0.0,0.0,0.0,0.0,0.0,0.0,0.0,0.0,0.0,0.0,0.0,0.0,0.0,0.0,0.0,0.0,0.0,0.0,0.0,0.0,0.0,0.0,0.0,0.0,0.0,0.0,0.0,0.0,0.0,0.0,0.0,0.0,0.0,0.0,0.0,0.0,0.0,0.0,0.0,0.0,0.0,0.0,0.0,0.0,0.0,0.0,0.0,0.0,0.0,0.0,0.0,0.0,0.0,0.0,0.0,0.0,0.0,0.0,0.0,0.0,0.0,0.0,0.0,0.0,0.0,0.0,0.0,0.0,0.0,0.0,0.0,0.0,0.0,0.0,0.0,0.0,0.0,0.0,0.0,-3.2282,-3.4014,-3.3677,-3.1203,-2.9293,-2.7164,0.0,0.0,0.0,0.0,0.0,0.0,0.0,0.0,0.0,0.0,0.0,0.0,0.0,0.0,0.0,0.0,0.0,0.0,0.0,0.0,0.0,0.0,0.0,0.0,0.0,0.0,0.0,0.0,0.0,0.0,0.0,0.0,0.0,0.0,0.0,0.0,0.0,0.0,0.0,0.0,0.0,0.0,0.0,0.0,0.0,0.0,0.0,0.0,0.0,0.0,0.0,0.0,0.0,0.0,0.0,0.0,0.0,0.0,0.0,0.0,0.0,0.0,0.0,0.0,0.0,0.0,0.0,0.0,0.0,0.0,0.0,0.0,0.0,0.0,0.0,0.0,0.0,0.0,0.0,0.0,0.0,0.0,0.0,0.0,0.0,0.0,0.0,0.0,0.0,0.0,0.0,0.0,0.0,0.0,0.0,0.0,0.0,0.0,0.0,0.0,0.0,0.0,0.0,0.0,0.0,0.0,0.0,0.0,0.0,-3.4893,-3.6639,-3.6557,-3.458,-3.1643,-2.9422,0.0,0.0,0.0,0.0,0.0,0.0,0.0,0.0,0.0,0.0,0.0,0.0,0.0,0.0,0.0,0.0,0.0,0.0,0.0,0.0,0.0,0.0,0.0,0.0,0.0,0.0,0.0,0.0,0.0,0.0,0.0,0.0,0.0,0.0,0.0,0.0,0.0,0.0,0.0,0.0,0.0,0.0,0.0,0.0,0.0,0.0,0.0,0.0,0.0,0.0,0.0,0.0,0.0,0.0,0.0,0.0,0.0,0.0,0.0,0.0,0.0,0.0,0.0,0.0,0.0,0.0,0.0,0.0,0.0,0.0,0.0,0.0,0.0,0.0,0.0,0.0,0.0,0.0,0.0,0.0,0.0,0.0,0.0,0.0,0.0,0.0,0.0,0.0,0.0,0.0,0.0,0.0,0.0,0.0,0.0,0.0,0.0,0.0,0.0,0.0,0.0,0.0,0.0,0.0,0.0,0.0,0.0,0.0,-3.3392,-3.645,-3.8545,-3.8906,-3.7539,-3.4507,-3.1608,0.0,0.0,0.0,0.0,0.0,0.0,0.0,0.0,0.0,0.0,0.0,0.0,0.0,0.0,0.0,0.0,0.0,0.0,0.0,0.0,0.0,0.0,0.0,0.0,0.0,0.0,0.0,0.0,0.0,0.0,0.0,0.0,0.0,0.0,0.0,0.0,0.0,0.0,0.0,0.0,0.0,0.0,0.0,0.0,0.0,0.0,0.0,0.0,0.0,0.0,0.0,0.0,0.0,0.0,0.0,0.0,0.0,0.0,0.0,0.0,0.0,0.0,0.0,0.0,0.0,0.0,0.0,0.0,0.0,0.0,0.0,0.0,0.0,0.0,0.0,0.0,0.0,0.0,0.0,0.0,0.0,0.0,0.0,0.0,0.0,0.0,0.0,0.0,0.0,0.0,0.0,0.0,0.0,0.0,0.0,0.0,0.0,0.0,0.0,0.0,0.0,0.0,0.0,0.0,0.0,0.0,0.0,0.0,-3.4773,-3.729,-3.9784,-4.0596,-3.956,-3.7166,-3.3628,0.0,0.0,0.0,0.0,0.0,0.0,0.0,0.0,0.0,0.0,0.0,0.0,0.0,0.0,0.0,0.0,0.0,0.0,0.0,0.0,0.0,0.0,0.0,0.0,0.0,0.0,0.0,0.0,0.0,0.0,0.0,0.0,0.0,0.0,0.0,0.0,0.0,0.0,0.0,0.0,0.0,0.0,0.0,0.0,0.0,0.0,0.0,0.0,0.0,0.0,0.0,0.0,0.0,0.0,0.0,0.0,0.0,0.0,0.0,0.0,0.0,0.0,0.0,0.0,0.0,0.0,0.0,0.0,0.0,0.0,0.0,0.0,0.0,0.0,0.0,0.0,0.0,0.0,0.0,0.0,0.0,0.0,0.0,0.0,0.0,0.0,0.0,0.0,0.0,0.0,0.0,0.0,0.0,0.0,0.0,0.0,0.0,0.0,0.0,0.0,0.0,0.0,0.0,0.0,0.0,0.0,0.0,0.0,-3.566,-3.8166,-4.0037,-4.0283,-3.8726,-3.6881,-3.4743,0.0,0.0,0.0,0.0,0.0,0.0,0.0,0.0,0.0,0.0,0.0,0.0,0.0,0.0,0.0,0.0,0.0,0.0,0.0,0.0,0.0,0.0,0.0,0.0,0.0,0.0,0.0,0.0,0.0,0.0,0.0,0.0,0.0,0.0,0.0,0.0,0.0,0.0,0.0,0.0,0.0,0.0,0.0,0.0,0.0,0.0,0.0,0.0,-2.1372,0.0,0.0,0.0,0.0,0.0,0.0,0.0,0.0,0.0,0.0,0.0,0.0,0.0,0.0,0.0,0.0,0.0,0.0,0.0,0.0,0.0,0.0,0.0,0.0,0.0,0.0,0.0,0.0,0.0,0.0,0.0,0.0,0.0,0.0,0.0,0.0,0.0,0.0,0.0,0.0,0.0,0.0,0.0,0.0,0.0,0.0,0.0,0.0,0.0,0.0,0.0,0.0,0.0,0.0,0.0,0.0,0.0,0.0,0.0,-3.6918,-3.9006,-4.0322,-4.0365,-3.9023,-3.7354,-3.4699,0.0,0.0,0.0,0.0,0.0,0.0,0.0,0.0,0.0,0.0,0.0,0.0,0.0,0.0,0.0,0.0,0.0,0.0,0.0,0.0,0.0,0.0,0.0,0.0,0.0,0.0,0.0,0.0,0.0,0.0,0.0,0.0,0.0,0.0,0.0,0.0,0.0,0.0,0.0,0.0,0.0,0.0,0.0,0.0,0.0,0.0,0.0,0.0,0.0,0.0,0.0,0.0,0.0,0.0,0.0,0.0,0.0,0.0,0.0,0.0,0.0,0.0,0.0,0.0,0.0,0.0,0.0,0.0,0.0,0.0,0.0,0.0,0.0,0.0,0.0,0.0,0.0,0.0,0.0,0.0,0.0,0.0,0.0,0.0,0.0,0.0,0.0,0.0,0.0,0.0,0.0,0.0,0.0,0.0,0.0,0.0,0.0,0.0,0.0,0.0,0.0,0.0,0.0,0.0,0.0,0.0,0.0,-3.4817,-3.7681,-3.9802,-4.0625,-4.0524,-3.9509,-3.7955,-3.426,-2.8376,0.0,0.0,0.0,0.0,0.0,0.0,0.0,0.0,0.0,0.0,0.0,0.0,0.0,0.0,0.0,0.0,0.0,0.0,0.0,0.0,0.0,0.0,0.0,0.0,0.0,0.0,0.0,0.0,0.0,0.0,0.0,0.0,0.0,0.0,0.0,0.0,0.0,0.0,-2.0822,-2.3042,0.0,0.0,0.0,0.0,0.0,0.0,0.0,0.0,-2.2703,0.0,0.0,0.0,0.0,0.0,0.0,0.0,0.0,0.0,0.0,0.0,0.0,0.0,0.0,0.0,0.0,0.0,0.0,0.0,0.0,0.0,0.0,0.0,0.0,0.0,0.0,0.0,0.0,0.0,0.0,0.0,0.0,0.0,0.0,0.0,0.0,0.0,0.0,0.0,0.0,0.0,0.0,0.0,0.0,0.0,0.0,0.0,0.0,0.0,0.0,0.0,0.0,0.0,0.0,0.0,0.0,-3.3925,-3.3975,-3.6147,-4.064,-4.0917,-4.0236,-3.8659,-3.7625,-3.4264,-2.8469,0.0,0.0,0.0,0.0,0.0,0.0,0.0,0.0,0.0,0.0,0.0,0.0,0.0,0.0,0.0,0.0,0.0,0.0,0.0,0.0,0.0,0.0,0.0,0.0,0.0,0.0,0.0,0.0,0.0,0.0,0.0,0.0,0.0,0.0,0.0,0.0,0.0,0.0,0.0,-2.5708,-2.6678,0.0,0.0,0.0,0.0,0.0,0.0,0.0,0.0,-2.3352,0.0,0.0,0.0,0.0,0.0,0.0,0.0,0.0,0.0,0.0,0.0,0.0,0.0,0.0,0.0,0.0,0.0,0.0,0.0,0.0,0.0,0.0,0.0,0.0,0.0,0.0,0.0,0.0,0.0,0.0,0.0,0.0,0.0,0.0,0.0,0.0,0.0,0.0,0.0,0.0,0.0,0.0,0.0,0.0,0.0,0.0,0.0,0.0,0.0,0.0,0.0,0.0,0.0,0.0,0.0,-3.3044,-3.5105,-3.7627,-4.0854,-4.0976,-4.0138,-3.8425,-3.6673,-3.3351,0.0,0.0,0.0,0.0,0.0,0.0,0.0,0.0,0.0,0.0,0.0,0.0,0.0,0.0,0.0,0.0,0.0,0.0,0.0,0.0,0.0,0.0,0.0,0.0,0.0,0.0,0.0,0.0,0.0,0.0,0.0,0.0,0.0,0.0,0.0,0.0,0.0,0.0,0.0,0.0,-2.6483,-2.7411,-2.7921,0.0,0.0,0.0,0.0,0.0,0.0,-2.4527,-2.3714,0.0,0.0,0.0,0.0,0.0,0.0,0.0,0.0,0.0,0.0,0.0,0.0,0.0,0.0,0.0,0.0,0.0,0.0,0.0,0.0,0.0,0.0,0.0,0.0,0.0,0.0,0.0,0.0,0.0,0.0,0.0,0.0,0.0,0.0,0.0,0.0,0.0,0.0,0.0,0.0,0.0,0.0,0.0,0.0,0.0,0.0,0.0,0.0,0.0,0.0,0.0,0.0,0.0,0.0,0.0,-3.1776,-3.5717,-3.8769,-4.0874,-4.0964,-4.012,-3.8425,-3.6207,-3.2846,0.0,0.0,0.0,0.0,0.0,0.0,0.0,0.0,0.0,0.0,0.0,0.0,0.0,0.0,0.0,0.0,0.0,0.0,0.0,0.0,0.0,0.0,0.0,0.0,0.0,0.0,0.0,0.0,0.0,0.0,0.0,0.0,0.0,0.0,0.0,0.0,0.0,0.0,0.0,0.0,0.0,-2.8051,-2.7717,-2.7651,0.0,0.0,0.0,0.0,-2.6631,-2.5812,0.0,0.0,0.0,0.0,0.0,0.0,0.0,0.0,0.0,0.0,0.0,0.0,0.0,0.0,0.0,0.0,0.0,0.0,0.0,0.0,0.0,0.0,0.0,0.0,0.0,0.0,0.0,0.0,0.0,0.0,0.0,0.0,0.0,0.0,0.0,0.0,0.0,0.0,0.0,0.0,0.0,0.0,0.0,0.0,0.0,0.0,0.0,0.0,0.0,0.0,0.0,0.0,0.0,0.0,0.0,0.0,-3.0799,-3.3657,-3.6983,-4.0757,-4.0991,-4.0155,-3.8445,-3.7353,-3.407,0.0,0.0,0.0,0.0,0.0,0.0,0.0,0.0,0.0,0.0,0.0,0.0,0.0,0.0,0.0,0.0,0.0,0.0,0.0,0.0,0.0,0.0,0.0,0.0,0.0,0.0,0.0,0.0,0.0,0.0,0.0,0.0,0.0,0.0,0.0,0.0,0.0,0.0,0.0,0.0,0.0,-2.9256,-2.6837,-2.7288,-2.7735,0.0,0.0,-2.7439,-2.7385,-2.8403,0.0,0.0,0.0,0.0,0.0,0.0,0.0,0.0,0.0,0.0,0.0,0.0,0.0,0.0,0.0,0.0,0.0,0.0,0.0,0.0,0.0,0.0,0.0,0.0,0.0,0.0,0.0,0.0,0.0,0.0,0.0,0.0,0.0,0.0,0.0,0.0,0.0,0.0,0.0,0.0,0.0,0.0,0.0,0.0,0.0,0.0,0.0,0.0,0.0,0.0,0.0,0.0,0.0,0.0,0.0,-2.6249,-3.076,-3.4757,-3.8185,-4.0874,-4.0995,-4.0159,-3.8445,-3.5682,-3.2279,0.0,0.0,0.0,0.0,0.0,0.0,0.0,0.0,0.0,0.0,0.0,0.0,0.0,0.0,0.0,0.0,0.0,0.0,0.0,0.0,0.0,0.0,0.0,0.0,0.0,0.0,0.0,0.0,0.0,0.0,0.0,0.0,0.0,0.0,0.0,0.0,0.0,0.0,0.0,0.0,0.0,0.0,-2.8469,-2.8785,0.0,0.0,0.0,-2.8983,-2.9412,0.0,0.0,0.0,0.0,0.0,0.0,0.0,0.0,0.0,0.0,0.0,0.0,0.0,0.0,0.0,0.0,0.0,0.0,0.0,0.0,0.0,0.0,0.0,0.0,0.0,0.0,0.0,0.0,0.0,0.0,0.0,0.0,0.0,0.0,0.0,0.0,0.0,0.0,0.0,0.0,0.0,0.0,0.0,0.0,0.0,0.0,0.0,0.0,0.0,0.0,0.0,0.0,0.0,0.0,0.0,0.0,0.0,-3.082,-3.59,-3.9336,-4.0944,-4.1009,-4.0175,-3.8423,-3.4851,0.0,0.0,0.0,0.0,0.0,0.0,0.0,0.0,0.0,0.0,0.0,0.0,0.0,0.0,0.0,0.0,0.0,0.0,0.0,0.0,0.0,0.0,0.0,0.0,0.0,0.0,0.0,-1.5011,0.0,0.0,0.0,0.0,0.0,0.0,0.0,0.0,0.0,0.0,0.0,0.0,0.0,0.0,-2.8439,-2.9314,-3.0079,-3.0722,0.0,0.0,-3.0473,-3.0672,-3.0043,-2.8744,0.0,0.0,0.0,0.0,0.0,0.0,0.0,0.0,0.0,0.0,0.0,0.0,0.0,0.0,0.0,0.0,0.0,0.0,0.0,0.0,0.0,0.0,0.0,0.0,0.0,0.0,0.0,0.0,0.0,0.0,0.0,0.0,0.0,0.0,0.0,0.0,0.0,0.0,0.0,0.0,0.0,0.0,0.0,0.0,0.0,0.0,0.0,0.0,0.0,0.0,0.0,0.0,0.0,0.0,0.0,-3.0859,-3.5935,-3.9398,-4.1013,-4.1025,-4.0156,-3.8431,-3.6557,-3.3173,0.0,0.0,0.0,0.0,0.0,0.0,0.0,0.0,0.0,0.0,0.0,0.0,0.0,0.0,0.0,0.0,0.0,0.0,0.0,0.0,0.0,0.0,0.0,0.0,0.0,0.0,0.0,0.0,0.0,0.0,0.0,0.0,0.0,0.0,0.0,0.0,0.0,0.0,0.0,0.0,0.0,-2.9357,-2.7798,-3.0292,-3.2004,0.0,0.0,-3.1546,-3.011,-3.1039,-3.0659,-2.6826,0.0,0.0,0.0,0.0,0.0,0.0,0.0,0.0,0.0,0.0,0.0,0.0,0.0,0.0,0.0,0.0,0.0,0.0,0.0,0.0,0.0,0.0,0.0,0.0,0.0,0.0,0.0,0.0,0.0,0.0,0.0,0.0,0.0,0.0,0.0,0.0,0.0,0.0,0.0,0.0,0.0,0.0,0.0,0.0,0.0,0.0,0.0,0.0,0.0,0.0,0.0,0.0,0.0,-2.8265,-3.082,-3.5935,-3.9401,-4.1018,-4.1083,-4.0201,-3.8435,-3.6218,-3.3128,0.0,0.0,0.0,0.0,0.0,0.0,0.0,0.0,0.0,0.0,0.0,0.0,0.0,0.0,0.0,0.0,0.0,0.0,0.0,0.0,0.0,0.0,0.0,0.0,0.0,0.0,0.0,0.0,-1.6208,-1.6431,-1.6201,0.0,0.0,0.0,0.0,0.0,0.0,0.0,0.0,0.0,0.0,-2.8718,-2.9494,-3.1175,0.0,0.0,-3.2306,-3.2162,-3.2035,-3.1691,-3.0586,-2.8075,-2.6753,0.0,0.0,0.0,0.0,0.0,0.0,0.0,0.0,0.0,0.0,0.0,0.0,0.0,0.0,0.0,0.0,0.0,0.0,0.0,0.0,0.0,0.0,0.0,0.0,0.0,0.0,0.0,0.0,0.0,0.0,0.0,0.0,0.0,0.0,0.0,0.0,0.0,0.0,0.0,0.0,0.0,0.0,0.0,0.0,0.0,0.0,0.0,0.0,0.0,0.0,0.0,0.0,-2.7991,-3.0781,-3.5428,-3.8644,-4.0325,-4.0337,-3.9594,-3.8056,-3.6041,-3.3355,0.0,0.0,0.0,0.0,0.0,0.0,0.0,0.0,0.0,0.0,0.0,0.0,0.0,0.0,0.0,0.0,0.0,0.0,0.0,0.0,0.0,0.0,0.0,0.0,0.0,0.0,0.0,0.0,-1.7198,-1.7486,-1.6649,0.0,0.0,0.0,0.0,0.0,0.0,0.0,0.0,0.0,0.0,-2.8887,-3.0745,-3.1942,-3.2827,-3.3335,-3.2922,-3.2578,-3.2669,-3.1926,-3.0586,-2.8256,0.0,0.0,0.0,0.0,0.0,0.0,0.0,0.0,0.0,0.0,0.0,0.0,0.0,0.0,0.0,0.0,0.0,0.0,0.0,0.0,0.0,0.0,0.0,0.0,0.0,0.0,0.0,0.0,0.0,0.0,-2.1784,0.0,0.0,0.0,0.0,0.0,0.0,0.0,0.0,0.0,0.0,0.0,0.0,0.0,0.0,0.0,0.0,0.0,0.0,0.0,0.0,0.0,0.0,-2.7444,-3.0781,-3.4333,-3.6949,-3.8609,-3.861,-3.8168,-3.7253,-3.6333,-3.4222,-3.0689,0.0,0.0,0.0,0.0,0.0,0.0,0.0,0.0,0.0,0.0,0.0,0.0,0.0,0.0,0.0,0.0,0.0,0.0,0.0,0.0,0.0,0.0,0.0,0.0,0.0,0.0,-1.6398,-1.7681,-1.8267,0.0,0.0,0.0,0.0,0.0,0.0,0.0,0.0,0.0,0.0,-2.7454,-3.027,-3.0917,-3.252,-3.3564,-3.3422,-3.3375,-3.285,-3.1397,-3.1687,-3.0822,0.0,0.0,0.0,0.0,0.0,0.0,0.0,0.0,0.0,0.0,0.0,0.0,0.0,0.0,0.0,0.0,0.0,0.0,0.0,0.0,0.0,0.0,0.0,0.0,0.0,0.0,0.0,-2.8131,-2.6382,0.0,0.0,0.0,0.0,0.0,0.0,0.0,0.0,0.0,0.0,0.0,-3.0899,-3.2617,0.0,0.0,0.0,0.0,0.0,0.0,0.0,0.0,0.0,0.0,0.0,0.0,-2.8536,-3.0859,-3.4803,-3.7438,-3.8572,-3.8566,-3.8147,-3.7238,-3.6391,-3.378,-2.9179,0.0,0.0,0.0,0.0,0.0,0.0,0.0,0.0,0.0,0.0,0.0,0.0,0.0,0.0,0.0,0.0,0.0,0.0,0.0,0.0,0.0,0.0,0.0,0.0,0.0,-1.8202,0.0,0.0,0.0,0.0,0.0,0.0,0.0,0.0,0.0,0.0,0.0,-2.4026,-2.5566,-2.8732,-3.0978,-3.118,-3.252,-3.3481,0.0,0.0,0.0,0.0,0.0,0.0,0.0,0.0,0.0,0.0,0.0,0.0,0.0,0.0,-2.9735,-2.5751,-2.4592,-2.4556,-2.5588,0.0,0.0,0.0,0.0,0.0,0.0,0.0,0.0,0.0,0.0,0.0,0.0,0.0,0.0,-3.1603,0.0,-2.9437,0.0,0.0,0.0,0.0,0.0,0.0,0.0,0.0,-3.3318,-3.4619,-3.4404,-3.6095,-3.5701,0.0,-3.2638,-3.004,0.0,0.0,0.0,0.0,0.0,0.0,0.0,0.0,-2.8967,-3.127,-3.4627,-3.6813,-3.7653,-3.7692,-3.7395,-3.6797,-3.5681,-3.3072,-2.8788,-2.6167,-2.4138,0.0,0.0,0.0,0.0,0.0,0.0,0.0,0.0,0.0,0.0,0.0,0.0,0.0,0.0,0.0,0.0,0.0,0.0,0.0,0.0,0.0,0.0,0.0,-1.9054,0.0,0.0,0.0,0.0,0.0,0.0,0.0,0.0,0.0,-2.2105,-2.4186,-2.6293,-2.7785,-3.0212,-3.1806,-3.1722,0.0,0.0,0.0,0.0,0.0,0.0,0.0,-3.1781,-3.1469,-3.1274,-3.126,-3.1759,-3.3592,-3.4498,-3.2886,0.0,0.0,-2.8793,-2.7471,-2.7327,-2.8123,-2.8485,-2.8739,-2.9016,-2.9994,-3.0582,0.0,0.0,0.0,0.0,0.0,0.0,0.0,0.0,-3.4369,-3.4176,0.0,-3.2411,0.0,0.0,0.0,0.0,0.0,0.0,0.0,0.0,-3.7715,-3.9296,-3.8514,-3.8601,-3.7771,-3.6226,-3.6833,-3.5018,-3.082,-2.5883,0.0,0.0,0.0,0.0,0.0,0.0,-2.8773,-3.207,-3.3906,-3.5174,-3.6012,-3.6051,-3.6012,-3.5913,-3.428,-3.2159,-2.9667,-2.8644,-2.6998,-2.4436,-2.1986,0.0,0.0,0.0,0.0,0.0,0.0,0.0,0.0,0.0,0.0,0.0,0.0,0.0,0.0,0.0,0.0,0.0,0.0,0.0,0.0,-1.8421,0.0,0.0,0.0,0.0,0.0,0.0,0.0,0.0,0.0,0.0,-2.4854,-2.6823,-2.8841,-3.0224,0.0,0.0,0.0,0.0,-3.3929,-3.4564,-3.4627,-3.4627,-3.4643,-3.5222,-3.4863,-3.2705,0.0,0.0,-3.3791,-3.4826,-3.5388,-3.3828,-3.4824,-3.5315,-3.3668,-3.2053,-3.1365,-3.2053,-3.1668,-3.1437,-3.2144,-3.2817,-3.3364,-4.0539,0.0,0.0,0.0,0.0,-3.8205,-3.894,-4.0359,-3.9978,-3.8663,-3.6723,-3.6472,0.0,0.0,0.0,0.0,0.0,0.0,-3.4932,-3.6163,-3.8039,-3.9081,-3.9452,-4.0094,-3.9794,-3.8707,-3.777,-3.6345,-3.4431,-3.1153,-2.7991,-2.5004,0.0,0.0,0.0,0.0,-3.0821,-3.2967,-3.4743,-3.5758,-3.6012,-3.6012,-3.5699,-3.5096,-3.3383,-3.1831,-3.0464,-2.9584,-2.7918,-2.5362,-2.4544,0.0,0.0,0.0,0.0,0.0,0.0,0.0,0.0,0.0,0.0,0.0,0.0,0.0,0.0,0.0,0.0,0.0,0.0,0.0,-1.9276,-1.9104,-1.9606,0.0,0.0,0.0,0.0,0.0,0.0,0.0,0.0,0.0,-2.9645,-3.0525,-3.1061,0.0,0.0,-3.3583,-3.3382,-3.3909,-3.4609,-3.5349,0.0,0.0,0.0,-3.4682,-3.4244,-3.4682,-3.5838,-3.6506,-3.6037,-3.6816,-3.7176,-3.6109,-3.6343,-3.6309,-3.5367,-3.4754,-3.4498,-3.4682,-3.4588,-3.4482,-3.4718,-3.4987,-3.5017,-4.4175,-4.1861,-4.0133,-4.0346,-4.1699,-4.1235,-4.1874,-4.3285,-4.2744,-4.1835,-4.0726,-4.0359,-3.8431,-3.5317,-3.4482,0.0,0.0,0.0,-3.6869,-3.8233,-3.9112,-3.9824,-4.033,-4.0854,-4.0632,-3.9761,-3.8785,-3.7848,-3.7009,-3.4744,-3.2168,-2.9298,0.0,0.0,-2.9065,-3.0899,-3.2498,-3.3905,-3.529,-3.6012,-3.6012,-3.566,-3.4901,-3.369,-3.2648,-3.1684,-3.082,-2.9968,-2.8615,-2.6719,-2.5968,-2.395,0.0,0.0,0.0,0.0,0.0,0.0,0.0,0.0,0.0,0.0,0.0,-1.5613,-1.3376,0.0,0.0,0.0,-1.8442,-2.0117,-2.1468,-2.1473,0.0,0.0,0.0,0.0,0.0,0.0,0.0,-2.7972,-2.8788,-3.0021,-3.2292,-3.2874,-3.2986,-3.2713,-3.3716,-3.4444,-3.433,0.0,-3.5466,-3.6266,-3.6394,-3.6474,-3.6705,-3.5946,-3.5639,-3.6598,-3.6852,-3.6995,-3.7013,-3.7665,-3.7901,-3.7249,-3.7267,-3.7323,-3.6834,-3.6761,-3.6508,-3.5949,-3.6073,-3.6272,-3.6272,-3.6526,-3.6678,-4.6631,-4.5742,-4.4156,-4.3479,-4.3498,-4.3498,-4.3498,-4.3498,-4.3518,-4.3924,-4.4536,-4.3769,-4.2512,-4.0797,-3.7721,0.0,-3.755,-3.8422,-3.9196,-3.9945,-4.0795,-4.1152,-4.1112,-4.1101,-4.0681,-3.9917,-3.9839,-3.9429,-3.863,-3.7009,-3.5779,-3.4861,-3.25,-3.1621,-3.2228,-3.3046,-3.3944,-3.4783,-3.5602,-3.5953,-3.5875,-3.5037,-3.3788,-3.2169,-3.1974,-3.1519,-3.0723,-2.9847,-2.9007,-2.8128,-2.6579,-2.4538,-2.203,0.0,0.0,0.0,0.0,0.0,0.0,0.0,0.0,0.0,0.0,0.0,0.0,0.0,0.0,0.0,-2.134,0.0,-2.3919,-2.4669,0.0,0.0,0.0,-2.5717,-2.6772,-2.7262,-2.8207,-2.9967,0.0,0.0,-3.3381,0.0,-3.4528,-3.4328,-3.4772,-3.5143,-3.518,-3.5684,-3.6384,-3.7119,-3.7269,-3.7468,-3.7753,-3.772,-3.7593,-3.7665,-3.7393,-3.6886,-3.6886,-3.743,-3.7629,-3.6995,-3.752,-3.7937,-3.7991,-3.7792,-3.7575,-3.6148,-3.6562,-3.7104,-3.7122,-3.7611,-3.8029,-4.696,-4.6709,-4.5645,-4.52,-4.52,-4.52,-4.5207,-4.5207,-4.5188,-4.4987,-4.4601,-4.4388,-4.3711,-4.2647,-4.1848,-4.1646,-4.1906,-4.213,-4.2014,-4.1715,-4.1902,-4.1695,-4.1111,-4.1112,-4.1006,-4.0758,-4.0112,-3.9702,-3.9468,-3.8474,-3.7537,-3.6696,-3.6072,-3.4861,-3.3182,-3.3944,-3.4822,-3.568,-3.5895,-3.568,-3.4998,-3.4157,-3.3202,-3.213,-3.0861,-3.0099,-2.988,-2.9006,-2.8136,-2.7333,-2.6844,-2.5695,-2.3769,-2.2101,0.0,0.0,0.0,0.0,0.0,0.0,0.0,0.0,0.0,-1.9161,-1.6135,0.0,-2.1876,0.0,-2.2561,-2.3957,-2.4809,-2.4473,0.0,0.0,-2.7478,-2.8139,-3.0784,-3.0048,-3.015,-3.2383,-3.2334,-3.2668,-3.4132,-3.447,-3.4528,-3.4328,-3.4425,-3.468,-3.5119,-3.5711,-3.6391,-3.7104,-3.7161,-3.713,-3.7192,-3.6743,-3.6417,-3.6365,-3.6202,-3.6091,-3.6091,-3.6254,-3.629,-3.6127,-3.6218,-3.6363,-3.6417,-3.6381,-3.6526,-3.6671,-3.7357,-3.7919,-3.7919,-3.8082,-3.8209,-4.7811,-4.7057,-4.6581,-4.6155,-4.5807,-4.5807,-4.5807,-4.5807,-4.5807,-4.5548,-4.5142,-4.5123,-4.4678,-4.3898,-4.3885,-4.3686,-4.3382,-4.3402,-4.3175,-4.2769,-4.2448,-4.2069,-4.1636,-4.1267,-4.11,-4.109,-4.06,-4.0385,-4.0346,-3.9527,-3.8882,-3.8414,-3.7653,-3.6579,-3.5193,-3.5232,-3.5506,-3.6012,-3.6012,-3.5584,-3.4705,-3.3866,-3.2812,-3.1563,-3.0626,-2.9786,-2.9045,-2.8486,-2.7834,-2.7033,-2.6568,-2.5708,-2.4384,-2.3431,-2.2352,0.0,0.0,0.0,0.0,0.0,0.0,0.0,0.0,0.0,0.0,0.0,-2.4079,0.0,-2.5394,-2.6625,-2.7861,-2.7873,-2.8574,-3.0407,-3.0197,-3.0794,-3.2988,-3.2279,-3.2317,-3.4008,-3.3666,-3.3652,-3.4574,-3.4634,-3.4561,-3.445,-3.442,-3.465,-3.5261,-3.5919,-3.6533,-3.6942,-3.6857,-3.6668,-3.6501,-3.5802,-3.5388,-3.5677,-3.5496,-3.5261,-3.5261,-3.555,-3.5677,-3.5351,-3.555,-3.5786,-3.5786,-3.5786,-3.5983,-3.6363,-3.6816,-3.7232,-3.7611,-3.7955,-3.8136,-4.8759,-4.727,-4.7134,-4.6593,-4.5807,-4.5807,-4.5807,-4.5807,-4.5807,-4.5807,-4.5807,-4.5807,-4.5394,-4.4748,-4.4748,-4.4349,-4.364,-4.3671,-4.3671,-4.3535,-4.29,-4.249,-4.2259,-4.1578,-4.1193,-4.1114,-4.1111,-4.1109,-4.109,-4.0327,-3.9917,-3.9741,-3.8238,-3.7419,-3.7262,-3.6441,-3.6012,-3.6012,-3.6012,-3.5582,-3.4707,-3.3866,-3.2635,-3.1055,-3.0664,-2.9805,-2.838,-2.8139,-2.7722,-2.7017,-2.6222,-2.5426,-2.4704,-2.4427,-2.3597,0.0,-2.1969,0.0,0.0,0.0,0.0,0.0,0.0,0.0,0.0,-2.5443,-2.6615,-2.8058,-2.8898,-2.998,-3.1439,-3.226,-3.2756,-3.2852,-3.2871,-3.3196,-3.4025,-3.4048,-3.4255,-3.5016,-3.4936,-3.4809,-3.4788,-3.4706,-3.4623,-3.4602,-3.4591,-3.4761,-3.5315,-3.5994,-3.6452,-3.6546,-3.6358,-3.5995,-3.5542,-3.4911,-3.4679,-3.5225,-3.4881,-3.4446,-3.4443,-3.4971,-3.5225,-3.4679,-3.4953,-3.5406,-3.5478,-3.5442,-3.5512,-3.562,-3.5693,-3.5965,-3.6687,-3.7303,-3.7647,-4.9088,-4.8082,-4.7405,-4.6593,-4.5807,-4.5807,-4.5807,-4.5807,-4.5807,-4.5807,-4.5807,-4.5807,-4.571,-4.5575,-4.5575,-4.5471,-4.5343,-4.5331,-4.5021,-4.4449,-4.4307,-4.3552,-4.2325,-4.214,-4.1718,-4.1129,-4.1116,-4.1109,-4.1109,-4.0934,-4.0503,-3.978,-3.8824,-3.8004,-3.7301,0.0,0.0,0.0,-3.6012,-3.5564,-3.4707,-3.3827,-3.291,-3.1856,-2.9845,0.0,-2.8302,-2.7599,-2.7149,-2.7013,-2.6816,0.0,0.0,0.0,0.0,0.0,0.0,0.0,0.0,0.0,0.0,0.0,-2.6838,-2.6563,-2.6324,-2.8158,-2.9743,-3.0612,-3.1496,-3.21,-3.2432,-3.2604,-3.2967,-3.3662,-3.3765,-3.4063,-3.4838,-3.4897,-3.494,-3.5054,-3.4955,-3.4869,-3.4809,-3.4778,-3.4727,-3.4615,-3.4612,-3.4628,-3.4764,-3.5345,-3.5702,-3.5696,-3.5457,-3.4926,-3.4191,-3.3887,-3.377,-3.381,-3.3773,-3.3647,-3.3683,-3.3755,-3.3882,-3.3647,-3.3773,-3.39,-3.39,-3.3846,-3.4135,-3.4715,-3.4826,-3.5062,-3.5856,-3.613,-3.6202,-4.9823,0.0,-4.8082,-4.7231,0.0,-4.5981,-4.5807,-4.5807,-4.5807,-4.5807,-4.5807,-4.5807,-4.5807,-4.5807,-4.5807,-4.5807,-4.5807,-4.5807,-4.5588,-4.5215,-4.4863,-4.4024,-4.2832,-4.2471,-4.1872,-4.1074,-4.1069,-4.1117,-4.1114,-4.1114,-4.0878,-4.0444,-3.9624,-3.898,-3.8512,-3.7282,-3.6441,-3.6012,-3.6012,-3.5797,-3.533,-3.4491,-3.3417,-3.213,0.0,0.0,0.0,0.0,0.0,0.0,0.0,0.0,0.0,0.0,0.0,-2.565,-2.5992,-2.6035,-2.5648,-2.6368,-2.7385,-2.8647,-2.9516,-2.9741,-2.9197,-3.0658,-3.1884,-3.26,-3.3108,-3.3509,-3.3883,-3.3941,-3.4113,-3.4541,-3.4598,-3.477,-3.5125,-3.5168,-3.5162,-3.5145,-3.5065,-3.4983,-3.4955,-3.483,-3.4778,-3.4697,-3.4645,-3.4612,-3.462,-3.4832,-3.5033,-3.4926,-3.4766,-3.44,-3.3831,-3.3633,-3.3509,-3.3437,-3.3393,-3.3393,-3.3393,-3.3393,-3.3393,-3.3393,-3.3393,-3.3393,-3.3393,-3.3393,-3.3538,-3.39,-3.4009,-3.4117,-3.4591,-3.524,-3.5659,-5.0434,-4.9629,-4.8759,-4.7908,-4.7038,-4.6148,-4.5807,-4.5807,0.0,0.0,0.0,-4.5807,-4.5807,-4.5807,-4.5807,-4.5807,-4.5807,-4.5807,-4.5807,-4.5756,-4.5198,-4.436,-4.3389,-4.2783,-4.1973,-4.1026,-4.1055,-4.1069,-4.11,-4.1099,-4.1116,-4.1033,-4.0231,-3.9644,-3.9292,-3.7985,-3.6871,-3.6051,-3.6012,-3.6012,-3.5992,-3.5154,-3.4023,-3.2598,-3.2267,-3.1055,-2.8868,-2.9435,-2.9085,-2.7563,-2.7465,-2.746,-2.7468,-2.7309,-2.7516,-2.8145,-2.8333,-2.8429,-2.8432,-2.8514,-2.8997,-3.003,-3.1363,-3.2145,-3.2133,-3.273,-3.3419,-3.4155,-3.4197,-3.4491,-3.5133,-3.5182,-3.5182,-3.5182,-3.5182,-3.5182,-3.5182,-3.5182,-3.5182,-3.5193,-3.5134,-3.5129,-3.5084,-3.4955,-3.4839,-3.4809,-3.4718,-3.4604,-3.4612,-3.4639,-3.4603,-3.4479,-3.4423,-3.4191,-3.3895,-3.3726,-3.3629,-3.3491,-3.3437,-3.3393,-3.3393,-3.3393,-3.3393,-3.3393,-3.3393,-3.3393,-3.3393,-3.3393,-3.3393,-3.3393,-3.3393,-3.3393,-3.3502,-3.4425,-3.5062,-5.0415,-4.9649,-4.8759,-4.7908,-4.7018,-4.6174,-4.5807,-4.5807,-4.5807,-4.5807,-4.5807,-4.5807,-4.5807,-4.5807,-4.5807,-4.5807,-4.5807,-4.5807,-4.5807,0.0,-4.5673,-4.486,-4.3435,-4.3306,-4.2448,-4.108,-4.1026,-4.1035,-4.1087,-4.1101,-4.1098,-4.0999,-4.0232,-3.9097,-3.775,-3.7419,-3.6871,-3.6031,-3.6012,-3.6012,-3.5992,-3.5154,-3.4588,-3.4295,-3.2872,-3.1602,-3.0507,-3.0567,-3.0196,-2.93,-2.9241,-2.924,-2.92,-2.8468,-2.809,-2.8221,-2.8902,-2.9302,-2.9341,-2.9953,-3.104,-3.2574,-3.2975,-3.33,-3.3797,-3.3898,-3.4237,-3.4931,-3.4999,-3.5076,-3.5182,-3.5182,-3.5182,-3.5182,-3.5182,-3.5182,-3.5182,-3.5182,-3.5182,-3.5182,-3.5193,-3.5151,-3.511,-3.5066,-3.5002,-3.4898,-3.481,-3.4737,-3.4645,-3.4612,-3.4602,-3.4558,-3.4397,-3.4281,-3.4161,-3.3908,-3.3739,-3.3657,-3.3524,-3.3408,-3.3393,-3.3393,-3.3393,-3.3393,-3.3393,-3.3393,-3.3393,-3.3393,-3.3393,-3.3393,-3.3393,-3.3393,-3.3393,-3.3701,-3.3777,-5.0685,-5.021,-4.8952,-4.8159,-4.7695,-4.6368,-4.5807,-4.5807,-4.5807,-4.5807,-4.5807,-4.5807,-4.5807,-4.5807,-4.5807,-4.5807,-4.5807,-4.5807,-4.5807,-4.5807,-4.5807,-4.5182,-4.4073,-4.361,-4.2775,-4.1613,-4.1213,-4.1047,-4.1054,-4.1092,-4.1104,-4.108,-4.0683,-3.9878,-3.8707,-3.8219,-3.7575,-3.6734,-3.6246,-3.6012,-3.5992,-3.5602,-3.5193,-3.4726,-3.3886,-3.3105,-3.2245,-3.1758,-3.1114,-3.0274,-2.9827,-2.9612,-2.9592,-2.9178,-2.9155,-2.9563,-2.9969,-3.0409,-3.0881,-3.1654,-3.2633,-3.3837,-3.3954,-3.4225,-3.487,-3.4879,-3.4953,-3.5176,-3.5182,-3.5182,-3.5182,-3.5182,-3.5182,-3.5182,-3.5182,-3.5182,-3.5182,-3.5182,-3.5182,-3.5182,-3.5182,-3.5193,-3.5151,-3.5108,-3.5084,-3.5001,-3.4888,-3.4778,-3.4727,-3.4645,-3.4612,-3.4602,-3.4498,-3.4427,-3.4316,-3.4142,-3.3947,-3.3734,-3.3615,-3.352,-3.3419,-3.3393,-3.3393,-3.3393,-3.3393,-3.3393,-3.3393,-3.3393,-3.3393,-3.3393,-3.3393,-3.3393,-3.3393,-3.3393,-3.3393,-5.0898,-5.0763,-4.9301,-4.8469,-4.7966,-4.6464,-4.5807,-4.5807,-4.5807,-4.5807,-4.5807,-4.5807,-4.5807,-4.5807,-4.5807,-4.5807,-4.5807,-4.5807,-4.5807,-4.5807,-4.5807,-4.5374,-4.4569,-4.3773,-4.2931,-4.2097,-4.1389,-4.1056,-4.102,-4.1053,-4.1072,-4.11,-4.1114,-4.066,-3.9819,-3.9021,-3.816,-3.7301,-3.6441,-3.6012,-3.6012,-3.6012,-3.566,-3.5057,-3.4979,-3.4588,-3.3729,-3.3046,-3.2285,-3.1444,-3.0801,-3.045,-3.0451,-3.047,-3.0723,-3.1307,-3.1393,-3.1664,-3.2313,-3.2931,-3.3654,-3.4424,-3.4482,-3.4796,-3.5438,-3.5513,-3.5412,-3.5239,-3.5182,-3.5182,-3.5182,-3.5182,-3.5182,-3.5182,-3.5182,-3.5182,-3.5182,-3.5182,-3.5182,-3.5182,-3.5182,-3.5182,-3.5193,-3.517,-3.5119,-3.5075,-3.4965,-3.4887,-3.4829,-3.4718,-3.4655,-3.4645,-3.4634,-3.4539,-3.4374,-3.4305,-3.4148,-3.3834,-3.3726,-3.3587,-3.3448,-3.3393,-3.3393,-3.3393,-3.3393,-3.3393,-3.3393,-3.3393,-3.3393,-3.3393,-3.3393,-3.3393,-3.3393,-3.3393,-3.3393,-5.0898,-5.0782,-4.9919,-4.8662,-4.7192,-4.6213,-4.5826,-4.5807,-4.5807,-4.5807,-4.5807,-4.5807,-4.5807,-4.5807,-4.5807,-4.5807,-4.5807,-4.5807,-4.5807,-4.5807,-4.5807,-4.5394,-4.4613,-4.3744,-4.2896,-4.2111,-4.1338,-4.102,-4.1083,-4.102,-4.1054,-4.1102,-4.1117,-4.0684,-3.9819,-3.9021,-3.8181,-3.7321,-3.6441,-3.6012,-3.6012,-3.6012,-3.5973,-3.5875,-3.5875,-3.5465,-3.4608,-3.451,-3.4042,-3.326,-3.3045,-3.3006,-3.3006,-3.3007,-3.3045,-3.3103,-3.3129,-3.32,-3.3209,-3.3252,-3.3702,-3.4389,-3.454,-3.4876,-3.5567,-3.5587,-3.5412,-3.5254,-3.519,-3.5182,-3.5182,-3.5182,-3.5182,-3.5182,-3.5182,-3.5182,-3.5182,-3.5182,-3.5182,-3.5182,-3.5182,-3.5182,-3.5182,-3.5174,-3.516,-3.511,-3.5066,-3.5011,-3.4917,-3.483,-3.4768,-3.4758,-3.4687,-3.4594,-3.4528,-3.4397,-3.4233,-3.4011,-3.3834,-3.3657,-3.3506,-3.3422,-3.3393,-3.3393,-3.3393,-3.3393,-3.3393,-3.3393,-3.3393,-3.3393,-3.3393,-3.3393,-3.3393,-3.3393,-3.3393,-5.0898,-5.0821,-5.0055,-4.8701,-4.7134,-4.6709,-4.6264,-4.5826,-4.5807,-4.5807,-4.5807,-4.5807,-4.5807,-4.5807,-4.5807,-4.5807,-4.5807,-4.5807,-4.5807,-4.5807,-4.5807,-4.5633,-4.5239,-4.4465,-4.3621,-4.2786,-4.1999,-4.139,-4.1042,-4.0978,-4.1032,-4.109,-4.1102,-4.0922,-4.0489,-3.9256,-3.8396,-3.8043,-3.6695,-3.6012,-3.6012,-3.6012,-3.6012,-3.6012,-3.6012,-3.5856,-3.5467,-3.4979,-3.453,-3.4159,-3.369,-3.3396,-3.3396,-3.3396,-3.3396,-3.3416,-3.389,-3.4166,-3.4145,-3.4559,-3.498,-3.5316,-3.5313,-3.5453,-3.5664,-3.5657,-3.554,-3.5357,-3.525,-3.5182,-3.5182,-3.5182,-3.5182,-3.5182,-3.5182,-3.5182,-3.5182,-3.5182,-3.5182,-3.5182,-3.5182,-3.5182,-3.5182,-3.5182,-3.5174,-3.5151,-3.5108,-3.5075,-3.5011,-3.4908,-3.4849,-3.4798,-3.4747,-3.4695,-3.4623,-3.4539,-3.4374,-3.4221,-3.4111,-3.3959,-3.3675,-3.3577,-3.3549,-3.3437,-3.3393,-3.3393,-3.3393,-3.3393,-3.3393,-3.3393,-3.3393,-3.3393,-3.3393,-3.3393,-3.3393,-5.0898,-5.0782,-5.0028,-4.8836,-4.7463,-4.7192,-4.6612,-4.5865,-4.5807,-4.5807,-4.5807,-4.5807,-4.5807,-4.5807,-4.5807,-4.5807,-4.5807,-4.5807,-4.5807,-4.5807,-4.5807,-4.5807,-4.5729,-4.4968,-4.4136,-4.3299,-4.2443,-4.165,-4.098,-4.0975,-4.1021,-4.1074,-4.1073,-4.1068,-4.0943,-3.9631,-3.8944,-3.8786,-3.7243,-3.6363,-3.6344,-3.6109,-3.6012,-3.6012,-3.6012,-3.6012,-3.5992,-3.5387,-3.5057,-3.5037,-3.4431,-3.4099,-3.4118,-3.4099,-3.4118,-3.4157,-3.4695,-3.5055,-3.5049,-3.558,-3.5889,-3.5898,-3.5889,-3.5853,-3.578,-3.5733,-3.5635,-3.5502,-3.533,-3.525,-3.5209,-3.5182,-3.5182,-3.5182,-3.5182,-3.5182,-3.5182,-3.5182,-3.5182,-3.5182,-3.5182,-3.5182,-3.5182,-3.5182,-3.5182,-3.5174,-3.517,-3.5127,-3.5119,-3.5029,-3.4946,-3.4888,-3.4859,-3.4759,-3.4645,-3.4602,-3.4506,-3.4381,-3.4269,-3.4148,-3.3847,-3.3766,-3.3684,-3.3549,-3.3466,-3.3411,-3.3393,-3.3393,-3.3393,-3.3393,-3.3393,-3.3393,-3.3393,-3.3393,-3.3393,-5.0898,-5.0782,-5.0055,-4.9204,-4.8295,-4.7482,-4.6651,-4.5904,-4.5826,-4.5807,-4.5807,-4.5807,-4.5807,-4.5807,-4.5807,-4.5807,-4.5807,-4.5807,-4.5807,-4.5807,-4.5807,-4.5807,-4.5761,-4.4987,-4.4156,-4.3285,-4.2544,-4.1681,-4.0951,-4.096,-4.0994,-4.1,-4.1005,-4.1034,-4.0969,-4.0202,-3.9807,-3.947,-3.8063,-3.7243,-3.7145,-3.6441,-3.607,-3.609,-3.6012,-3.6012,-3.6012,-3.5973,-3.5914,-3.5914,-3.5797,-3.5797,-3.5836,-3.5817,-3.5778,-3.5817,-3.5874,-3.5887,-3.5814,-3.5869,-3.5895,-3.5889,-3.5885,-3.5882,-3.5861,-3.5842,-3.5829,-3.5711,-3.5669,-3.5534,-3.5414,-3.542,-3.5354,-3.5373,-3.5297,-3.5316,-3.5278,-3.5373,-3.5201,-3.5305,-3.542,-3.5496,-3.5335,-3.5182,-3.5324,-3.5335,-3.5259,-3.525,-3.5196,-3.5136,-3.516,-3.5048,-3.4964,-3.484,-3.4666,-3.4634,-3.4528,-3.4416,-3.4358,-3.4257,-3.4036,-3.3855,-3.3748,-3.3657,-3.3534,-3.3466,-3.3408,-3.3393,-3.3393,-3.3393,-3.3393,-3.3393,-3.3393,-3.3393,-3.3393,-5.0901,-5.0879,-5.0589,-4.9997,-4.9165,-4.8314,-4.7444,-4.6593,-4.6039,-4.5807,-4.5807,-4.5807,-4.5807,-4.5807,-4.5807,-4.5807,-4.5807,-4.5807,-4.5807,-4.5807,-4.5807,-4.5807,-4.5768,-4.5478,-4.462,-4.3401,-4.2976,-4.2148,-4.0995,-4.0943,-4.0963,-4.0991,-4.0989,-4.1029,-4.0898,-4.0287,-3.9867,-3.9702,-3.8668,-3.8121,-3.8063,-3.7282,-3.6832,-3.6792,-3.6285,-3.6012,-3.6012,-3.6012,-3.6012,-3.6012,-3.6012,-3.6012,-3.6012,-3.6012,-3.6012,-3.6012,-3.6012,-3.5989,-3.5985,-3.5983,-3.5956,-3.5897,-3.5887,-3.5903,-3.5986,-3.6312,-3.6574,-3.6545,-3.6941,-3.706,-3.6846,-3.6405,-3.6241,-3.668,-3.6795,-3.6719,-3.668,-3.6366,-3.6214,-3.6642,-3.6795,-3.6814,-3.67,-3.6795,-3.6585,-3.6194,-3.647,-3.626,-3.5545,-3.5615,-3.5821,-3.5254,-3.5066,-3.4974,-3.4831,-3.4759,-3.4676,-3.458,-3.4484,-3.4404,-3.4221,-3.4136,-3.4049,-3.3881,-3.3726,-3.3591,-3.3577,-3.3466,-3.3452,-3.3393,-3.3393,-3.3393,-3.3393,-3.3393,-3.3393,-5.0897,-5.0901,-5.0917,-5.0434,-4.9649,-4.8778,-4.7889,-4.7038,-4.6194,-4.5807,-4.5807,-4.5807,-4.5807,-4.5807,-4.5807,-4.5807,-4.5807,-4.5807,-4.5807,-4.5807,-4.5807,-4.5807,-4.5807,-4.5807,-4.5091,-4.3788,-4.3092,-4.2156,-4.1003,-4.0858,-4.0912,-4.0956,-4.0978,-4.0975,-4.0879,-4.0467,-4.0214,-4.0033,-3.9404,-3.8989,-3.8885,-3.816,-3.7731,-3.7594,-3.6871,-3.6285,-3.6031,-3.6012,-3.6012,-3.6012,-3.6012,-3.6012,-3.6012,-3.6012,-3.6012,-3.6012,-3.6012,-3.6012,-3.6012,-3.6012,-3.5968,-3.5917,-3.5929,-3.599,-3.6306,-3.6816,-3.7144,-3.7453,-3.7818,-3.8176,-3.8257,-3.779,-3.7477,-3.7691,-3.7693,-3.7693,-3.7655,-3.7196,-3.7158,-3.7464,-3.7578,-3.7636,-3.7693,-3.7655,-3.7406,-3.6929,-3.7387,-3.712,-3.6394,-3.6424,-3.6578,-3.5755,-3.5632,-3.5397,-3.5125,-3.4955,-3.4848,-3.4737,-3.4655,-3.455,-3.4461,-3.4374,-3.4281,-3.4124,-3.3959,-3.3834,-3.3684,-3.3577,-3.3491,-3.3419,-3.3393,-3.3393,-3.3393,-3.3393,-3.3393,-5.0899,-5.0908,-5.0901,-5.0473,-4.9738,-4.8817,-4.7908,-4.7134,-4.6187,-4.5807,-4.5807,-4.5807,-4.5807,-4.5807,-4.5807,-4.5807,-4.5807,-4.5807,-4.5807,-4.5807,-4.5807,-4.5807,-4.5807,-4.5807,-4.5355,-4.4388,-4.2841,-4.1667,-4.0964,-4.086,-4.0834,-4.0874,-4.0906,-4.0914,-4.09,-4.0875,-4.0939,-4.074,-4.0137,-3.982,-3.9707,-3.9025,-3.8594,-3.8514,-3.7771,-3.6949,-3.6187,-3.607,-3.6012,-3.6012,-3.6012,-3.6012,-3.6012,-3.6012,-3.6012,-3.6012,-3.6012,-3.6012,-3.6012,-3.607,-3.6168,-3.6163,-3.6036,-3.6495,-3.7089,-3.7364,-3.7725,-3.8268,-3.8484,-3.8714,-3.9325,-3.9241,-3.8799,-3.7976,-3.8016,-3.8018,-3.7922,-3.7789,-3.7712,-3.7827,-3.7922,-3.7789,-3.7769,-3.7999,-3.798,-3.7827,-3.7903,-3.7865,-3.7445,-3.7521,-3.7321,-3.6748,-3.6464,-3.6249,-3.568,-3.5141,-3.5031,-3.4925,-3.4819,-3.4739,-3.4626,-3.455,-3.4473,-3.4328,-3.4148,-3.3998,-3.3815,-3.3712,-3.3619,-3.3549,-3.3477,-3.3404,-3.3393,-3.3393,-3.3393,-5.0784,-5.0846,-5.088,-5.0761,-5.0344,-4.8995,-4.8217,-4.7831,-4.6457,-4.5826,-4.5807,-4.5807,-4.5807,-4.5807,-4.5807,-4.5807,-4.5807,-4.5807,-4.5807,-4.5807,-4.5807,-4.5807,-4.5807,-4.5807,-4.5394,-4.4446,-4.2841,-4.1893,-4.1583,-4.1081,-4.0802,-4.0843,-4.0893,-4.0876,-4.0848,-4.0889,-4.0953,-4.098,-4.077,-4.064,-4.0605,-3.9861,-3.9448,-3.933,-3.8618,-3.8024,-3.777,-3.6636,-3.6051,-3.6051,-3.6012,-3.6012,-3.6012,-3.6012,-3.6012,-3.6012,-3.6012,-3.6012,-3.609,-3.6578,-3.689,-3.7007,-3.7395,-3.7815,-3.8135,-3.8612,-3.9026,-3.9384,-3.9738,-4.017,-4.0303,-4.0256,-3.9923,-3.9588,-3.9524,-3.9393,-3.9355,-3.9412,-3.9174,-3.8782,-3.9107,-3.9451,-3.9461,-3.9451,-3.9126,-3.8725,-3.9011,-3.9088,-3.8132,-3.8323,-3.8228,-3.7521,-3.7387,-3.7169,-3.6656,-3.6145,-3.5873,-3.5458,-3.5154,-3.4878,-3.478,-3.4699,-3.4626,-3.4528,-3.434,-3.4173,-3.3998,-3.3868,-3.3807,-3.3684,-3.3615,-3.3534,-3.3419,-3.3393,-3.3393,-5.072,-5.0775,-5.0838,-5.0855,-5.067,-4.9069,-4.8369,-4.8106,-4.6554,-4.5826,-4.5807,-4.5807,-4.5807,-4.5807,-4.5807,-4.5807,-4.5807,-4.5807,-4.5807,-4.5807,-4.5807,-4.5807,-4.5807,-4.5807,-4.5394,-4.4562,-4.3492,-4.2802,-4.2434,-4.168,-4.1261,-4.126,-4.099,-4.0858,-4.0806,-4.0835,-4.0899,-4.0925,-4.0947,-4.1026,-4.0946,-4.0564,-4.0293,-4.0174,-3.9485,-3.9087,-3.8944,-3.7692,-3.6968,-3.6968,-3.6949,-3.6832,-3.6539,-3.65,-3.648,-3.648,-3.65,-3.6617,-3.6949,-3.7516,-3.777,-3.7887,-3.8298,-3.8723,-3.8986,-3.9568,-3.985,-4.0307,-4.0636,-4.0913,-4.0849,-4.0738,-4.0636,-4.0552,-4.0351,-4.0336,-4.0329,-4.032,-4.0091,-3.9699,-3.9928,-4.0244,-4.032,-4.0282,-4.011,-3.9671,-3.9919,-4.0119,-3.9049,-3.9164,-3.882,-3.8476,-3.8228,-3.798,-3.7674,-3.7236,-3.6799,-3.6156,-3.5513,-3.5154,-3.487,-3.4831,-3.4771,-3.4718,-3.4561,-3.4404,-3.4221,-3.4136,-3.4061,-3.3939,-3.3793,-3.3643,-3.3534,-3.3422,-3.3408,-5.0692,-5.072,-5.0775,-5.0793,-5.057,-4.901,-4.8311,-4.8048,-4.652,-4.5819,-4.5819,-4.5807,-4.5807,-4.5807,-4.5807,-4.5807,-4.5807,-4.5807,-4.5807,-4.5807,-4.5807,-4.5807,-4.5807,-4.5807,-4.5432,-4.4833,-4.4523,-4.4078,-4.3356,-4.2512,-4.2028,-4.1861,-4.1287,-4.0835,-4.0833,-4.0804,-4.082,-4.0839,-4.0942,-4.0991,-4.1023,-4.1042,-4.1032,-4.0996,-4.0292,-3.9877,-3.975,-3.9139,-3.865,-3.8572,-3.8376,-3.8024,-3.7516,-3.7379,-3.736,-3.7379,-3.7379,-3.7731,-3.8337,-3.8572,-3.865,-3.8669,-3.8864,-3.904,-3.9798,-3.999,-4.0278,-4.0864,-4.1047,-4.1045,-4.0968,-4.0878,-4.0809,-4.0782,-4.0542,-4.0386,-4.0329,-4.032,-4.0225,-4.0244,-4.0301,-4.032,-4.032,-4.032,-4.0282,-4.0244,-4.0244,-4.0129,-4.0091,-3.99,-3.9785,-3.9489,-3.9107,-3.8935,-3.8648,-3.8113,-3.7637,-3.6913,-3.6222,-3.572,-3.5134,-3.4974,-3.4908,-3.483,-3.4769,-3.4623,-3.4495,-3.4439,-3.4293,-3.4148,-3.3972,-3.3775,-3.3629,-3.3534,-3.3452,-5.0693,-5.0693,-5.072,-5.072,-5.0497,-4.8979,-4.8309,-4.8086,-4.6515,-4.5803,-4.581,-4.5812,-4.58,-4.5807,-4.5807,-4.5807,-4.5807,-4.5807,-4.5807,-4.5807,-4.5807,-4.5807,-4.5807,-4.5807,-4.5691,-4.5394,-4.491,-4.4478,-4.4207,-4.3382,-4.2667,-4.2009,-4.1796,-4.1351,-4.0913,-4.0815,-4.0798,-4.08,-4.0882,-4.0941,-4.101,-4.1064,-4.1108,-4.1077,-4.0859,-4.0741,-4.0755,-4.057,-3.9782,-3.8689,-3.8611,-3.8533,-3.8298,-3.8238,-3.824,-3.8259,-3.8259,-3.8337,-3.8669,-3.9196,-3.9468,-3.9546,-3.9958,-4.0504,-4.0699,-4.0756,-4.0891,-4.1099,-4.1107,-4.1108,-4.1067,-4.0995,-4.0912,-4.0781,-4.0593,-4.0372,-4.0318,-4.032,-4.032,-4.032,-4.032,-4.032,-4.032,-4.032,-4.032,-4.032,-4.032,-4.032,-4.032,-4.0301,-4.0072,-4.0129,-3.9919,-3.9843,-3.9594,-3.903,-3.841,-3.7665,-3.7037,-3.6493,-3.5774,-3.5139,-3.502,-3.4917,-3.4898,-3.4771,-3.4751,-3.472,-3.4553,-3.4374,-3.4233,-3.4074,-3.382,-3.3661,-3.3567,-5.0683,-5.0693,-5.0702,-5.0692,-5.0481,-4.8955,-4.824,-4.7921,-4.6515,-4.5773,-4.5788,-4.581,-4.5812,-4.5807,-4.5807,-4.5807,-4.5807,-4.5807,-4.5807,-4.5807,-4.5807,-4.5807,-4.5807,-4.5807,-4.5807,-4.5768,-4.5316,-4.5142,-4.4968,-4.4253,-4.3576,-4.3073,-4.2357,-4.1757,-4.1351,-4.0932,-4.0809,-4.0818,-4.0848,-4.0898,-4.0971,-4.102,-4.1089,-4.1092,-4.1103,-4.1112,-4.1092,-4.11,-4.0602,-3.986,-3.9645,-3.9509,-3.9138,-3.9117,-3.9099,-3.9118,-3.9118,-3.9235,-3.9665,-4.0132,-4.0327,-4.0405,-4.0894,-4.1051,-4.109,-4.1109,-4.1109,-4.1106,-4.1117,-4.1107,-4.1089,-4.1033,-4.0937,-4.0804,-4.0662,-4.0503,-4.036,-4.0344,-4.0327,-4.031,-4.032,-4.032,-4.032,-4.032,-4.032,-4.032,-4.032,-4.032,-4.032,-4.032,-4.032,-4.032,-4.032,-4.0148,-4.0072,-3.9652,-3.9174,-3.8457,-3.7349,-3.6891,-3.6339,-3.5475,-3.5138,-3.5029,-3.4992,-3.4964,-3.4927,-3.4879,-3.4801,-3.4628,-3.4498,-3.434,-3.4111,-3.3873,-3.3753,-5.0683,-5.0683,-5.0683,-5.0635,-5.0289,-4.8883,-4.8111,-4.7754,-4.6389,-4.5735,-4.5785,-4.58,-4.581,-4.5819,-4.58,-4.5807,-4.5807,-4.5807,-4.5807,-4.5807,-4.5807,-4.5807,-4.5807,-4.5807,-4.5807,-4.5787,-4.5807,-4.5749,-4.5529,-4.4968,-4.4652,-4.4149,-4.2976,-4.2318,-4.2028,-4.1416,-4.099,-4.0983,-4.0868,-4.0839,-4.0883,-4.0964,-4.1042,-4.1089,-4.1115,-4.1102,-4.1113,-4.1104,-4.1016,-4.1073,-4.1111,-4.06,-4.0015,-3.9937,-3.9937,-3.9937,-3.9976,-4.0229,-4.0836,-4.0914,-4.1031,-4.1031,-4.1031,-4.1109,-4.1109,-4.1109,-4.1109,-4.1109,-4.1109,-4.1117,-4.1076,-4.105,-4.0967,-4.0867,-4.0811,-4.069,-4.0514,-4.0411,-4.0375,-4.0309,-4.032,-4.032,-4.032,-4.032,-4.032,-4.032,-4.032,-4.032,-4.032,-4.032,-4.032,-4.032,-4.032,-4.032,-4.0282,-4.0225,-3.9785,-3.9174,-3.7731,-3.6948,-3.6719,-3.6035,-3.5427,-3.5126,-3.51,-3.5046,-3.5001,-3.4964,-3.4927,-3.487,-3.4711,-3.4596,-3.4454,-3.4221,-3.4049,-5.0683,-5.0683,-5.0683,-5.0308,-4.9567,-4.8557,-4.7768,-4.7123,-4.6155,-4.5698,-4.5722,-4.5758,-4.5807,-4.5803,-4.5805,-4.5807,-4.5807,-4.5807,-4.5807,-4.5807,-4.5807,-4.5807,-4.5807,-4.5807,-4.5807,-4.5807,-4.5807,-4.5807,-4.571,-4.5548,-4.52,-4.4574,-4.4168,-4.3692,-4.2957,-4.2202,-4.1738,-4.1635,-4.118,-4.0942,-4.0941,-4.1008,-4.1062,-4.1039,-4.1089,-4.1109,-4.111,-4.1113,-4.1109,-4.1106,-4.1099,-4.0974,-4.0777,-4.0737,-4.0717,-4.0717,-4.0756,-4.0894,-4.107,-4.1109,-4.1109,-4.1109,-4.1109,-4.1109,-4.1109,-4.1109,-4.1109,-4.1109,-4.1108,-4.1101,-4.11,-4.1089,-4.1025,-4.0974,-4.0956,-4.091,-4.078,-4.0563,-4.0419,-4.0383,-4.0345,-4.032,-4.031,-4.031,-4.031,-4.032,-4.032,-4.032,-4.032,-4.032,-4.032,-4.032,-4.032,-4.032,-4.032,-4.0263,-3.9957,-3.9518,-3.8276,-3.7254,-3.7005,-3.65,-3.5872,-3.5444,-3.5185,-3.5124,-3.5072,-3.5073,-3.5038,-3.4992,-3.4917,-3.4782,-3.4649,-3.4476,-3.4305,-5.0683,-5.0683,-5.0683,-5.0202,-4.9336,-4.8471,-4.7644,-4.6836,-4.6016,-4.5676,-4.5709,-4.573,-4.577,-4.5807,-4.581,-4.5805,-4.58,-4.5807,-4.5807,-4.5807,-4.5807,-4.5807,-4.5807,-4.5807,-4.5807,-4.5807,-4.5807,-4.5807,-4.5807,-4.5787,-4.5575,-4.5142,-4.4833,-4.433,-4.3859,-4.3034,-4.2647,-4.257,-4.2215,-4.1819,-4.1496,-4.148,-4.1274,-4.1081,-4.1078,-4.1103,-4.1115,-4.111,-4.1113,-4.1111,-4.1106,-4.1099,-4.1111,-4.1109,-4.1109,-4.1109,-4.1109,-4.1109,-4.1109,-4.1109,-4.1109,-4.1109,-4.1109,-4.1109,-4.1109,-4.1109,-4.1109,-4.1109,-4.1108,-4.1103,-4.1113,-4.1111,-4.1081,-4.1061,-4.1031,-4.1036,-4.0937,-4.0743,-4.0544,-4.0499,-4.0433,-4.0368,-4.0344,-4.0345,-4.032,-4.032,-4.031,-4.031,-4.032,-4.032,-4.032,-4.032,-4.032,-4.032,-4.032,-4.0205,-3.9995,-3.9537,-3.8792,-3.798,-3.7521,-3.691,-3.6252,-3.5812,-3.5373,-3.5201,-3.5141,-3.5143,-3.5145,-3.51,-3.5028,-3.4945,-3.485,-3.471,-3.4531,-5.0683,-5.0693,-5.0558,-4.999,-4.9144,-4.8259,-4.7413,-4.6605,-4.5932,-4.564,-4.5693,-4.5673,-4.573,-4.5777,-4.5807,-4.581,-4.5819,-4.5807,-4.5807,-4.5807,-4.5807,-4.5807,-4.5807,-4.5807,-4.5807,-4.5807,-4.5807,-4.5807,-4.5807,-4.5807,-4.5768,-4.5652,-4.5181,-4.4871,-4.4601,-4.3982,-4.3498,-4.346,-4.3176,-4.2847,-4.2387,-4.2299,-4.2034,-4.1735,-4.1675,-4.1562,-4.148,-4.1385,-4.1284,-4.1133,-4.1112,-4.1108,-4.1099,-4.1109,-4.1109,-4.1109,-4.1109,-4.1109,-4.1109,-4.1109,-4.1109,-4.1109,-4.1109,-4.1109,-4.1109,-4.1109,-4.1109,-4.1109,-4.1108,-4.1108,-4.1109,-4.1106,-4.1099,-4.1105,-4.11,-4.1069,-4.1003,-4.0894,-4.0786,-4.0635,-4.0542,-4.0466,-4.0441,-4.0438,-4.0372,-4.0328,-4.0319,-4.032,-4.032,-4.031,-4.031,-4.032,-4.032,-4.032,-4.032,-4.0301,-4.0072,-3.9823,-3.9231,-3.8763,-3.8209,-3.7808,-3.7177,-3.6042,-3.5564,-3.545,-3.5278,-3.5185,-3.5176,-3.5185,-3.5151,-3.5046,-3.4992,-3.4936,-3.474,-5.0683,-5.0625,-4.9913,-4.9125,-4.8279,-4.7451,-4.6663,-4.5893,-4.5671,-4.5594,-4.5612,-4.5684,-4.5709,-4.5722,-4.5758,-4.5803,-4.5812,-4.58,-4.5807,-4.5807,-4.5807,-4.5807,-4.5807,-4.5807,-4.5807,-4.5807,-4.5807,-4.5807,-4.5807,-4.5807,-4.5807,-4.5761,-4.5626,-4.5529,-4.5278,-4.4833,-4.4369,-4.4291,-4.3866,-4.3434,-4.3195,-4.3051,-4.3017,-4.2799,-4.2805,-4.2597,-4.2198,-4.2115,-4.1864,-4.1208,-4.1112,-4.1171,-4.1303,-4.1294,-4.1249,-4.1109,-4.1109,-4.1109,-4.1109,-4.1148,-4.1129,-4.1109,-4.1265,-4.1246,-4.1226,-4.1226,-4.1422,-4.1343,-4.1304,-4.1207,-4.1109,-4.1246,-4.1127,-4.1124,-4.1101,-4.1081,-4.1092,-4.1044,-4.0963,-4.0815,-4.0684,-4.0571,-4.0561,-4.0534,-4.0476,-4.0427,-4.0411,-4.0362,-4.0337,-4.0319,-4.032,-4.031,-4.032,-4.032,-4.032,-4.032,-4.0225,-4.0205,-3.9823,-3.9537,-3.9107,-3.8897,-3.8181,-3.7092,-3.6233,-3.5908,-3.5679,-3.5373,-3.5182,-3.5193,-3.5176,-3.5151,-3.5082,-3.5001,-3.4888,-5.0683,-5.0616,-4.976,-4.8913,-4.8048,-4.724,-4.6394,-4.5671,-4.5594,-4.5594,-4.5614,-4.5631,-4.5684,-4.5709,-4.5742,-4.5758,-4.5791,-4.58,-4.58,-4.5807,-4.5807,-4.5807,-4.5807,-4.5807,-4.5807,-4.5807,-4.5807,-4.5807,-4.5807,-4.5807,-4.5807,-4.5807,-4.5807,-4.5807,-4.5749,-4.5439,-4.522,-4.5084,-4.4775,-4.433,-4.395,-4.3692,-4.3452,-4.347,-4.3529,-4.3296,-4.3066,-4.2971,-4.2829,-4.2518,-4.2423,-4.2419,-4.2402,-4.2319,-4.2019,-4.1366,-4.1168,-4.1148,-4.1246,-4.1441,-4.1791,-4.1849,-4.2103,-4.2417,-4.2456,-4.2515,-4.2339,-4.2398,-4.2417,-4.224,-4.1869,-4.1791,-4.1557,-4.1187,-4.1129,-4.1148,-4.1108,-4.1099,-4.1042,-4.0953,-4.082,-4.0713,-4.0705,-4.0662,-4.0574,-4.053,-4.0508,-4.0441,-4.0379,-4.0362,-4.0372,-4.0319,-4.032,-4.032,-4.032,-4.032,-4.032,-4.032,-4.0263,-3.9995,-3.9862,-3.9575,-3.9049,-3.8209,-3.7455,-3.6615,-3.6023,-3.5698,-3.545,-3.5201,-3.5212,-3.5196,-3.5153,-3.5073,-3.504,-5.0683,-5.0616,-4.9548,-4.874,-4.8009,-4.7048,-4.624,-4.5691,-4.5594,-4.5594,-4.5594,-4.5594,-4.5631,-4.5665,-4.5709,-4.573,-4.5807,-4.5805,-4.5812,-4.5807,-4.5807,-4.5807,-4.5807,-4.5807,-4.5807,-4.5807,-4.5807,-4.5807,-4.5807,-4.5807,-4.5807,-4.5807,-4.5807,-4.5807,-4.5768,-4.5729,-4.5807,-4.5807,-4.5787,-4.5413,-4.4827,-4.426,-4.3891,-4.3903,-4.3957,-4.4,-4.3797,-4.381,-4.3673,-4.3507,-4.3472,-4.3531,-4.3631,-4.3691,-4.3043,-4.19,-4.1639,-4.1617,-4.1831,-4.222,-4.265,-4.2689,-4.3274,-4.3569,-4.3608,-4.3413,-4.3549,-4.3705,-4.3608,-4.3333,-4.2747,-4.2669,-4.224,-4.1654,-4.142,-4.1303,-4.1168,-4.1104,-4.1101,-4.1014,-4.0906,-4.0867,-4.0825,-4.0782,-4.0706,-4.0662,-4.0635,-4.0559,-4.0496,-4.0465,-4.0433,-4.0353,-4.0309,-4.031,-4.032,-4.032,-4.032,-4.032,-4.032,-4.0186,-4.0186,-4.0167,-3.9594,-3.903,-3.8228,-3.7379,-3.6729,-3.6118,-3.5859,-3.563,-3.5381,-3.5348,-3.5526,-3.5501,-3.5391,-5.0683,-5.0558,-4.8933,-4.8182,-4.7894,-4.6451,-4.5748,-4.5614,-4.5594,-4.5594,-4.5594,-4.5594,-4.5594,-4.5631,-4.5665,-4.573,-4.5785,-4.5815,-4.5798,-4.58,-4.5807,-4.5807,-4.5807,-4.5807,-4.5807,-4.5807,-4.5807,-4.5807,-4.5807,-4.5807,-4.5807,-4.5807,-4.5807,-4.5807,-4.5807,-4.5807,-4.5807,-4.5807,-4.5807,-4.5729,-4.5594,-4.5427,-4.5389,-4.5447,-4.5411,-4.5165,-4.4705,-4.4619,-4.4437,-4.3845,-4.3726,-4.3648,-4.3626,-4.367,-4.3652,-4.3453,-4.3387,-4.3391,-4.3276,-4.3411,-4.3548,-4.3567,-4.3821,-4.3744,-4.3979,-4.4018,-4.3998,-4.3705,-4.3803,-4.3803,-4.3645,-4.3549,-4.3079,-4.2552,-4.2123,-4.1752,-4.142,-4.1109,-4.1104,-4.1095,-4.1006,-4.099,-4.0953,-4.0902,-4.0839,-4.0804,-4.0751,-4.0681,-4.0621,-4.0559,-4.0523,-4.0433,-4.0342,-4.0336,-4.0319,-4.0329,-4.031,-4.031,-4.0301,-4.032,-4.032,-4.032,-4.0301,-3.969,-3.8877,-3.8304,-3.7865,-3.7254,-3.6528,-3.6146,-3.6031,-3.6037,-3.61,-3.5978,-3.5798,-5.0683,-5.0539,-4.8817,-4.8096,-4.7894,-4.6306,-4.5594,-4.5594,-4.5594,-4.5594,-4.5594,-4.5594,-4.5594,-4.5622,-4.5657,-4.5714,-4.5743,-4.5773,-4.581,-4.5819,-4.5807,-4.5807,-4.5807,-4.5807,-4.5807,-4.5807,-4.5807,-4.5807,-4.5807,-4.5807,-4.5807,-4.5807,-4.5807,-4.5807,-4.5807,-4.5807,-4.5807,-4.5807,-4.5807,-4.5807,-4.5807,-4.5807,-4.5821,-4.5835,-4.5893,-4.5689,-4.552,-4.5492,-4.5397,-4.504,-4.5056,-4.5092,-4.5091,-4.5138,-4.5151,-4.5193,-4.5171,-4.4714,-4.3902,-4.4213,-4.4367,-4.4582,-4.4816,-4.5246,-4.5168,-4.5109,-4.5109,-4.5187,-4.5187,-4.4953,-4.4543,-4.4445,-4.3918,-4.3391,-4.2864,-4.2396,-4.1888,-4.1304,-4.1106,-4.1099,-4.1111,-4.1064,-4.1029,-4.0988,-4.0943,-4.0907,-4.0858,-4.0804,-4.0713,-4.0615,-4.0581,-4.053,-4.0449,-4.0377,-4.0353,-4.0345,-4.031,-4.032,-4.031,-4.031,-4.032,-4.032,-4.032,-4.0072,-3.9317,-3.8935,-3.8858,-3.8113,-3.7139,-3.6871,-3.6738,-3.6771,-3.6793,-3.6439,-3.625,-5.0385,-5.0231,-4.874,-4.799,-4.7663,-4.622,-4.5594,-4.5594,-4.5594,-4.5594,-4.5594,-4.5594,-4.5594,-4.5594,-4.5648,-4.5682,-4.5711,-4.5758,-4.5795,-4.5798,-4.58,-4.5807,-4.5807,-4.5807,-4.5807,-4.5807,-4.5807,-4.5807,-4.5807,-4.5807,-4.5807,-4.5807,-4.5807,-4.5807,-4.5807,-4.5807,-4.5807,-4.5807,-4.5807,-4.5807,-4.5807,-4.5807,-4.5807,-4.5821,-4.5854,-4.5893,-4.5923,-4.5947,-4.5974,-4.6009,-4.5971,-4.5933,-4.5989,-4.5935,-4.5975,-4.6013,-4.6015,-4.564,-4.5026,-4.5018,-4.5267,-4.5519,-4.5773,-4.6046,-4.6145,-4.6302,-4.6282,-4.6066,-4.6106,-4.5812,-4.5539,-4.5324,-4.4855,-4.4211,-4.3587,-4.3118,-4.265,-4.2045,-4.1596,-4.1573,-4.147,-4.1113,-4.1069,-4.1055,-4.1025,-4.0988,-4.0948,-4.0913,-4.0821,-4.0713,-4.0675,-4.0648,-4.0564,-4.0481,-4.0449,-4.0411,-4.0381,-4.0327,-4.0346,-4.031,-4.031,-4.031,-4.032,-3.9957,-3.9623,-3.9642,-3.9584,-3.8648,-3.7827,-3.7999,-3.8056,-3.7674,-3.7455,-3.7092,-3.6998,-4.949,-4.9413,-4.8471,-4.7673,-4.6962,-4.599,-4.5594,-4.5594,-4.5594,-4.5594,-4.5594,-4.5594,-4.5594,-4.5594,-4.5622,-4.5648,-4.569,-4.5711,-4.575,-4.5788,-4.5805,-4.5812,-4.58,-4.58,-4.5807,-4.5807,-4.5807,-4.5807,-4.5807,-4.5807,-4.5807,-4.5807,-4.5807,-4.5807,-4.5807,-4.5807,-4.5807,-4.5807,-4.5807,-4.5807,-4.5807,-4.5807,-4.5807,-4.5807,-4.5814,-4.5841,-4.5886,-4.5935,-4.598,-4.6075,-4.6122,-4.6142,-4.6167,-4.6201,-4.623,-4.623,-4.6266,-4.6035,-4.5838,-4.5825,-4.6087,-4.6184,-4.6243,-4.6302,-4.6302,-4.6302,-4.6302,-4.6302,-4.6302,-4.6262,-4.6144,-4.6105,-4.5578,-4.5109,-4.4465,-4.4055,-4.3489,-4.2786,-4.2376,-4.2162,-4.1983,-4.1823,-4.1741,-4.1854,-4.1242,-4.1146,-4.1,-4.095,-4.0893,-4.0812,-4.0773,-4.0732,-4.0662,-4.0614,-4.06,-4.0549,-4.0492,-4.0444,-4.0427,-4.037,-4.0318,-4.0319,-4.0337,-4.0244,-4.0014,-4.0177,-4.0157,-3.924,-3.8801,-3.9317,-3.9279,-3.8495,-3.8266,-3.8171,-3.8219,-4.8798,-4.7836,-4.7509,-4.7182,-4.6827,-4.597,-4.5594,-4.5594,-4.5594,-4.5594,-4.5594,-4.5594,-4.5594,-4.5594,-4.5594,-4.564,-4.5682,-4.5698,-4.573,-4.575,-4.5788,-4.5803,-4.5817,-4.5812,-4.5807,-4.5807,-4.5807,-4.5807,-4.5807,-4.5807,-4.5807,-4.5807,-4.5807,-4.5807,-4.5807,-4.5807,-4.5807,-4.5807,-4.5807,-4.5807,-4.5807,-4.5807,-4.5807,-4.5807,-4.5807,-4.5814,-4.5828,-4.5893,-4.5935,-4.5986,-4.6061,-4.6098,-4.6146,-4.619,-4.6201,-4.6201,-4.6252,-4.6243,-4.625,-4.6283,-4.6302,-4.6302,-4.6282,-4.6302,-4.6302,-4.6302,-4.6302,-4.6302,-4.6302,-4.6302,-4.6282,-4.6282,-4.6066,-4.5753,-4.5363,-4.4914,-4.4387,-4.3684,-4.3255,-4.3099,-4.3021,-4.2941,-4.2861,-4.2818,-4.202,-4.1315,-4.1133,-4.0988,-4.0939,-4.0907,-4.0873,-4.0837,-4.0756,-4.0719,-4.0707,-4.0662,-4.06,-4.0552,-4.0523,-4.0465,-4.0402,-4.0377,-4.0368,-4.0336,-4.031,-4.0301,-4.0109,-3.9699,-3.9632,-3.9881,-3.9518,-3.8839,-3.8839,-3.9088,-3.9164,-4.7971,-4.6894,-4.6624,-4.6509,-4.6432,-4.5836,-4.5594,-4.5594,-4.5594,-4.5594,-4.5594,-4.5594,-4.5594,-4.5594,-4.5594,-4.5603,-4.5657,-4.5693,-4.5679,-4.5719,-4.5758,-4.58,-4.5803,-4.5798,-4.5807,-4.5807,-4.5807,-4.5807,-4.5807,-4.5807,-4.5807,-4.5807,-4.5807,-4.5807,-4.5807,-4.5807,-4.5807,-4.5807,-4.5807,-4.5807,-4.5807,-4.5807,-4.5807,-4.5807,-4.5807,-4.5807,-4.5801,-4.5835,-4.5886,-4.5935,-4.5986,-4.6042,-4.6098,-4.615,-4.6167,-4.6198,-4.6204,-4.6199,-4.622,-4.6269,-4.629,-4.6303,-4.6302,-4.6302,-4.6302,-4.6302,-4.6302,-4.6302,-4.6302,-4.6302,-4.6302,-4.6302,-4.6302,-4.5987,-4.5851,-4.546,-4.5187,-4.466,-4.4328,-4.4055,-4.386,-4.351,-4.345,-4.329,-4.2752,-4.1878,-4.127,-4.1094,-4.0968,-4.0941,-4.0935,-4.0903,-4.0863,-4.0837,-4.0815,-4.0767,-4.0738,-4.0675,-4.0641,-4.0574,-4.0515,-4.0485,-4.0414,-4.0377,-4.0335,-4.0318,-4.0176,-3.9947,-4.0034,-4.0244,-3.9785,-3.9327,-3.9489,-3.9699,-3.9718,-4.6962,-4.6788,-4.6009,-4.5671,-4.5729,-4.5614,-4.5594,-4.5594,-4.5594,-4.5594,-4.5594,-4.5594,-4.5594,-4.5594,-4.5594,-4.5603,-4.5631,-4.5676,-4.5682,-4.5698,-4.5727,-4.5792,-4.5795,-4.5791,-4.5812,-4.58,-4.5807,-4.5807,-4.5807,-4.5807,-4.5807,-4.5807,-4.5807,-4.5807,-4.5807,-4.5807,-4.5807,-4.5807,-4.5807,-4.5807,-4.5807,-4.5807,-4.5807,-4.5807,-4.5807,-4.5807,-4.5814,-4.5814,-4.5848,-4.5893,-4.5923,-4.5986,-4.6066,-4.6089,-4.6123,-4.618,-4.6181,-4.6182,-4.6214,-4.6268,-4.6286,-4.629,-4.6306,-4.6303,-4.6302,-4.6302,-4.6305,-4.6288,-4.6303,-4.6302,-4.6302,-4.6302,-4.6302,-4.6243,-4.6085,-4.5968,-4.5695,-4.5539,-4.5148,-4.4972,-4.4309,-4.3764,-4.3764,-4.3663,-4.3304,-4.259,-4.1664,-4.1273,-4.1247,-4.1201,-4.1253,-4.0956,-4.093,-4.0927,-4.0908,-4.0893,-4.0849,-4.0809,-4.0757,-4.07,-4.0636,-4.0614,-4.0523,-4.0422,-4.0408,-4.0411,-4.0363,-4.0272,-4.031,-4.032,-4.032,-4.0091,-4.0225,-4.0205,-4.011,-4.6547,-4.6028,-4.5729,-4.5594,-4.5594,-4.5594,-4.5594,-4.5594,-4.5594,-4.5594,-4.5594,-4.5594,-4.5594,-4.5594,-4.5594,-4.5594,-4.5594,-4.5622,-4.564,-4.5648,-4.5706,-4.5719,-4.5731,-4.5769,-4.5798,-4.5819,-4.5807,-4.5807,-4.5807,-4.5807,-4.5807,-4.5807,-4.5807,-4.5807,-4.5807,-4.5807,-4.5807,-4.5807,-4.5807,-4.5807,-4.5807,-4.5807,-4.5807,-4.5807,-4.5807,-4.5807,-4.5807,-4.5807,-4.5821,-4.5854,-4.5854,-4.5935,-4.5986,-4.6002,-4.6071,-4.6111,-4.6111,-4.6161,-4.6192,-4.6233,-4.6266,-4.6287,-4.6294,-4.6294,-4.63,-4.6288,-4.6291,-4.6295,-4.6291,-4.6287,-4.6302,-4.6302,-4.6302,-4.6302,-4.6204,-4.6223,-4.6066,-4.6027,-4.5851,-4.5851,-4.5462,-4.5267,-4.5189,-4.4701,-4.4264,-4.4025,-4.3255,-4.239,-4.2156,-4.1896,-4.1795,-4.1217,-4.0964,-4.0984,-4.0971,-4.0943,-4.0906,-4.0878,-4.0848,-4.0807,-4.0767,-4.0719,-4.0655,-4.0552,-4.0523,-4.0492,-4.0411,-4.0345,-4.032,-4.032,-4.032,-4.032,-4.0282,-4.0282,-4.0263,-4.6124,-4.5614,-4.5594,-4.5594,-4.5594,-4.5594,-4.5594,-4.5594,-4.5594,-4.5594,-4.5594,-4.5594,-4.5594,-4.5594,-4.5594,-4.5594,-4.5594,-4.5594,-4.5594,-4.5603,-4.5665,-4.5687,-4.5708,-4.5746,-4.5791,-4.5812,-4.5807,-4.5807,-4.5807,-4.5807,-4.5807,-4.5807,-4.5807,-4.5807,-4.5807,-4.5807,-4.5807,-4.5807,-4.5807,-4.5807,-4.5807,-4.5807,-4.5807,-4.5807,-4.5807,-4.5807,-4.5807,-4.5807,-4.5807,-4.5801,-4.5828,-4.5886,-4.5917,-4.5947,-4.6002,-4.6037,-4.6098,-4.6142,-4.6189,-4.6206,-4.6231,-4.6245,-4.6249,-4.6267,-4.6269,-4.6268,-4.6249,-4.6249,-4.6283,-4.6297,-4.6294,-4.6293,-4.6303,-4.6303,-4.6302,-4.6302,-4.6282,-4.6204,-4.6204,-4.6262,-4.6282,-4.6282,-4.6262,-4.5909,-4.5342,-4.5162,-4.4924,-4.4001,-4.3058,-4.2688,-4.2317,-4.1704,-4.114,-4.1045,-4.103,-4.0984,-4.0945,-4.0935,-4.0917,-4.0898,-4.0868,-4.0826,-4.075,-4.0694,-4.0668,-4.0607,-4.0446,-4.0358,-4.0353,-4.0328,-4.032,-4.032,-4.032,-4.032,-4.032,-4.5594,-4.5594,-4.5594,-4.5594,-4.5594,-4.5594,-4.5594,-4.5594,-4.5594,-4.5594,-4.5594,-4.5594,-4.5594,-4.5594,-4.5594,-4.5594,-4.5594,-4.5594,-4.5594,-4.5603,-4.5667,-4.5679,-4.5719,-4.5758,-4.5795,-4.5805,-4.5807,-4.5807,-4.5807,-4.5807,-4.5807,-4.5807,-4.5807,-4.5807,-4.5807,-4.5807,-4.5807,-4.5807,-4.5807,-4.5807,-4.5807,-4.5807,-4.5807,-4.5807,-4.5807,-4.5807,-4.5807,-4.5807,-4.5807,-4.5807,-4.5814,-4.5854,-4.588,-4.5905,-4.5927,-4.5991,-4.6066,-4.6123,-4.6176,-4.6178,-4.6216,-4.6216,-4.6213,-4.62,-4.6205,-4.6226,-4.6228,-4.6228,-4.625,-4.6289,-4.6288,-4.63,-4.6288,-4.6305,-4.6303,-4.6302,-4.6302,-4.6282,-4.6282,-4.6302,-4.6302,-4.6302,-4.6302,-4.6085,-4.5909,-4.587,-4.5594,-4.5203,-4.4278,-4.3374,-4.2912,-4.2205,-4.1663,-4.1175,-4.1085,-4.102,-4.0988,-4.096,-4.0956,-4.0943,-4.0921,-4.0888,-4.0842,-4.0804,-4.08,-4.072,-4.0566,-4.0469,-4.04,-4.0388,-4.0372,-4.032,-4.031,-4.031,-4.032,-4.5594,-4.5594,-4.5594,-4.5594,-4.5594,-4.5594,-4.5594,-4.5594,-4.5594,-4.5594,-4.5594,-4.5594,-4.5594,-4.5594,-4.5594,-4.5594,-4.5594,-4.5594,-4.5594,-4.5622,-4.5631,-4.5665,-4.5698,-4.5727,-4.5765,-4.5803,-4.5805,-4.58,-4.5807,-4.5807,-4.5807,-4.5807,-4.5807,-4.5807,-4.5807,-4.5807,-4.5807,-4.5807,-4.5807,-4.5807,-4.5807,-4.5807,-4.5807,-4.5807,-4.5807,-4.5807,-4.5807,-4.5807,-4.5807,-4.5807,-4.5807,-4.5827,-4.5827,-4.5841,-4.5848,-4.5941,-4.6037,-4.6126,-4.6142,-4.618,-4.6203,-4.6206,-4.6203,-4.6199,-4.6197,-4.6212,-4.6215,-4.6215,-4.622,-4.6247,-4.6269,-4.6269,-4.6285,-4.6282,-4.6297,-4.6288,-4.6287,-4.6303,-4.6302,-4.6302,-4.6302,-4.6302,-4.6302,-4.6262,-4.6124,-4.6243,-4.6163,-4.5851,-4.5244,-4.4263,-4.3478,-4.2752,-4.1944,-4.1359,-4.1134,-4.1028,-4.0993,-4.0984,-4.0988,-4.0976,-4.0939,-4.0912,-4.0898,-4.0868,-4.0832,-4.0787,-4.0726,-4.0621,-4.0508,-4.0477,-4.0476,-4.0388,-4.0309,-4.031,-4.031,-4.5594,-4.5594,-4.5594,-4.5594,-4.5594,-4.5594,-4.5594,-4.5594,-4.5594,-4.5594,-4.5594,-4.5594,-4.5594,-4.5594,-4.5594,-4.5594,-4.5594,-4.5594,-4.5594,-4.5594,-4.5594,-4.5648,-4.5662,-4.5695,-4.5735,-4.5773,-4.581,-4.5805,-4.58,-4.5807,-4.5807,-4.5807,-4.5807,-4.5807,-4.5807,-4.5807,-4.5807,-4.5807,-4.5807,-4.5807,-4.5807,-4.5807,-4.5807,-4.5807,-4.5807,-4.5807,-4.5807,-4.5807,-4.5807,-4.5807,-4.5807,-4.5807,-4.5807,-4.5807,-4.5841,-4.5911,-4.5964,-4.6056,-4.6093,-4.6138,-4.6162,-4.6173,-4.6196,-4.6196,-4.6198,-4.6197,-4.6214,-4.6214,-4.6199,-4.6215,-4.622,-4.6245,-4.6249,-4.6269,-4.6286,-4.6296,-4.6291,-4.6306,-4.6303,-4.6302,-4.6302,-4.6302,-4.6302,-4.6302,-4.6302,-4.6302,-4.6302,-4.6184,-4.5539,-4.46,-4.3895,-4.323,-4.229,-4.148,-4.1257,-4.1052,-4.1053,-4.1036,-4.1036,-4.1016,-4.0953,-4.0943,-4.093,-4.0903,-4.0868,-4.0826,-4.0787,-4.0739,-4.0655,-4.0621,-4.0552,-4.0473,-4.0396,-4.0309,-4.031,-4.5594,-4.5594,-4.5594,-4.5594,-4.5594,-4.5594,-4.5594,-4.5594,-4.5594,-4.5594,-4.5594,-4.5594,-4.5594,-4.5594,-4.5594,-4.5594,-4.5594,-4.5594,-4.5594,-4.5594,-4.5594,-4.562,-4.5657,-4.5682,-4.5722,-4.5777,-4.5815,-4.5817,-4.5819,-4.5807,-4.5807,-4.5807,-4.5807,-4.5807,-4.5807,-4.5807,-4.5807,-4.5807,-4.5807,-4.5807,-4.5807,-4.5807,-4.5807,-4.5807,-4.5807,-4.5807,-4.5807,-4.5807,-4.5807,-4.5807,-4.5807,-4.5807,-4.5807,-4.5807,-4.5848,-4.588,-4.5898,-4.5975,-4.6047,-4.608,-4.6126,-4.615,-4.6173,-4.6173,-4.6183,-4.6203,-4.6203,-4.6203,-4.6211,-4.6201,-4.6212,-4.621,-4.6219,-4.6245,-4.6249,-4.625,-4.6268,-4.6283,-4.6291,-4.6287,-4.6302,-4.6302,-4.6302,-4.6302,-4.6302,-4.6302,-4.6302,-4.6302,-4.5851,-4.4953,-4.427,-4.3665,-4.2939,-4.2018,-4.1257,-4.1094,-4.109,-4.11,-4.1091,-4.105,-4.099,-4.0984,-4.0984,-4.0939,-4.0912,-4.0868,-4.0832,-4.0798,-4.0756,-4.0713,-4.0642,-4.0586,-4.0481,-4.0413,-4.0318,-4.5594,-4.5594,-4.5594,-4.5594,-4.5594,-4.5594,-4.5594,-4.5594,-4.5594,-4.5594,-4.5594,-4.5594,-4.5594,-4.5594,-4.5594,-4.5594,-4.5594,-4.5594,-4.5594,-4.5594,-4.5594,-4.5594,-4.564,-4.5665,-4.5717,-4.5742,-4.577,-4.5803,-4.5812,-4.58,-4.5807,-4.5807,-4.5807,-4.5807,-4.5807,-4.5807,-4.5807,-4.5807,-4.5807,-4.5807,-4.5807,-4.5807,-4.5807,-4.5807,-4.5807,-4.5807,-4.5807,-4.5807,-4.5807,-4.5807,-4.5807,-4.5807,-4.5807,-4.5807,-4.5814,-4.5815,-4.5861,-4.5923,-4.5964,-4.6021,-4.6052,-4.6071,-4.6093,-4.6106,-4.6142,-4.6185,-4.6199,-4.6203,-4.6209,-4.6196,-4.6212,-4.6201,-4.62,-4.621,-4.62,-4.6224,-4.6228,-4.6269,-4.628,-4.6294,-4.6287,-4.6303,-4.6303,-4.6302,-4.6302,-4.6302,-4.6302,-4.6243,-4.6046,-4.5402,-4.466,-4.4075,-4.3686,-4.2845,-4.1773,-4.1108,-4.1099,-4.1111,-4.1098,-4.1061,-4.1019,-4.1026,-4.1009,-4.1,-4.0971,-4.0936,-4.0893,-4.0883,-4.0833,-4.0796,-4.0756,-4.07,-4.0655,-4.0598,-4.0455,-4.5594,-4.5594,-4.5594,-4.5594,-4.5594,-4.5594,-4.5594,-4.5594,-4.5594,-4.5594,-4.5594,-4.5594,-4.5594,-4.5594,-4.5594,-4.5594,-4.5594,-4.5594,-4.5594,-4.5594,-4.5594,-4.5594,-4.5631,-4.564,-4.5684,-4.5717,-4.577,-4.5803,-4.5805,-4.58,-4.5807,-4.5807,-4.5807,-4.5807,-4.5807,-4.5807,-4.5807,-4.5807,-4.5807,-4.5807,-4.5807,-4.5807,-4.5807,-4.5807,-4.5807,-4.5807,-4.5807,-4.5807,-4.5807,-4.5807,-4.5807,-4.5807,-4.5807,-4.5807,-4.5807,-4.5814,-4.5822,-4.588,-4.5911,-4.5941,-4.5975,-4.5997,-4.6037,-4.6042,-4.6122,-4.6146,-4.6162,-4.6169,-4.6199,-4.6209,-4.6209,-4.6215,-4.6201,-4.6211,-4.6197,-4.6212,-4.6221,-4.6229,-4.625,-4.625,-4.6267,-4.63,-4.6296,-4.6305,-4.6305,-4.6302,-4.6302,-4.6303,-4.6067,-4.587,-4.5109,-4.4426,-4.3997,-4.2944,-4.1539,-4.1108,-4.1106,-4.1117,-4.1166,-4.1098,-4.1067,-4.1056,-4.1045,-4.1016,-4.1011,-4.0984,-4.0943,-4.0926,-4.0893,-4.0854,-4.0828,-4.0821,-4.0787,-4.0758,-4.0619,-4.5594,-4.5594,-4.5594,-4.5594,-4.5594,-4.5594,-4.5594,-4.5594,-4.5594,-4.5594,-4.5594,-4.5594,-4.5594,-4.5594,-4.5594,-4.5594,-4.5594,-4.5594,-4.5594,-4.5594,-4.5594,-4.5594,-4.5594,-4.5603,-4.5648,-4.5709,-4.5746,-4.5785,-4.5815,-4.5817,-4.5812,-4.58,-4.5807,-4.5807,-4.5807,-4.5807,-4.5807,-4.5807,-4.5807,-4.5807,-4.5807,-4.5807,-4.5807,-4.5807,-4.5807,-4.5807,-4.5807,-4.5807,-4.5807,-4.5807,-4.5807,-4.5807,-4.5807,-4.5807,-4.5807,-4.5807,-4.5814,-4.5848,-4.588,-4.5893,-4.591,-4.5939,-4.598,-4.6007,-4.6066,-4.6093,-4.6111,-4.6146,-4.6158,-4.6196,-4.6196,-4.6199,-4.6203,-4.6206,-4.6206,-4.6214,-4.621,-4.6201,-4.6202,-4.6204,-4.6229,-4.6289,-4.6286,-4.6279,-4.6294,-4.629,-4.6287,-4.6305,-4.6227,-4.6028,-4.5578,-4.4855,-4.425,-4.3001,-4.1773,-4.142,-4.1537,-4.1379,-4.1431,-4.125,-4.1107,-4.1083,-4.1072,-4.1045,-4.102,-4.1022,-4.0992,-4.0948,-4.093,-4.0917,-4.0869,-4.0863,-4.0848,-4.0804,-4.0757,-4.5594,-4.5594,-4.5594,-4.5586,-4.5586,-4.5586,-4.5594,-4.5594,-4.5594,-4.5594,-4.5594,-4.5594,-4.5594,-4.5594,-4.5594,-4.5594,-4.5594,-4.5594,-4.5594,-4.5594,-4.5594,-4.5594,-4.5594,-4.5594,-4.564,-4.5673,-4.5734,-4.5766,-4.5777,-4.5807,-4.5817,-4.58,-4.5807,-4.5807,-4.5807,-4.5807,-4.5807,-4.58,-4.58,-4.5807,-4.5807,-4.5807,-4.5807,-4.5807,-4.5807,-4.5807,-4.5807,-4.5807,-4.5807,-4.5807,-4.5807,-4.5807,-4.5807,-4.5807,-4.5807,-4.5807,-4.5807,-4.5814,-4.5841,-4.5841,-4.5874,-4.5854,-4.5899,-4.5935,-4.5975,-4.6007,-4.6027,-4.6051,-4.6098,-4.6181,-4.6189,-4.6196,-4.6199,-4.6199,-4.6206,-4.6206,-4.6206,-4.6197,-4.6202,-4.6212,-4.6222,-4.6226,-4.6228,-4.623,-4.623,-4.625,-4.6267,-4.6286,-4.6284,-4.6121,-4.5973,-4.5366,-4.4646,-4.4133,-4.3372,-4.2415,-4.222,-4.1967,-4.1654,-4.1415,-4.1218,-4.1124,-4.1094,-4.1072,-4.1056,-4.1061,-4.1013,-4.098,-4.0948,-4.093,-4.0912,-4.0874,-4.0878,-4.0863,-4.0821]},{"header":{"parameterUnit":"m.s-1","parameterCategory":1,"la1":31.0,"la2":29.5877,"lo1":-88.7671,"lo2":-86.6584,"dy":0.0162,"dx":0.0185,"nx":115,"ny":88,"refTime":"2025-05-16T12:00:00:Z","depth":0,"parameterNumber":3,"parameterNumberName":"V-component_of_WINDS"},"data":[0.0,0.0,0.0,0.0,0.0,0.0,0.0,0.0,0.0,0.0,0.0,0.0,0.0,0.0,0.0,0.0,0.0,0.0,0.0,0.0,0.0,0.0,0.0,0.0,0.0,0.0,0.0,0.0,0.0,0.0,0.0,0.0,0.0,0.0,0.0,0.0,0.0,0.0,0.0,0.0,0.0,0.0,0.0,0.0,0.0,0.0,0.0,0.0,0.0,0.0,0.0,0.0,0.0,0.0,0.0,0.0,0.0,0.0,0.0,0.0,0.0,0.0,0.0,0.0,0.0,0.0,0.0,0.0,0.0,0.0,0.0,0.0,0.0,0.0,0.0,0.0,0.0,0.0,0.0,0.0,0.0,0.0,0.0,0.0,0.0,0.0,0.0,0.0,0.0,0.0,0.0,0.0,0.0,0.0,0.0,0.0,0.0,0.0,0.0,0.0,0.0,0.0,0.0,0.0,0.0,0.0,0.0,0.0,0.0,0.0,0.0,0.0,0.0,0.0,0.0,0.0,0.0,0.0,0.0,0.0,0.0,0.0,0.0,0.0,0.0,0.0,0.0,0.0,0.0,0.0,0.0,0.0,0.0,0.0,0.0,0.0,0.0,0.0,0.0,0.0,0.0,0.0,0.0,0.0,0.0,0.0,0.0,0.0,0.0,0.0,0.0,0.0,0.0,0.0,0.0,0.0,0.0,0.0,0.0,0.0,0.0,0.0,0.0,0.0,0.0,0.0,0.0,0.0,0.0,0.0,0.0,0.0,0.0,0.0,0.0,0.0,0.0,0.0,0.0,0.0,0.0,0.0,0.0,0.0,0.0,0.0,0.0,0.0,0.0,0.0,0.0,0.0,0.0,0.0,0.0,0.0,0.0,0.0,0.0,0.0,0.0,0.0,0.0,0.0,0.0,0.0,0.0,0.0,0.0,0.0,0.0,0.0,0.0,0.0,0.0,0.0,0.0,0.0,0.0,0.0,0.0,0.0,0.0,0.0,0.0,0.0,0.0,0.0,0.0,0.0,0.0,0.0,0.0,0.0,0.0,0.0,0.0,0.0,0.0,0.0,0.0,0.0,0.0,0.0,0.0,0.0,0.0,0.0,0.0,0.0,0.0,0.0,0.0,0.0,0.0,0.0,0.0,0.0,0.0,0.0,0.0,0.0,0.0,0.0,0.0,0.0,0.0,0.0,0.0,0.0,0.0,0.0,0.0,0.0,0.0,0.0,0.0,0.0,0.0,0.0,0.0,0.0,0.0,0.0,0.0,0.0,0.0,0.0,0.0,0.0,0.0,0.0,0.0,0.0,0.0,0.0,0.0,0.0,0.0,0.0,0.0,0.0,0.0,0.0,0.0,0.0,0.0,0.0,0.0,0.0,0.0,0.0,0.0,0.0,0.0,0.0,0.0,0.0,0.0,0.0,0.0,0.0,0.0,0.0,0.0,0.0,0.0,0.0,0.0,0.0,0.0,0.0,0.0,0.0,0.0,0.0,0.0,0.0,0.0,0.0,0.0,0.0,0.0,0.0,0.0,0.0,0.0,0.0,0.0,0.0,0.0,0.0,0.0,0.0,0.0,0.0,0.0,0.0,0.0,0.0,0.0,0.0,0.0,0.0,0.0,0.0,0.0,0.0,0.0,0.0,0.0,0.0,0.0,0.0,0.0,0.0,0.0,0.0,0.0,0.0,0.0,0.0,0.0,0.0,0.0,0.0,0.0,0.0,0.0,0.0,0.0,0.0,0.0,0.0,0.0,0.0,0.0,0.0,0.0,0.0,0.0,0.0,0.0,0.0,0.0,0.0,0.0,0.0,0.0,0.0,0.0,0.0,0.0,0.0,0.0,0.0,0.0,0.0,0.0,0.0,0.0,0.0,0.0,0.0,0.0,0.0,0.0,0.0,0.0,0.0,0.0,0.0,0.0,0.0,0.0,0.0,0.0,0.0,0.0,0.0,0.0,0.0,0.0,0.0,0.0,0.0,0.0,0.0,0.0,0.0,0.0,0.0,0.0,0.0,0.0,0.0,0.0,0.0,0.0,0.0,0.0,0.0,0.0,0.0,0.0,0.0,0.0,0.0,0.0,0.0,0.0,0.0,0.0,0.0,0.0,0.0,0.0,0.0,0.0,0.0,0.0,0.0,0.0,0.0,0.0,0.0,0.0,0.0,0.0,0.0,0.0,0.0,0.0,0.0,0.0,0.0,0.0,0.0,0.0,0.0,0.0,0.0,0.0,0.0,0.0,0.0,0.0,0.0,0.0,0.0,0.0,0.0,0.0,0.0,0.0,0.0,0.0,0.0,0.0,0.0,0.0,0.0,0.0,0.0,0.0,0.0,0.0,0.0,0.0,0.0,0.0,0.0,0.0,0.0,0.0,0.0,0.0,0.0,0.0,0.0,0.0,0.0,0.0,0.0,0.0,0.0,0.0,0.0,0.0,0.0,0.0,0.0,0.0,0.0,0.0,0.0,0.0,0.0,0.0,0.0,0.0,0.0,0.0,0.0,0.0,0.0,0.0,0.0,0.0,0.0,0.0,0.0,0.0,0.0,0.0,0.0,0.0,0.0,0.0,0.0,0.0,0.0,0.0,0.0,0.0,0.0,0.0,0.0,0.0,0.0,0.0,0.0,0.0,0.0,0.0,0.0,0.0,0.0,0.0,0.0,0.0,0.0,0.0,0.0,0.0,0.0,0.0,0.0,0.0,0.0,0.0,0.0,0.0,0.0,0.0,0.0,0.0,0.0,0.0,0.0,0.0,0.0,0.0,0.0,0.0,0.0,0.0,0.0,0.0,0.0,0.0,0.0,0.0,0.0,0.0,0.0,0.0,0.0,0.0,0.0,0.0,0.0,0.0,0.0,0.0,0.0,0.0,0.0,0.0,0.0,0.0,0.0,0.0,0.0,0.0,0.0,0.0,0.0,0.0,0.0,0.0,0.0,0.0,0.0,0.0,0.0,0.0,0.0,0.0,0.0,0.0,0.0,0.0,0.0,0.0,0.0,0.0,0.0,0.0,0.0,0.0,0.0,0.0,0.0,0.0,0.0,0.0,0.0,0.0,0.0,0.0,0.0,0.0,0.0,0.0,0.0,0.0,0.0,0.0,0.0,0.0,0.0,0.0,0.0,0.0,0.0,0.0,0.0,0.0,0.0,0.0,0.0,0.0,0.0,0.0,0.0,0.0,0.0,0.0,0.0,0.0,0.0,0.0,0.0,0.0,0.0,0.0,0.0,0.0,0.0,0.0,0.0,0.0,0.0,0.0,0.0,0.0,0.0,0.0,0.0,0.0,0.0,0.0,0.0,0.0,0.0,0.0,0.0,0.0,0.0,0.0,0.0,0.0,0.0,0.0,0.0,0.0,0.0,0.0,0.0,0.0,0.0,0.0,0.0,0.0,0.0,0.0,0.0,0.0,0.0,0.0,0.0,0.0,0.0,0.0,0.0,0.0,0.0,0.0,0.0,0.0,0.0,0.0,0.0,0.0,0.0,0.0,0.0,0.0,0.0,0.0,0.0,0.0,0.0,0.0,0.0,0.0,0.0,0.0,0.0,0.0,0.0,0.0,0.0,0.0,0.0,0.0,0.0,0.0,0.0,0.0,0.0,0.0,0.0,0.0,0.0,0.0,0.0,0.0,0.0,0.0,0.0,0.0,0.0,0.0,0.0,0.0,0.0,0.0,0.0,0.0,0.0,0.0,0.0,0.0,0.0,0.0,0.0,0.0,0.0,0.0,0.0,0.0,0.0,0.0,0.0,0.0,0.0,0.0,0.0,0.0,0.0,0.0,0.0,0.0,0.0,0.0,0.0,0.0,0.0,0.0,0.0,0.0,0.0,0.0,0.0,0.0,0.0,0.0,0.0,0.0,0.0,0.0,0.0,0.0,0.0,0.0,0.0,0.0,0.0,0.0,0.0,0.0,0.0,0.0,0.0,0.0,0.0,0.0,0.0,0.0,0.0,0.0,0.0,0.0,0.0,0.0,0.0,0.0,0.0,0.0,0.0,0.0,0.0,0.0,0.0,0.0,0.0,0.0,0.0,0.0,0.0,0.0,0.0,0.0,0.0,0.0,0.0,0.0,0.0,0.0,0.0,0.0,0.0,0.0,0.0,0.0,0.0,0.0,0.0,0.0,0.0,0.0,0.0,0.0,0.0,0.0,0.0,0.0,0.0,0.0,0.0,0.0,0.0,0.0,0.0,0.0,0.0,0.0,0.0,0.0,0.0,0.0,0.0,0.0,0.0,0.0,0.0,0.0,0.0,0.0,0.0,0.0,0.0,0.0,0.0,-0.0897,0.0,0.0,0.0,0.0,0.0,0.0,0.0,0.0,0.0,0.0,0.0,0.0,0.0,0.0,0.0,0.0,0.0,0.0,0.0,0.0,0.0,0.0,0.0,0.0,0.0,0.0,0.0,0.0,0.0,0.0,0.0,0.0,0.0,0.0,0.0,0.0,0.0,0.0,0.0,0.0,0.0,0.0,0.0,0.0,0.0,0.0,0.0,0.0,0.0,0.0,0.0,0.0,0.0,0.0,0.0,0.0,0.0,0.0,0.0,0.0,0.0,0.0,0.0,0.0,0.0,0.0,0.0,0.0,0.0,0.0,0.0,0.0,0.0,0.0,0.0,0.0,0.0,0.0,0.0,0.0,0.0,0.0,0.0,0.0,0.0,0.0,0.0,0.0,0.0,0.0,0.0,0.0,0.0,0.0,0.0,0.0,0.0,0.0,0.0,0.0,0.0,0.0,0.0,0.0,0.0,0.0,0.0,0.0,0.0,0.0,-0.0897,-0.0897,-0.0897,-0.0954,-0.1122,0.0,0.0,0.0,0.0,0.0,0.0,0.0,0.0,0.0,0.0,0.0,0.0,0.0,0.0,0.0,0.0,0.0,0.0,0.0,0.0,0.0,0.0,0.0,0.0,0.0,0.0,0.0,0.0,0.0,0.0,0.0,0.0,0.0,0.0,0.0,0.0,0.0,0.0,0.0,0.0,0.0,0.0,0.0,0.0,0.0,0.0,0.0,0.0,0.0,0.0,0.0,0.0,0.0,0.0,0.0,0.0,0.0,0.0,0.0,0.0,0.0,0.0,0.0,0.0,0.0,0.0,0.0,0.0,0.0,0.0,0.0,0.0,0.0,0.0,0.0,0.0,0.0,0.0,0.0,0.0,0.0,0.0,0.0,0.0,0.0,0.0,0.0,0.0,0.0,0.0,0.0,0.0,0.0,0.0,0.0,0.0,0.0,0.0,0.0,0.0,0.0,0.0,0.0,0.0,0.0,0.0,0.0,0.0,0.0,0.0,0.0,0.0,-0.0918,-0.1058,-0.1391,0.0,0.0,0.0,0.0,0.0,0.0,0.0,0.0,0.0,0.0,0.0,0.0,0.0,0.0,0.0,0.0,0.0,0.0,0.0,0.0,0.0,0.0,0.0,0.0,0.0,0.0,0.0,0.0,0.0,0.0,0.0,0.0,0.0,0.0,0.0,0.0,0.0,0.0,0.0,0.0,0.0,0.0,0.0,0.0,0.0,0.0,0.0,0.0,0.0,0.0,0.0,0.0,0.0,0.0,0.0,0.0,0.0,0.0,0.0,0.0,0.0,0.0,0.0,0.0,0.0,0.0,0.0,0.0,0.0,0.0,0.0,0.0,0.0,0.0,0.0,0.0,0.0,0.0,0.0,0.0,0.0,0.0,0.0,0.0,0.0,0.0,0.0,0.0,0.0,0.0,0.0,0.0,0.0,0.0,0.0,0.0,0.0,0.0,0.0,0.0,0.0,0.0,0.0,0.0,0.0,0.0,0.0,0.0,0.0,0.0,-0.0924,-0.1009,-0.098,0.0,-0.1644,0.0,0.0,0.0,0.0,0.0,0.0,0.0,0.0,0.0,0.0,0.0,0.0,0.0,0.0,0.0,0.0,0.0,0.0,0.0,0.0,0.0,0.0,0.0,0.0,0.0,0.0,0.0,0.0,0.0,0.0,0.0,0.0,0.0,0.0,0.0,0.0,0.0,0.0,0.0,0.0,0.0,0.0,0.0,0.0,0.0,0.0,0.0,0.0,0.0,0.0,0.0,0.0,0.0,0.0,0.0,0.0,0.0,0.0,0.0,0.0,0.0,0.0,0.0,0.0,0.0,0.0,0.0,0.0,0.0,0.0,0.0,0.0,0.0,0.0,0.0,0.0,0.0,0.0,0.0,0.0,0.0,0.0,0.0,0.0,0.0,0.0,0.0,0.0,0.0,0.0,0.0,0.0,0.0,0.0,0.0,0.0,0.0,0.0,0.0,0.0,0.0,0.0,0.0,0.0,0.0,0.0,0.0,0.0,0.0,0.0,-0.0963,-0.1019,-0.1273,-0.149,0.0,0.0,0.0,0.0,0.0,0.0,0.0,0.0,0.0,0.0,0.0,0.0,0.0,0.0,0.0,0.0,0.0,0.0,0.0,0.0,0.0,0.0,0.0,0.0,0.0,0.0,0.0,0.0,0.0,0.0,0.0,0.0,0.0,0.0,0.0,0.0,0.0,0.0,0.0,0.0,0.0,0.0,0.0,0.0,0.0,0.0,0.0,0.0,0.0,0.0,0.0,0.0,0.0,0.0,0.0,0.0,0.0,0.0,0.0,0.0,0.0,0.0,0.0,0.0,0.0,0.0,0.0,0.0,0.0,0.0,0.0,0.0,0.0,0.0,0.0,0.0,0.0,0.0,0.0,0.0,0.0,0.0,0.0,0.0,0.0,0.0,0.0,0.0,0.0,0.0,0.0,0.0,0.0,0.0,0.0,0.0,0.0,0.0,0.0,0.0,0.0,0.0,0.0,0.0,0.0,0.0,0.0,0.0,0.0,0.0,-0.0974,-0.0992,-0.103,-0.1423,-0.1677,-0.1691,0.0,0.0,0.0,0.0,0.0,0.0,0.0,0.0,0.0,0.0,0.0,0.0,0.0,0.0,0.0,0.0,0.0,0.0,0.0,0.0,0.0,0.0,0.0,0.0,0.0,0.0,0.0,0.0,0.0,0.0,0.0,0.0,0.0,0.0,0.0,0.0,0.0,0.0,0.0,0.0,0.0,0.0,0.0,0.0,0.0,0.0,0.0,0.0,0.0,0.0,0.0,0.0,0.0,0.0,0.0,0.0,0.0,0.0,0.0,0.0,0.0,0.0,0.0,0.0,0.0,0.0,0.0,0.0,0.0,0.0,0.0,0.0,0.0,0.0,0.0,0.0,0.0,0.0,0.0,0.0,0.0,0.0,0.0,0.0,0.0,0.0,0.0,0.0,0.0,0.0,0.0,0.0,0.0,0.0,0.0,0.0,0.0,0.0,0.0,0.0,0.0,0.0,0.0,0.0,0.0,0.0,0.0,0.0,0.0,-0.1046,-0.1002,-0.0998,-0.1406,-0.1622,0.0,0.0,0.0,0.0,0.0,0.0,0.0,0.0,0.0,0.0,0.0,0.0,0.0,0.0,0.0,0.0,0.0,0.0,0.0,0.0,0.0,0.0,0.0,0.0,0.0,0.0,0.0,0.0,0.0,0.0,0.0,0.0,0.0,0.0,0.0,0.0,0.0,0.0,0.0,0.0,0.0,0.0,0.0,0.0,0.0,0.0,0.0,0.0,0.0,0.0,0.0,0.0,0.0,0.0,0.0,0.0,0.0,0.0,0.0,0.0,0.0,0.0,0.0,0.0,0.0,0.0,0.0,0.0,0.0,0.0,0.0,0.0,0.0,0.0,0.0,0.0,0.0,0.0,0.0,0.0,0.0,0.0,0.0,0.0,0.0,0.0,0.0,0.0,0.0,0.0,0.0,0.0,0.0,0.0,0.0,0.0,0.0,0.0,0.0,0.0,0.0,0.0,0.0,0.0,0.0,0.0,0.0,0.0,0.0,-0.0989,-0.096,-0.097,-0.1047,-0.1334,-0.1545,0.0,0.0,0.0,0.0,0.0,0.0,0.0,0.0,0.0,0.0,0.0,0.0,0.0,0.0,0.0,0.0,0.0,0.0,0.0,0.0,0.0,0.0,0.0,0.0,0.0,0.0,0.0,0.0,0.0,0.0,0.0,0.0,0.0,0.0,0.0,0.0,0.0,0.0,0.0,0.0,0.0,0.0,0.0,0.0,0.0,0.0,0.0,0.0,0.0,0.0,0.0,0.0,0.0,0.0,0.0,0.0,0.0,0.0,0.0,0.0,0.0,0.0,0.0,0.0,0.0,0.0,0.0,0.0,0.0,0.0,0.0,0.0,0.0,0.0,0.0,0.0,0.0,0.0,0.0,0.0,0.0,0.0,0.0,0.0,0.0,0.0,0.0,0.0,0.0,0.0,0.0,0.0,0.0,0.0,0.0,0.0,0.0,0.0,0.0,0.0,0.0,0.0,0.0,0.0,0.0,0.0,0.0,0.0,0.0,-0.094,0.0,-0.1043,0.0,-0.1318,-0.1482,0.0,0.0,0.0,0.0,0.0,0.0,0.0,0.0,0.0,0.0,0.0,0.0,0.0,0.0,0.0,0.0,0.0,0.0,0.0,0.0,0.0,0.0,0.0,0.0,0.0,0.0,0.0,0.0,0.0,0.0,0.0,0.0,0.0,0.0,0.0,0.0,0.0,0.0,0.0,0.0,0.0,0.0,0.0,0.0,0.0,0.0,0.0,0.0,0.0,0.0,0.0,0.0,0.0,0.0,0.0,0.0,0.0,0.0,0.0,0.0,0.0,0.0,0.0,0.0,0.0,0.0,0.0,0.0,0.0,0.0,0.0,0.0,0.0,0.0,0.0,0.0,0.0,0.0,0.0,0.0,0.0,0.0,0.0,0.0,0.0,0.0,0.0,0.0,0.0,0.0,0.0,0.0,0.0,0.0,0.0,0.0,0.0,0.0,0.0,0.0,0.0,0.0,0.0,0.0,0.0,0.0,0.0,0.0,-0.0941,-0.0993,-0.1088,-0.1192,-0.1306,-0.1339,-0.147,0.0,0.0,0.0,0.0,0.0,0.0,0.0,0.0,0.0,0.0,0.0,0.0,0.0,0.0,0.0,0.0,0.0,0.0,0.0,0.0,0.0,0.0,0.0,0.0,0.0,0.0,0.0,0.0,0.0,0.0,0.0,0.0,0.0,0.0,0.0,0.0,0.0,0.0,0.0,0.0,0.0,0.0,0.0,0.0,0.0,0.0,0.0,0.0,0.0,0.0,0.0,0.0,0.0,0.0,0.0,0.0,0.0,0.0,0.0,0.0,0.0,0.0,0.0,0.0,0.0,0.0,0.0,0.0,0.0,0.0,0.0,0.0,0.0,0.0,0.0,0.0,0.0,0.0,0.0,0.0,0.0,0.0,0.0,0.0,0.0,0.0,0.0,0.0,0.0,0.0,0.0,0.0,0.0,0.0,0.0,0.0,0.0,0.0,0.0,0.0,0.0,0.0,0.0,0.0,0.0,0.0,0.0,0.0,0.0,-0.1336,-0.1374,-0.153,-0.1898,-0.177,-0.1833,0.0,0.0,0.0,0.0,0.0,0.0,0.0,0.0,0.0,0.0,0.0,0.0,0.0,0.0,0.0,0.0,0.0,0.0,0.0,0.0,0.0,0.0,0.0,0.0,0.0,0.0,0.0,0.0,0.0,0.0,0.0,0.0,0.0,0.0,0.0,0.0,0.0,0.0,0.0,0.0,0.0,0.0,0.0,0.0,0.0,0.0,0.0,0.0,0.0,0.0,0.0,0.0,0.0,0.0,0.0,0.0,0.0,0.0,0.0,0.0,0.0,0.0,0.0,0.0,0.0,0.0,0.0,0.0,0.0,0.0,0.0,0.0,0.0,0.0,0.0,0.0,0.0,0.0,0.0,0.0,0.0,0.0,0.0,0.0,0.0,0.0,0.0,0.0,0.0,0.0,0.0,0.0,0.0,0.0,0.0,0.0,0.0,0.0,0.0,0.0,0.0,0.0,0.0,0.0,0.0,0.0,0.0,0.0,0.0,-0.155,-0.1443,-0.1641,-0.2119,-0.197,-0.2029,-0.2396,0.0,0.0,0.0,0.0,0.0,0.0,0.0,0.0,0.0,0.0,0.0,0.0,0.0,0.0,0.0,0.0,0.0,0.0,0.0,0.0,0.0,0.0,0.0,0.0,0.0,0.0,0.0,0.0,0.0,0.0,0.0,0.0,0.0,0.0,0.0,0.0,0.0,0.0,0.0,0.0,0.0,0.0,0.0,0.0,0.0,0.0,0.0,0.0,0.0,0.0,0.0,0.0,0.0,0.0,0.0,0.0,0.0,0.0,0.0,0.0,0.0,0.0,0.0,0.0,0.0,0.0,0.0,0.0,0.0,0.0,0.0,0.0,0.0,0.0,0.0,0.0,0.0,0.0,0.0,0.0,0.0,0.0,0.0,0.0,0.0,0.0,0.0,0.0,0.0,0.0,0.0,0.0,0.0,0.0,0.0,0.0,0.0,0.0,0.0,0.0,0.0,0.0,0.0,0.0,0.0,0.0,0.0,0.0,-0.1657,-0.1411,-0.1507,-0.2045,-0.192,-0.2108,0.0,0.0,0.0,0.0,0.0,0.0,0.0,0.0,0.0,0.0,0.0,0.0,0.0,0.0,0.0,0.0,0.0,0.0,0.0,0.0,0.0,0.0,0.0,0.0,0.0,0.0,0.0,0.0,0.0,0.0,0.0,0.0,0.0,0.0,0.0,0.0,0.0,0.0,0.0,0.0,0.0,0.0,0.0,0.0,0.0,0.0,0.0,0.0,0.0,0.0,0.0,0.0,0.0,0.0,0.0,0.0,0.0,0.0,0.0,0.0,0.0,0.0,0.0,0.0,0.0,0.0,0.0,0.0,0.0,0.0,0.0,0.0,0.0,0.0,0.0,0.0,0.0,0.0,0.0,0.0,0.0,0.0,0.0,0.0,0.0,0.0,0.0,0.0,0.0,0.0,0.0,0.0,0.0,0.0,0.0,0.0,0.0,0.0,0.0,0.0,0.0,0.0,0.0,0.0,0.0,0.0,0.0,0.0,0.0,-0.1409,-0.172,-0.2156,-0.2722,-0.2456,-0.2542,0.0,0.0,0.0,0.0,0.0,0.0,0.0,0.0,0.0,0.0,0.0,0.0,0.0,0.0,0.0,0.0,0.0,0.0,0.0,0.0,0.0,0.0,0.0,0.0,0.0,0.0,0.0,0.0,0.0,0.0,0.0,0.0,0.0,0.0,0.0,0.0,0.0,0.0,0.0,0.0,0.0,0.0,0.0,0.0,0.0,0.0,0.0,0.0,0.0,0.0,0.0,0.0,0.0,0.0,0.0,0.0,0.0,0.0,0.0,0.0,0.0,0.0,0.0,0.0,0.0,0.0,0.0,0.0,0.0,0.0,0.0,0.0,0.0,0.0,0.0,0.0,0.0,0.0,0.0,0.0,0.0,0.0,0.0,0.0,0.0,0.0,0.0,0.0,0.0,0.0,0.0,0.0,0.0,0.0,0.0,0.0,0.0,0.0,0.0,0.0,0.0,0.0,0.0,0.0,0.0,0.0,0.0,0.0,-0.1312,-0.1591,-0.1936,-0.2465,-0.3202,-0.2905,-0.287,0.0,0.0,0.0,0.0,0.0,0.0,0.0,0.0,0.0,0.0,0.0,0.0,0.0,0.0,0.0,0.0,0.0,0.0,0.0,0.0,0.0,0.0,0.0,0.0,0.0,0.0,0.0,0.0,0.0,0.0,0.0,0.0,0.0,0.0,0.0,0.0,0.0,0.0,0.0,0.0,0.0,0.0,0.0,0.0,0.0,0.0,0.0,0.0,0.0,0.0,0.0,0.0,0.0,0.0,0.0,0.0,0.0,0.0,0.0,0.0,0.0,0.0,0.0,0.0,0.0,0.0,0.0,0.0,0.0,0.0,0.0,0.0,0.0,0.0,0.0,0.0,0.0,0.0,0.0,0.0,0.0,0.0,0.0,0.0,0.0,0.0,0.0,0.0,0.0,0.0,0.0,0.0,0.0,0.0,0.0,0.0,0.0,0.0,0.0,0.0,0.0,0.0,0.0,0.0,0.0,0.0,0.0,0.0,-0.148,-0.1995,-0.2172,-0.2661,-0.3418,-0.3211,-0.309,0.0,0.0,0.0,0.0,0.0,0.0,0.0,0.0,0.0,0.0,0.0,0.0,0.0,0.0,0.0,0.0,0.0,0.0,0.0,0.0,0.0,0.0,0.0,0.0,0.0,0.0,0.0,0.0,0.0,0.0,0.0,0.0,0.0,0.0,0.0,0.0,0.0,0.0,0.0,0.0,0.0,0.0,0.0,0.0,0.0,0.0,0.0,0.0,0.0,0.0,0.0,0.0,0.0,0.0,0.0,0.0,0.0,0.0,0.0,0.0,0.0,0.0,0.0,0.0,0.0,0.0,0.0,0.0,0.0,0.0,0.0,0.0,0.0,0.0,0.0,0.0,0.0,0.0,0.0,0.0,0.0,0.0,0.0,0.0,0.0,0.0,0.0,0.0,0.0,0.0,0.0,0.0,0.0,0.0,0.0,0.0,0.0,0.0,0.0,0.0,0.0,0.0,0.0,0.0,0.0,0.0,0.0,0.0,-0.1752,-0.2084,-0.2536,-0.2949,-0.3303,-0.3105,-0.3116,0.0,0.0,0.0,0.0,0.0,0.0,0.0,0.0,0.0,0.0,0.0,0.0,0.0,0.0,0.0,0.0,0.0,0.0,0.0,0.0,0.0,0.0,0.0,0.0,0.0,0.0,0.0,0.0,0.0,0.0,0.0,0.0,0.0,0.0,0.0,0.0,0.0,0.0,0.0,0.0,0.0,0.0,0.0,0.0,0.0,0.0,0.0,0.0,-0.7752,0.0,0.0,0.0,0.0,0.0,0.0,0.0,0.0,0.0,0.0,0.0,0.0,0.0,0.0,0.0,0.0,0.0,0.0,0.0,0.0,0.0,0.0,0.0,0.0,0.0,0.0,0.0,0.0,0.0,0.0,0.0,0.0,0.0,0.0,0.0,0.0,0.0,0.0,0.0,0.0,0.0,0.0,0.0,0.0,0.0,0.0,0.0,0.0,0.0,0.0,0.0,0.0,0.0,0.0,0.0,0.0,0.0,0.0,0.0,-0.2016,-0.2428,-0.2952,-0.3398,-0.3715,-0.3515,-0.3379,0.0,0.0,0.0,0.0,0.0,0.0,0.0,0.0,0.0,0.0,0.0,0.0,0.0,0.0,0.0,0.0,0.0,0.0,0.0,0.0,0.0,0.0,0.0,0.0,0.0,0.0,0.0,0.0,0.0,0.0,0.0,0.0,0.0,0.0,0.0,0.0,0.0,0.0,0.0,0.0,0.0,0.0,0.0,0.0,0.0,0.0,0.0,0.0,0.0,0.0,0.0,0.0,0.0,0.0,0.0,0.0,0.0,0.0,0.0,0.0,0.0,0.0,0.0,0.0,0.0,0.0,0.0,0.0,0.0,0.0,0.0,0.0,0.0,0.0,0.0,0.0,0.0,0.0,0.0,0.0,0.0,0.0,0.0,0.0,0.0,0.0,0.0,0.0,0.0,0.0,0.0,0.0,0.0,0.0,0.0,0.0,0.0,0.0,0.0,0.0,0.0,0.0,0.0,0.0,0.0,0.0,0.0,-0.1787,-0.2346,-0.2827,-0.3331,-0.3813,-0.4153,-0.3989,-0.3639,-0.3014,0.0,0.0,0.0,0.0,0.0,0.0,0.0,0.0,0.0,0.0,0.0,0.0,0.0,0.0,0.0,0.0,0.0,0.0,0.0,0.0,0.0,0.0,0.0,0.0,0.0,0.0,0.0,0.0,0.0,0.0,0.0,0.0,0.0,0.0,0.0,0.0,0.0,0.0,-0.5603,-0.7265,0.0,0.0,0.0,0.0,0.0,0.0,0.0,0.0,-0.8319,0.0,0.0,0.0,0.0,0.0,0.0,0.0,0.0,0.0,0.0,0.0,0.0,0.0,0.0,0.0,0.0,0.0,0.0,0.0,0.0,0.0,0.0,0.0,0.0,0.0,0.0,0.0,0.0,0.0,0.0,0.0,0.0,0.0,0.0,0.0,0.0,0.0,0.0,0.0,0.0,0.0,0.0,0.0,0.0,0.0,0.0,0.0,0.0,0.0,0.0,0.0,0.0,0.0,0.0,0.0,0.0,-0.1185,-0.2152,-0.2726,-0.2886,-0.3355,-0.3741,-0.4021,-0.3955,-0.3601,-0.3055,0.0,0.0,0.0,0.0,0.0,0.0,0.0,0.0,0.0,0.0,0.0,0.0,0.0,0.0,0.0,0.0,0.0,0.0,0.0,0.0,0.0,0.0,0.0,0.0,0.0,0.0,0.0,0.0,0.0,0.0,0.0,0.0,0.0,0.0,0.0,0.0,0.0,0.0,0.0,-0.8415,-0.9088,0.0,0.0,0.0,0.0,0.0,0.0,0.0,0.0,-0.876,0.0,0.0,0.0,0.0,0.0,0.0,0.0,0.0,0.0,0.0,0.0,0.0,0.0,0.0,0.0,0.0,0.0,0.0,0.0,0.0,0.0,0.0,0.0,0.0,0.0,0.0,0.0,0.0,0.0,0.0,0.0,0.0,0.0,0.0,0.0,0.0,0.0,0.0,0.0,0.0,0.0,0.0,0.0,0.0,0.0,0.0,0.0,0.0,0.0,0.0,0.0,0.0,0.0,0.0,0.0,-0.1226,-0.2224,-0.2837,-0.2902,-0.3585,-0.3953,-0.3996,-0.3854,-0.3505,0.0,0.0,0.0,0.0,0.0,0.0,0.0,0.0,0.0,0.0,0.0,0.0,0.0,0.0,0.0,0.0,0.0,0.0,0.0,0.0,0.0,0.0,0.0,0.0,0.0,0.0,0.0,0.0,0.0,0.0,0.0,0.0,0.0,0.0,0.0,0.0,0.0,0.0,0.0,0.0,-0.9411,-0.9774,-0.9376,0.0,0.0,0.0,0.0,0.0,0.0,-0.9354,-0.9073,0.0,0.0,0.0,0.0,0.0,0.0,0.0,0.0,0.0,0.0,0.0,0.0,0.0,0.0,0.0,0.0,0.0,0.0,0.0,0.0,0.0,0.0,0.0,0.0,0.0,0.0,0.0,0.0,0.0,0.0,0.0,0.0,0.0,0.0,0.0,0.0,0.0,0.0,0.0,0.0,0.0,0.0,0.0,0.0,0.0,0.0,0.0,0.0,0.0,0.0,0.0,0.0,0.0,0.0,0.0,-0.1144,-0.2145,-0.2754,-0.2903,-0.3719,-0.4128,-0.3996,-0.3805,-0.3452,0.0,0.0,0.0,0.0,0.0,0.0,0.0,0.0,0.0,0.0,0.0,0.0,0.0,0.0,0.0,0.0,0.0,0.0,0.0,0.0,0.0,0.0,0.0,0.0,0.0,0.0,0.0,0.0,0.0,0.0,0.0,0.0,0.0,0.0,0.0,0.0,0.0,0.0,0.0,0.0,0.0,-1.0244,-0.9611,-1.003,0.0,0.0,0.0,0.0,-1.0356,-1.0038,0.0,0.0,0.0,0.0,0.0,0.0,0.0,0.0,0.0,0.0,0.0,0.0,0.0,0.0,0.0,0.0,0.0,0.0,0.0,0.0,0.0,0.0,0.0,0.0,0.0,0.0,0.0,0.0,0.0,0.0,0.0,0.0,0.0,0.0,0.0,0.0,0.0,0.0,0.0,0.0,0.0,0.0,0.0,0.0,0.0,0.0,0.0,0.0,0.0,0.0,0.0,0.0,0.0,0.0,0.0,0.0,-0.1143,-0.1911,-0.2546,-0.2895,-0.3406,-0.3778,-0.3998,-0.3926,-0.3581,0.0,0.0,0.0,0.0,0.0,0.0,0.0,0.0,0.0,0.0,0.0,0.0,0.0,0.0,0.0,0.0,0.0,0.0,0.0,0.0,0.0,0.0,0.0,0.0,0.0,0.0,0.0,0.0,0.0,0.0,0.0,0.0,0.0,0.0,0.0,0.0,0.0,0.0,0.0,0.0,0.0,-1.0181,-1.0201,-0.9999,-1.0026,0.0,0.0,-1.0705,-1.0787,-1.1188,0.0,0.0,0.0,0.0,0.0,0.0,0.0,0.0,0.0,0.0,0.0,0.0,0.0,0.0,0.0,0.0,0.0,0.0,0.0,0.0,0.0,0.0,0.0,0.0,0.0,0.0,0.0,0.0,0.0,0.0,0.0,0.0,0.0,0.0,0.0,0.0,0.0,0.0,0.0,0.0,0.0,0.0,0.0,0.0,0.0,0.0,0.0,0.0,0.0,0.0,0.0,0.0,0.0,0.0,0.0,-0.1031,-0.1141,-0.1822,-0.2419,-0.2903,-0.3361,-0.3734,-0.3998,-0.375,-0.3428,0.0,0.0,0.0,0.0,0.0,0.0,0.0,0.0,0.0,0.0,0.0,0.0,0.0,0.0,0.0,0.0,0.0,0.0,0.0,0.0,0.0,0.0,0.0,0.0,0.0,0.0,0.0,0.0,0.0,0.0,0.0,0.0,0.0,0.0,0.0,0.0,0.0,0.0,0.0,0.0,0.0,0.0,-1.0857,-1.0905,0.0,0.0,0.0,-1.1527,-1.1771,0.0,0.0,0.0,0.0,0.0,0.0,0.0,0.0,0.0,0.0,0.0,0.0,0.0,0.0,0.0,0.0,0.0,0.0,0.0,0.0,0.0,0.0,0.0,0.0,0.0,0.0,0.0,0.0,0.0,0.0,0.0,0.0,0.0,0.0,0.0,0.0,0.0,0.0,0.0,0.0,0.0,0.0,0.0,0.0,0.0,0.0,0.0,0.0,0.0,0.0,0.0,0.0,0.0,0.0,0.0,0.0,0.0,-0.111,-0.1646,-0.2148,-0.2728,-0.3183,-0.3559,-0.3827,-0.3625,0.0,0.0,0.0,0.0,0.0,0.0,0.0,0.0,0.0,0.0,0.0,0.0,0.0,0.0,0.0,0.0,0.0,0.0,0.0,0.0,0.0,0.0,0.0,0.0,0.0,0.0,0.0,-0.3483,0.0,0.0,0.0,0.0,0.0,0.0,0.0,0.0,0.0,0.0,0.0,0.0,0.0,0.0,-1.0988,-1.1216,-1.1622,-1.1909,0.0,0.0,-1.2273,-1.2353,-1.2138,-1.165,0.0,0.0,0.0,0.0,0.0,0.0,0.0,0.0,0.0,0.0,0.0,0.0,0.0,0.0,0.0,0.0,0.0,0.0,0.0,0.0,0.0,0.0,0.0,0.0,0.0,0.0,0.0,0.0,0.0,0.0,0.0,0.0,0.0,0.0,0.0,0.0,0.0,0.0,0.0,0.0,0.0,0.0,0.0,0.0,0.0,0.0,0.0,0.0,0.0,0.0,0.0,0.0,0.0,0.0,0.0,-0.1111,-0.1255,-0.1677,-0.2239,-0.2689,-0.3072,-0.332,-0.3641,-0.3523,0.0,0.0,0.0,0.0,0.0,0.0,0.0,0.0,0.0,0.0,0.0,0.0,0.0,0.0,0.0,0.0,0.0,0.0,0.0,0.0,0.0,0.0,0.0,0.0,0.0,0.0,0.0,0.0,0.0,0.0,0.0,0.0,0.0,0.0,0.0,0.0,0.0,0.0,0.0,0.0,0.0,-1.1159,-1.1125,-1.1666,-1.2165,0.0,0.0,-1.2745,-1.2127,-1.2541,-1.2387,-1.0872,0.0,0.0,0.0,0.0,0.0,0.0,0.0,0.0,0.0,0.0,0.0,0.0,0.0,0.0,0.0,0.0,0.0,0.0,0.0,0.0,0.0,0.0,0.0,0.0,0.0,0.0,0.0,0.0,0.0,0.0,0.0,0.0,0.0,0.0,0.0,0.0,0.0,0.0,0.0,0.0,0.0,0.0,0.0,0.0,0.0,0.0,0.0,0.0,0.0,0.0,0.0,0.0,0.0,-0.0956,-0.111,-0.1255,-0.1591,-0.215,-0.2378,-0.2723,-0.3278,-0.3288,-0.319,0.0,0.0,0.0,0.0,0.0,0.0,0.0,0.0,0.0,0.0,0.0,0.0,0.0,0.0,0.0,0.0,0.0,0.0,0.0,0.0,0.0,0.0,0.0,0.0,0.0,0.0,0.0,0.0,-0.4022,-0.4173,-0.4284,0.0,0.0,0.0,0.0,0.0,0.0,0.0,0.0,0.0,0.0,-1.1348,-1.1879,-1.2359,0.0,0.0,-1.3053,-1.2994,-1.2943,-1.2804,-1.2358,-1.1379,-1.0843,0.0,0.0,0.0,0.0,0.0,0.0,0.0,0.0,0.0,0.0,0.0,0.0,0.0,0.0,0.0,0.0,0.0,0.0,0.0,0.0,0.0,0.0,0.0,0.0,0.0,0.0,0.0,0.0,0.0,0.0,0.0,0.0,0.0,0.0,0.0,0.0,0.0,0.0,0.0,0.0,0.0,0.0,0.0,0.0,0.0,0.0,0.0,0.0,0.0,0.0,0.0,0.0,-0.0977,-0.1109,-0.1237,-0.1476,-0.1937,-0.207,-0.2422,-0.287,-0.2836,-0.2845,0.0,0.0,0.0,0.0,0.0,0.0,0.0,0.0,0.0,0.0,0.0,0.0,0.0,0.0,0.0,0.0,0.0,0.0,0.0,0.0,0.0,0.0,0.0,0.0,0.0,0.0,0.0,0.0,-0.4328,-0.4543,-0.4422,0.0,0.0,0.0,0.0,0.0,0.0,0.0,0.0,0.0,0.0,-1.1452,-1.2383,-1.2703,-1.3014,-1.3426,-1.3301,-1.3162,-1.3199,-1.2899,-1.2358,-1.1452,0.0,0.0,0.0,0.0,0.0,0.0,0.0,0.0,0.0,0.0,0.0,0.0,0.0,0.0,0.0,0.0,0.0,0.0,0.0,0.0,0.0,0.0,0.0,0.0,0.0,0.0,0.0,0.0,0.0,0.0,0.2194,0.0,0.0,0.0,0.0,0.0,0.0,0.0,0.0,0.0,0.0,0.0,0.0,0.0,0.0,0.0,0.0,0.0,0.0,0.0,0.0,0.0,0.0,-0.0958,-0.1109,-0.1236,-0.1331,-0.1348,-0.1812,-0.2042,-0.1952,-0.2302,-0.2543,-0.2618,0.0,0.0,0.0,0.0,0.0,0.0,0.0,0.0,0.0,0.0,0.0,0.0,0.0,0.0,0.0,0.0,0.0,0.0,0.0,0.0,0.0,0.0,0.0,0.0,0.0,0.0,-0.3729,-0.449,-0.4873,0.0,0.0,0.0,0.0,0.0,0.0,0.0,0.0,0.0,0.0,-1.0504,-1.1506,-1.2374,-1.2565,-1.2842,-1.3419,-1.3484,-1.3272,-1.2645,-1.2762,-1.2453,0.0,0.0,0.0,0.0,0.0,0.0,0.0,0.0,0.0,0.0,0.0,0.0,0.0,0.0,0.0,0.0,0.0,0.0,0.0,0.0,0.0,0.0,0.0,0.0,0.0,0.0,0.0,0.3891,0.3561,0.0,0.0,0.0,0.0,0.0,0.0,0.0,0.0,0.0,0.0,0.0,-0.1079,-0.1139,0.0,0.0,0.0,0.0,0.0,0.0,0.0,0.0,0.0,0.0,0.0,0.0,-0.1028,-0.1111,-0.1215,-0.1307,-0.1305,-0.1473,-0.1666,-0.187,-0.1987,-0.214,-0.2393,0.0,0.0,0.0,0.0,0.0,0.0,0.0,0.0,0.0,0.0,0.0,0.0,0.0,0.0,0.0,0.0,0.0,0.0,0.0,0.0,0.0,0.0,0.0,0.0,0.0,-0.4161,0.0,0.0,0.0,0.0,0.0,0.0,0.0,0.0,0.0,0.0,0.0,-0.8449,-0.9305,-1.06,-1.1621,-1.1969,-1.2728,-1.3273,0.0,0.0,0.0,0.0,0.0,0.0,0.0,0.0,0.0,0.0,0.0,0.0,0.0,0.0,-1.2014,-1.0404,-0.9936,-0.9921,-1.0338,0.0,0.0,0.0,0.0,0.0,0.0,0.0,0.0,0.0,0.0,0.0,0.0,0.0,0.0,0.4442,0.0,0.4137,0.0,0.0,0.0,0.0,0.0,0.0,0.0,0.0,-0.04,-0.0831,-0.0826,-0.1142,-0.1247,0.0,-0.1104,-0.1049,0.0,0.0,0.0,0.0,0.0,0.0,0.0,0.0,-0.1012,-0.1092,-0.1209,-0.1286,-0.1315,-0.1316,-0.1428,-0.1687,-0.1714,-0.1878,-0.2139,-0.2318,-0.2404,0.0,0.0,0.0,0.0,0.0,0.0,0.0,0.0,0.0,0.0,0.0,0.0,0.0,0.0,0.0,0.0,0.0,0.0,0.0,0.0,0.0,0.0,0.0,-0.429,0.0,0.0,0.0,0.0,0.0,0.0,0.0,0.0,0.0,-0.7182,-0.7917,-0.8702,-0.9533,-1.0699,-1.1577,-1.1861,0.0,0.0,0.0,0.0,0.0,0.0,0.0,-1.284,-1.2674,-1.2636,-1.267,-1.2791,-1.3572,-1.3938,-1.3287,0.0,0.0,-1.1633,-1.1099,-1.1041,-1.1363,-1.1509,-1.1611,-1.176,-1.2462,-1.3179,0.0,0.0,0.0,0.0,0.0,0.0,0.0,0.0,0.483,0.4803,0.0,0.4591,0.0,0.0,0.0,0.0,0.0,0.0,0.0,0.0,0.0082,-0.0257,-0.0336,-0.0969,-0.1278,-0.1305,-0.1286,-0.1223,-0.111,-0.0904,0.0,0.0,0.0,0.0,0.0,0.0,-0.0973,-0.112,-0.1147,-0.1228,-0.1297,-0.1298,-0.1297,-0.1333,-0.1572,-0.1756,-0.1879,-0.2223,-0.2451,-0.2568,-0.2335,0.0,0.0,0.0,0.0,0.0,0.0,0.0,0.0,0.0,0.0,0.0,0.0,0.0,0.0,0.0,0.0,0.0,0.0,0.0,0.0,-0.3894,0.0,0.0,0.0,0.0,0.0,0.0,0.0,0.0,0.0,0.0,-0.8075,-0.8586,-0.9267,-1.0186,0.0,0.0,0.0,0.0,-1.2982,-1.3877,-1.4034,-1.4034,-1.3996,-1.4231,-1.413,-1.3214,0.0,0.0,-1.3653,-1.4115,-1.4342,-1.3667,-1.407,-1.4313,-1.3645,-1.295,-1.2672,-1.295,-1.2755,-1.2701,-1.2987,-1.3301,-1.3564,0.5697,0.0,0.0,0.0,0.0,0.5327,0.5429,0.5717,0.5619,0.5434,0.5202,0.5166,0.0,0.0,0.0,0.0,0.0,0.0,0.1831,0.1421,0.0788,0.0213,-0.0301,-0.0569,-0.0912,-0.1352,-0.1319,-0.1269,-0.124,-0.1088,-0.0977,-0.0873,0.0,0.0,0.0,0.0,-0.1076,-0.1187,-0.1251,-0.1288,-0.1297,-0.1297,-0.1286,-0.1226,-0.1531,-0.1668,-0.163,-0.2231,-0.2473,-0.233,-0.2471,0.0,0.0,0.0,0.0,0.0,0.0,0.0,0.0,0.0,0.0,0.0,0.0,0.0,0.0,0.0,0.0,0.0,0.0,0.0,-0.4097,-0.4061,-0.4145,0.0,0.0,0.0,0.0,0.0,0.0,0.0,0.0,0.0,-0.8781,-0.9042,-0.9496,0.0,0.0,-1.1769,-1.244,-1.3144,-1.3764,-1.4282,0.0,0.0,0.0,-1.4056,-1.3836,-1.4056,-1.4479,-1.4703,-1.456,-1.4874,-1.4973,-1.4589,-1.4637,-1.467,-1.4289,-1.4086,-1.3938,-1.4056,-1.3975,-1.3976,-1.4071,-1.4136,-1.4371,0.6208,0.5837,0.564,0.567,0.586,0.5795,0.5885,0.6083,0.6007,0.588,0.5769,0.5717,0.5401,0.4963,0.4731,0.0,0.0,0.0,0.2174,0.192,0.0853,0.0087,-0.0352,-0.0669,-0.102,-0.1388,-0.1354,-0.1322,-0.1292,-0.1213,-0.1123,-0.1023,0.0,0.0,-0.0983,-0.1079,-0.117,-0.1184,-0.1271,-0.1297,-0.1297,-0.1284,-0.1219,-0.1176,-0.1354,-0.1487,-0.1548,-0.2063,-0.2346,-0.2279,-0.2558,-0.2517,0.0,0.0,0.0,0.0,0.0,0.0,0.0,0.0,0.0,0.0,0.0,-0.216,-0.2193,0.0,0.0,0.0,-0.3794,-0.4276,-0.4588,-0.4564,0.0,0.0,0.0,0.0,0.0,0.0,0.0,-0.7593,-0.8085,-0.8608,-0.926,-0.9427,-0.981,-1.0748,-1.1445,-1.2029,-1.241,0.0,-1.3881,-1.4194,-1.4244,-1.4413,-1.4783,-1.4523,-1.4399,-1.4787,-1.4889,-1.49,-1.4907,-1.517,-1.5265,-1.5002,-1.5009,-1.5079,-1.4882,-1.4853,-1.475,-1.457,-1.4575,-1.4655,-1.4655,-1.4757,-1.5005,0.6554,0.6429,0.6206,0.6111,0.6113,0.6113,0.6113,0.6113,0.6116,0.6173,0.6309,0.6151,0.5975,0.5688,0.4966,0.0,0.4611,0.3193,0.2526,0.2443,0.0668,-0.0224,-0.0359,-0.0987,-0.1332,-0.1394,-0.1391,-0.1377,-0.1307,-0.1292,-0.1249,-0.1217,-0.1135,-0.1104,-0.109,-0.1154,-0.1185,-0.1215,-0.1282,-0.1295,-0.1292,-0.1224,-0.118,-0.1088,-0.1082,-0.1238,-0.1543,-0.1825,-0.2092,-0.2306,-0.253,-0.2525,-0.2291,0.0,0.0,0.0,0.0,0.0,0.0,0.0,0.0,0.0,0.0,0.0,0.0,0.0,0.0,0.0,-0.4245,0.0,-0.5084,-0.5216,0.0,0.0,0.0,-0.5731,-0.5752,-0.6671,-0.7393,-0.7611,0.0,0.0,-0.9572,0.0,-1.0105,-1.07,-1.155,-1.2101,-1.2113,-1.2856,-1.3558,-1.3878,-1.3981,-1.4336,-1.511,-1.5192,-1.5141,-1.517,-1.5061,-1.4856,-1.4856,-1.5075,-1.5155,-1.49,-1.5112,-1.5279,-1.5301,-1.5221,-1.5133,-1.4651,-1.4772,-1.4944,-1.4951,-1.5148,-1.5365,0.66,0.6564,0.6415,0.6352,0.6352,0.6352,0.6303,0.6303,0.63,0.6323,0.6268,0.6238,0.6143,0.5994,0.5788,0.5529,0.5192,0.48,0.4231,0.342,0.2425,0.141,0.0404,-0.0314,-0.0895,-0.1379,-0.1401,-0.1386,-0.1378,-0.1302,-0.127,-0.1281,-0.126,-0.1217,-0.1195,-0.1185,-0.1216,-0.1285,-0.1293,-0.1285,-0.1222,-0.123,-0.1159,-0.1087,-0.1044,-0.1051,-0.1141,-0.1457,-0.1628,-0.1642,-0.1936,-0.2107,-0.2158,-0.1958,0.0,0.0,0.0,0.0,0.0,0.0,0.0,0.0,0.0,-0.2289,-0.2232,0.0,-0.3587,0.0,-0.4513,-0.5092,-0.5217,-0.5202,0.0,0.0,-0.5903,-0.6174,-0.6966,-0.7283,-0.7762,-0.8563,-0.8967,-0.9367,-0.9787,-0.9884,-1.0105,-1.07,-1.0978,-1.1394,-1.205,-1.2954,-1.3651,-1.3919,-1.4265,-1.472,-1.4932,-1.4845,-1.4714,-1.4739,-1.4673,-1.4582,-1.4582,-1.4648,-1.4662,-1.4596,-1.4633,-1.4692,-1.4714,-1.4699,-1.4757,-1.4816,-1.5046,-1.5272,-1.5272,-1.5338,-1.5389,0.6719,0.6613,0.6495,0.6435,0.6387,0.6387,0.6387,0.6387,0.6387,0.6401,0.6344,0.6342,0.6279,0.6218,0.6168,0.6042,0.5663,0.5185,0.4586,0.393,0.2457,0.1331,0.059,-0.0405,-0.1031,-0.139,-0.1418,-0.141,-0.1409,-0.138,-0.1358,-0.1341,-0.1315,-0.1277,-0.1229,-0.123,-0.124,-0.1297,-0.1297,-0.1243,-0.1212,-0.1183,-0.1146,-0.1102,-0.1069,-0.104,-0.1014,-0.1306,-0.1428,-0.1417,-0.1683,-0.1939,-0.208,-0.1998,-0.2005,0.0,0.0,0.0,0.0,0.0,0.0,0.0,0.0,0.0,0.0,0.0,-0.4029,0.0,-0.5282,-0.569,-0.589,-0.5925,-0.6106,-0.6498,-0.6453,-0.6651,-0.7313,-0.7526,-0.7871,-0.8519,-0.8981,-0.9332,-0.9588,-0.9809,-0.9992,-1.0368,-1.04,-1.0718,-1.1627,-1.2368,-1.2802,-1.2991,-1.346,-1.4076,-1.4609,-1.4465,-1.4342,-1.446,-1.4386,-1.4291,-1.4291,-1.4408,-1.446,-1.4328,-1.4408,-1.4504,-1.4504,-1.4504,-1.4538,-1.4692,-1.4874,-1.5043,-1.5148,-1.5287,-1.536,0.6853,0.6643,0.6624,0.6548,0.6387,0.6387,0.6387,0.6387,0.6387,0.6387,0.6387,0.6387,0.638,0.6339,0.6339,0.6233,0.6085,0.5072,0.4542,0.4336,0.2061,0.0927,0.0738,-0.0544,-0.1214,-0.1256,-0.1346,-0.1391,-0.139,-0.1408,-0.1394,-0.1388,-0.1335,-0.1307,-0.1301,-0.1312,-0.1297,-0.1297,-0.1297,-0.1281,-0.1174,-0.1183,-0.1175,-0.1084,-0.1104,-0.1073,-0.1022,-0.1198,-0.1332,-0.1357,-0.1575,-0.1778,-0.1999,-0.203,-0.2116,0.0,-0.2309,0.0,0.0,0.0,0.0,0.0,0.0,0.0,0.0,-0.3916,-0.4723,-0.59,-0.6175,-0.6441,-0.6718,-0.6894,-0.7,-0.702,-0.7024,-0.7094,-0.7232,-0.7587,-0.7908,-0.8084,-0.8751,-0.9246,-0.9322,-0.9625,-0.9846,-0.9922,-0.996,-1.0214,-1.0881,-1.1392,-1.1756,-1.1655,-1.2165,-1.3146,-1.3956,-1.4061,-1.4011,-1.4276,-1.4137,-1.3961,-1.3916,-1.4174,-1.4276,-1.4011,-1.4166,-1.435,-1.4379,-1.4364,-1.4348,-1.4392,-1.4421,-1.4531,-1.4776,-1.5024,-1.5163,0.6899,0.6757,0.6662,0.6548,0.6387,0.6387,0.6387,0.6387,0.6387,0.6387,0.6387,0.6387,0.6373,0.6354,0.6354,0.6391,0.6322,0.6119,0.5777,0.531,0.4266,0.3236,0.2218,0.0828,-0.0137,-0.0583,-0.1166,-0.1391,-0.1391,-0.1385,-0.1414,-0.1389,-0.1356,-0.1327,-0.1303,0.0,0.0,0.0,-0.1297,-0.1242,-0.1174,-0.1181,-0.1149,-0.1112,-0.1042,0.0,-0.1019,-0.0994,-0.1007,-0.1002,-0.1024,0.0,0.0,0.0,0.0,0.0,0.0,0.0,0.0,0.0,0.0,0.0,-0.288,-0.3056,-0.3553,-0.4744,-0.5748,-0.6472,-0.6731,-0.6896,-0.6931,-0.6967,-0.7045,-0.7155,-0.7139,-0.724,-0.7445,-0.7816,-0.8067,-0.8093,-0.8513,-0.8937,-0.9246,-0.9359,-0.9549,-0.9803,-0.9884,-0.997,-1.0133,-1.0848,-1.1343,-1.1426,-1.2209,-1.2885,-1.2954,-1.3306,-1.3601,-1.366,-1.3645,-1.3594,-1.3609,-1.3638,-1.3689,-1.3594,-1.3645,-1.3697,-1.3697,-1.3675,-1.3792,-1.4026,-1.4115,-1.421,-1.4487,-1.4643,-1.4673,0.7002,0.0,0.6757,0.6638,0.0,0.6411,0.6387,0.6387,0.6387,0.6387,0.6387,0.6387,0.6387,0.6387,0.6387,0.6387,0.6387,0.6387,0.6255,0.5953,0.4963,0.4142,0.3418,0.1576,0.0502,0.0134,-0.0672,-0.1122,-0.1256,-0.1256,-0.1294,-0.1412,-0.1384,-0.1361,-0.1345,-0.1302,-0.1312,-0.1297,-0.1297,-0.1289,-0.1234,-0.1204,-0.1167,-0.1087,0.0,0.0,0.0,0.0,0.0,0.0,0.0,0.0,0.0,0.0,0.0,-0.1934,-0.2303,-0.2478,-0.2413,-0.2684,-0.2908,-0.3043,-0.3363,-0.3783,-0.4298,-0.5302,-0.6198,-0.6892,-0.7037,-0.7123,-0.7241,-0.7253,-0.729,-0.7342,-0.7354,-0.7391,-0.7506,-0.7676,-0.7795,-0.7872,-0.8136,-0.8479,-0.8675,-0.9089,-0.9359,-0.9582,-0.9771,-0.9884,-0.9927,-1.0318,-1.0669,-1.1012,-1.1506,-1.2097,-1.2523,-1.2826,-1.32,-1.3382,-1.3492,-1.3492,-1.3492,-1.3492,-1.3492,-1.3492,-1.3492,-1.3492,-1.3492,-1.3492,-1.355,-1.3697,-1.374,-1.3784,-1.402,-1.4238,-1.4452,0.7144,0.6975,0.6853,0.6733,0.6611,0.6486,0.6387,0.6387,0.0,0.0,0.0,0.6387,0.6387,0.6387,0.6387,0.6387,0.6387,0.6387,0.6387,0.6329,0.53,0.4711,0.4417,0.2429,0.1282,0.085,-0.0045,-0.0672,-0.1031,-0.1076,-0.1166,-0.1343,-0.1361,-0.1384,-0.1372,-0.1326,-0.1328,-0.1298,-0.1297,-0.1297,-0.1296,-0.1228,-0.1151,-0.1103,-0.1092,-0.1084,-0.104,-0.1028,-0.0984,-0.0902,-0.0929,-0.1049,-0.1319,-0.1371,-0.1532,-0.1814,-0.2199,-0.2456,-0.2425,-0.2808,-0.308,-0.3156,-0.3712,-0.4375,-0.5125,-0.5698,-0.6383,-0.7182,-0.7269,-0.7292,-0.7468,-0.7518,-0.7518,-0.7518,-0.7518,-0.7518,-0.7518,-0.7518,-0.7518,-0.7561,-0.7829,-0.803,-0.814,-0.8675,-0.9132,-0.9246,-0.9506,-0.9841,-0.9884,-0.9933,-1.0127,-1.0541,-1.0854,-1.1192,-1.2003,-1.2526,-1.2783,-1.3193,-1.3382,-1.3492,-1.3492,-1.3492,-1.3492,-1.3492,-1.3492,-1.3492,-1.3492,-1.3492,-1.3492,-1.3492,-1.3492,-1.3492,-1.3536,-1.3909,-1.421,0.7141,0.6978,0.6853,0.6733,0.6608,0.6438,0.6387,0.6387,0.6387,0.6387,0.6387,0.6387,0.6387,0.6387,0.6387,0.6387,0.6387,0.6387,0.6387,0.0,0.6216,0.5806,0.5237,0.4265,0.3061,0.1659,0.085,0.0045,-0.0717,-0.0987,-0.1121,-0.1163,-0.1317,-0.1365,-0.1318,-0.1307,-0.1328,-0.1298,-0.1297,-0.1297,-0.1296,-0.1228,-0.1208,-0.1198,-0.1112,-0.1104,-0.1099,-0.1067,-0.1054,-0.0991,-0.0989,-0.1021,-0.1052,-0.1274,-0.1411,-0.151,-0.218,-0.2564,-0.2567,-0.295,-0.3262,-0.3424,-0.3539,-0.4126,-0.5353,-0.5939,-0.6578,-0.7385,-0.7439,-0.7456,-0.7518,-0.7518,-0.7518,-0.7518,-0.7518,-0.7518,-0.7518,-0.7518,-0.7518,-0.7518,-0.7561,-0.7753,-0.8025,-0.8217,-0.8484,-0.8742,-0.9165,-0.9511,-0.9771,-0.9884,-0.9922,-1.0073,-1.0475,-1.085,-1.1223,-1.1966,-1.2489,-1.2709,-1.3163,-1.3455,-1.3492,-1.3492,-1.3492,-1.3492,-1.3492,-1.3492,-1.3492,-1.3492,-1.3492,-1.3492,-1.3492,-1.3492,-1.3492,-1.3616,-1.3689,0.718,0.7056,0.688,0.6768,0.6703,0.6465,0.6387,0.6387,0.6387,0.6387,0.6387,0.6387,0.6387,0.6387,0.6387,0.6387,0.6387,0.6387,0.6387,0.6387,0.6387,0.6199,0.5802,0.4921,0.4072,0.3229,0.1754,0.0806,0.0269,-0.0403,-0.0852,-0.1076,-0.1287,-0.1393,-0.1352,-0.1335,-0.1312,-0.1323,-0.1305,-0.1297,-0.1296,-0.1282,-0.1229,-0.1175,-0.1183,-0.1156,-0.1161,-0.1109,-0.1087,-0.1057,-0.1009,-0.1002,-0.1001,-0.1115,-0.1209,-0.1258,-0.1735,-0.2193,-0.243,-0.3013,-0.343,-0.3556,-0.3569,-0.4126,-0.5445,-0.5759,-0.636,-0.7357,-0.7518,-0.7518,-0.7518,-0.7518,-0.7518,-0.7518,-0.7518,-0.7518,-0.7518,-0.7518,-0.7518,-0.7518,-0.7518,-0.7561,-0.7753,-0.7944,-0.814,-0.8403,-0.8861,-0.9359,-0.9549,-0.9771,-0.9884,-0.9922,-1.0137,-1.0443,-1.0738,-1.1217,-1.1855,-1.2445,-1.282,-1.3119,-1.3375,-1.3492,-1.3492,-1.3492,-1.3492,-1.3492,-1.3492,-1.3492,-1.3492,-1.3492,-1.3492,-1.3492,-1.3492,-1.3492,-1.3492,0.721,0.7191,0.6929,0.6812,0.6741,0.6478,0.6387,0.6387,0.6387,0.6387,0.6387,0.6387,0.6387,0.6387,0.6387,0.6387,0.6387,0.6387,0.6387,0.6387,0.6387,0.6377,0.6214,0.5375,0.4844,0.4378,0.2804,0.1748,0.1119,0.0358,-0.0403,-0.1031,-0.1256,-0.1375,-0.1391,-0.132,-0.1333,-0.1303,-0.1312,-0.1297,-0.1297,-0.1297,-0.1284,-0.1224,-0.1221,-0.1208,-0.1178,-0.1154,-0.1127,-0.1132,-0.1076,-0.1063,-0.103,-0.1064,-0.1073,-0.1162,-0.1439,-0.1867,-0.2401,-0.299,-0.3426,-0.358,-0.3586,-0.4118,-0.5217,-0.5506,-0.6125,-0.7249,-0.7518,-0.7518,-0.7518,-0.7518,-0.7518,-0.7518,-0.7518,-0.7518,-0.7518,-0.7518,-0.7518,-0.7518,-0.7518,-0.7518,-0.7561,-0.7757,-0.7987,-0.8178,-0.8637,-0.9022,-0.917,-0.9506,-0.9733,-0.9771,-0.9809,-1.0067,-1.055,-1.0775,-1.126,-1.2231,-1.2526,-1.2893,-1.3302,-1.3492,-1.3492,-1.3492,-1.3492,-1.3492,-1.3492,-1.3492,-1.3492,-1.3492,-1.3492,-1.3492,-1.3492,-1.3492,-1.3492,0.721,0.7193,0.7016,0.6839,0.6632,0.6443,0.6389,0.6387,0.6387,0.6387,0.6387,0.6387,0.6387,0.6387,0.6387,0.6387,0.6387,0.6387,0.6387,0.6387,0.6387,0.638,0.632,0.605,0.5457,0.4612,0.4117,0.3048,0.1569,0.1119,0.0269,-0.0942,-0.1122,-0.1243,-0.1391,-0.132,-0.1292,-0.1303,-0.1312,-0.1297,-0.1297,-0.1297,-0.1295,-0.1292,-0.1292,-0.1277,-0.1209,-0.1205,-0.1189,-0.1198,-0.119,-0.1189,-0.1189,-0.1153,-0.119,-0.1192,-0.1519,-0.2031,-0.2723,-0.2909,-0.3134,-0.3539,-0.3592,-0.3935,-0.4722,-0.5279,-0.6125,-0.7173,-0.748,-0.7518,-0.7518,-0.7518,-0.7518,-0.7518,-0.7518,-0.7518,-0.7518,-0.7518,-0.7518,-0.7518,-0.7518,-0.7518,-0.7518,-0.7557,-0.7714,-0.8025,-0.8217,-0.8446,-0.8746,-0.9089,-0.9397,-0.9435,-0.962,-0.9879,-1.0105,-1.0475,-1.0999,-1.1669,-1.2231,-1.2709,-1.3156,-1.3419,-1.3492,-1.3492,-1.3492,-1.3492,-1.3492,-1.3492,-1.3492,-1.3492,-1.3492,-1.3492,-1.3492,-1.3492,-1.3492,0.721,0.7199,0.7035,0.6844,0.6624,0.6564,0.6502,0.6389,0.6387,0.6387,0.6387,0.6387,0.6387,0.6387,0.6387,0.6387,0.6387,0.6387,0.6387,0.6387,0.6387,0.6363,0.6358,0.6249,0.5937,0.5396,0.4739,0.3985,0.3005,0.1744,0.0492,-0.0583,-0.0942,-0.1116,-0.1237,-0.1285,-0.1299,-0.1328,-0.1321,-0.1297,-0.1297,-0.1297,-0.1297,-0.1297,-0.1297,-0.1291,-0.1239,-0.1221,-0.1206,-0.1193,-0.1176,-0.1203,-0.1203,-0.1203,-0.1203,-0.1203,-0.1554,-0.1903,-0.2238,-0.2492,-0.2868,-0.3284,-0.3322,-0.3687,-0.4577,-0.4932,-0.5589,-0.6753,-0.7292,-0.7518,-0.7518,-0.7518,-0.7518,-0.7518,-0.7518,-0.7518,-0.7518,-0.7518,-0.7518,-0.7518,-0.7518,-0.7518,-0.7518,-0.7518,-0.7557,-0.7753,-0.7944,-0.8178,-0.8365,-0.8703,-0.9013,-0.9284,-0.9473,-0.9663,-0.9846,-1.0067,-1.055,-1.1037,-1.1372,-1.1818,-1.2716,-1.2973,-1.3046,-1.3382,-1.3492,-1.3492,-1.3492,-1.3492,-1.3492,-1.3492,-1.3492,-1.3492,-1.3492,-1.3492,-1.3492,0.721,0.7193,0.7087,0.6864,0.6671,0.6632,0.6551,0.6395,0.6387,0.6387,0.6387,0.6387,0.6387,0.6387,0.6387,0.6387,0.6387,0.6387,0.6387,0.6387,0.6387,0.6387,0.6376,0.632,0.6203,0.5989,0.5305,0.4699,0.4172,0.2551,0.1074,0.009,-0.0314,-0.0717,-0.1072,-0.1168,-0.1275,-0.1312,-0.1301,-0.131,-0.1309,-0.13,-0.1297,-0.1297,-0.1297,-0.1297,-0.1296,-0.1274,-0.1224,-0.1224,-0.124,-0.1228,-0.1229,-0.1228,-0.1229,-0.123,-0.1477,-0.1722,-0.1837,-0.2137,-0.251,-0.2904,-0.3022,-0.3413,-0.4116,-0.4506,-0.5087,-0.5941,-0.6788,-0.7292,-0.7484,-0.7518,-0.7518,-0.7518,-0.7518,-0.7518,-0.7518,-0.7518,-0.7518,-0.7518,-0.7518,-0.7518,-0.7518,-0.7518,-0.7518,-0.7557,-0.7757,-0.7949,-0.7987,-0.8289,-0.8632,-0.8941,-0.9056,-0.9354,-0.9771,-0.9922,-1.018,-1.0594,-1.0887,-1.126,-1.2194,-1.2415,-1.2636,-1.3046,-1.3309,-1.3499,-1.3492,-1.3492,-1.3492,-1.3492,-1.3492,-1.3492,-1.3492,-1.3492,-1.3492,0.721,0.7193,0.7035,0.6915,0.6787,0.6673,0.6556,0.64,0.6389,0.6387,0.6387,0.6387,0.6387,0.6387,0.6387,0.6387,0.6387,0.6387,0.6387,0.6387,0.6387,0.6387,0.6431,0.6323,0.6206,0.6083,0.5885,0.5256,0.4259,0.3314,0.2238,0.1118,0.0939,0.0269,-0.0805,-0.1009,-0.1173,-0.1335,-0.1329,-0.1301,-0.1297,-0.1312,-0.1299,-0.13,-0.1297,-0.1297,-0.1297,-0.1295,-0.1293,-0.1293,-0.1289,-0.1289,-0.1291,-0.129,-0.1288,-0.129,-0.1331,-0.1488,-0.1799,-0.188,-0.2117,-0.251,-0.2824,-0.31,-0.3335,-0.4084,-0.4677,-0.482,-0.6009,-0.6867,-0.7366,-0.7529,-0.7555,-0.7559,-0.7543,-0.7547,-0.7539,-0.7559,-0.7522,-0.7504,-0.7529,-0.7545,-0.7551,-0.7518,-0.7508,-0.7551,-0.7535,-0.7573,-0.7642,-0.791,-0.8158,-0.8293,-0.8556,-0.897,-0.9695,-0.9809,-1.0105,-1.0481,-1.0669,-1.0925,-1.1595,-1.2114,-1.2409,-1.2709,-1.3083,-1.3309,-1.3455,-1.3492,-1.3492,-1.3492,-1.3492,-1.3492,-1.3492,-1.3492,-1.3492,0.7324,0.7207,0.7166,0.7027,0.691,0.679,0.6668,0.6548,0.6419,0.6387,0.6387,0.6387,0.6387,0.6387,0.6387,0.6387,0.6387,0.6387,0.6387,0.6387,0.6387,0.6387,0.6381,0.6341,0.6271,0.61,0.604,0.5455,0.4399,0.3942,0.3269,0.2283,0.1476,0.0716,0.0045,-0.0659,-0.1131,-0.1386,-0.135,-0.1331,-0.1329,-0.1302,-0.1326,-0.1325,-0.1307,-0.1297,-0.1297,-0.1297,-0.1297,-0.1297,-0.1297,-0.1297,-0.1297,-0.1297,-0.1297,-0.1297,-0.1297,-0.1375,-0.1492,-0.1532,-0.1688,-0.2078,-0.2234,-0.2589,-0.303,-0.3536,-0.4046,-0.4771,-0.5603,-0.6451,-0.7079,-0.749,-0.7703,-0.7797,-0.7821,-0.7805,-0.7797,-0.7771,-0.7739,-0.7789,-0.7821,-0.7825,-0.7801,-0.7821,-0.7776,-0.7735,-0.7752,-0.7707,-0.7596,-0.7733,-0.7982,-0.8098,-0.8217,-0.8518,-0.9008,-0.9354,-0.9657,-0.9997,-1.0255,-1.0519,-1.1037,-1.1298,-1.1558,-1.204,-1.2526,-1.2936,-1.2973,-1.3309,-1.3346,-1.3492,-1.3492,-1.3492,-1.3492,-1.3492,-1.3492,0.7493,0.7324,0.7213,0.7144,0.6978,0.6855,0.673,0.6611,0.6441,0.6387,0.6387,0.6387,0.6387,0.6387,0.6387,0.6387,0.6387,0.6387,0.6387,0.6387,0.6387,0.6387,0.6387,0.6387,0.6287,0.6154,0.6056,0.555,0.4853,0.4746,0.4255,0.3358,0.2506,0.1834,0.1249,0.0353,-0.0307,-0.0699,-0.0903,-0.1064,-0.1273,-0.1333,-0.1318,-0.1313,-0.1328,-0.1307,-0.1298,-0.1297,-0.1297,-0.1297,-0.1297,-0.1297,-0.1297,-0.1297,-0.1297,-0.1297,-0.1297,-0.1297,-0.1297,-0.1297,-0.1413,-0.1686,-0.1844,-0.2162,-0.2698,-0.2938,-0.3454,-0.4267,-0.4979,-0.5663,-0.6402,-0.7132,-0.771,-0.7926,-0.8012,-0.8012,-0.8004,-0.7906,-0.7898,-0.7963,-0.7988,-0.8,-0.8012,-0.8004,-0.7951,-0.7849,-0.7947,-0.789,-0.7736,-0.7784,-0.79,-0.8008,-0.8022,-0.8172,-0.8473,-0.8756,-0.9175,-0.9511,-0.9733,-1.003,-1.0331,-1.055,-1.085,-1.1335,-1.1818,-1.2231,-1.2636,-1.2973,-1.3193,-1.3375,-1.3492,-1.3492,-1.3492,-1.3492,-1.3492,0.7607,0.7551,0.7324,0.715,0.7046,0.6861,0.6733,0.6624,0.6491,0.6387,0.6387,0.6387,0.6387,0.6387,0.6387,0.6387,0.6387,0.6387,0.6387,0.6387,0.6387,0.6387,0.6387,0.6387,0.6374,0.6238,0.6021,0.581,0.562,0.5515,0.5104,0.4431,0.4119,0.34,0.2502,0.1874,0.1206,0.0444,-0.0044,-0.0565,-0.1257,-0.1192,-0.1221,-0.1261,-0.1278,-0.1331,-0.1303,-0.1299,-0.1297,-0.1297,-0.1297,-0.1297,-0.1297,-0.1297,-0.1297,-0.1297,-0.1297,-0.1297,-0.1297,-0.1299,-0.1303,-0.1421,-0.1652,-0.1873,-0.2106,-0.2408,-0.2845,-0.339,-0.4002,-0.4582,-0.5352,-0.6435,-0.7366,-0.7899,-0.7994,-0.8081,-0.8061,-0.8032,-0.8016,-0.804,-0.8061,-0.8032,-0.8028,-0.8077,-0.8073,-0.804,-0.8057,-0.8048,-0.7959,-0.7975,-0.7975,-0.7853,-0.7875,-0.8036,-0.8074,-0.8153,-0.8613,-0.9032,-0.9208,-0.943,-0.9765,-1.003,-1.0293,-1.07,-1.126,-1.1706,-1.2224,-1.2562,-1.2863,-1.3046,-1.3229,-1.3411,-1.3492,-1.3492,-1.3492,0.81,0.7826,0.7604,0.7473,0.7356,0.6995,0.6777,0.6722,0.6529,0.6389,0.6387,0.6387,0.6387,0.6387,0.6387,0.6387,0.6387,0.6387,0.6387,0.6387,0.6387,0.6387,0.6387,0.6387,0.638,0.6246,0.6021,0.5888,0.5844,0.5773,0.5508,0.5196,0.4614,0.4026,0.3484,0.268,0.1878,0.1163,0.0934,0.0576,0.0044,-0.0391,-0.0602,-0.0687,-0.1053,-0.1328,-0.1319,-0.1319,-0.1298,-0.1298,-0.1297,-0.1297,-0.1297,-0.1297,-0.1297,-0.1297,-0.1297,-0.1297,-0.13,-0.1317,-0.1329,-0.1333,-0.1428,-0.1651,-0.1915,-0.215,-0.243,-0.2927,-0.3826,-0.4577,-0.4949,-0.5882,-0.686,-0.7606,-0.8131,-0.8373,-0.8365,-0.8377,-0.8371,-0.8243,-0.8312,-0.8385,-0.8433,-0.8385,-0.8316,-0.8231,-0.8292,-0.8308,-0.8105,-0.8146,-0.8126,-0.7975,-0.7947,-0.7943,-0.8001,-0.8054,-0.8282,-0.8594,-0.8765,-0.898,-0.9279,-0.9501,-0.9765,-1.0105,-1.0663,-1.1186,-1.1706,-1.2077,-1.2305,-1.2636,-1.282,-1.3083,-1.3375,-1.3492,-1.3492,0.8374,0.8156,0.7881,0.7771,0.7686,0.7169,0.6959,0.6868,0.6543,0.6389,0.6387,0.6387,0.6387,0.6387,0.6387,0.6387,0.6387,0.6387,0.6387,0.6387,0.6387,0.6387,0.6387,0.6387,0.638,0.6263,0.6161,0.6015,0.5964,0.5858,0.5753,0.5615,0.5124,0.4746,0.4514,0.3842,0.3084,0.2413,0.2012,0.1522,0.0938,0.0398,-0.0044,-0.0351,-0.0732,-0.1066,-0.1275,-0.1316,-0.1331,-0.1331,-0.1331,-0.1326,-0.1316,-0.1314,-0.1314,-0.1314,-0.1314,-0.1319,-0.1331,-0.131,-0.1319,-0.1323,-0.1296,-0.1437,-0.1702,-0.1814,-0.2045,-0.2598,-0.3198,-0.3849,-0.4293,-0.5092,-0.5983,-0.665,-0.757,-0.8252,-0.848,-0.8616,-0.8567,-0.8438,-0.8487,-0.86,-0.8616,-0.8608,-0.8571,-0.8477,-0.8531,-0.8528,-0.83,-0.8325,-0.8251,-0.8178,-0.8126,-0.8073,-0.8008,-0.8,-0.799,-0.8181,-0.8362,-0.8602,-0.8856,-0.9008,-0.9236,-0.9506,-0.9992,-1.0519,-1.1037,-1.1298,-1.1521,-1.1935,-1.2342,-1.2746,-1.3083,-1.3419,-1.3455,0.854,0.8488,0.8156,0.8045,0.7953,0.7434,0.722,0.7127,0.6642,0.6439,0.6439,0.6387,0.6387,0.6387,0.6387,0.6387,0.6387,0.6387,0.6387,0.6387,0.6387,0.6387,0.6387,0.6387,0.6385,0.6301,0.6257,0.6195,0.6142,0.5975,0.5907,0.5837,0.5711,0.5694,0.5421,0.5191,0.4561,0.3798,0.3042,0.2283,0.1612,0.103,0.0492,-0.0134,-0.0308,-0.0653,-0.1128,-0.1281,-0.1307,-0.1305,-0.1298,-0.1328,-0.131,-0.1305,-0.1305,-0.1305,-0.1305,-0.1318,-0.1297,-0.1305,-0.1307,-0.1308,-0.1315,-0.1321,-0.1433,-0.1528,-0.1671,-0.2097,-0.2331,-0.269,-0.3449,-0.4206,-0.483,-0.5505,-0.683,-0.7804,-0.848,-0.8616,-0.8596,-0.86,-0.8612,-0.8616,-0.8616,-0.8616,-0.8608,-0.86,-0.86,-0.8575,-0.8567,-0.8526,-0.8502,-0.8394,-0.8312,-0.8276,-0.8215,-0.8101,-0.8086,-0.8015,-0.8155,-0.8247,-0.8435,-0.8518,-0.8784,-0.9089,-0.9316,-0.9846,-1.0218,-1.0406,-1.0812,-1.126,-1.1781,-1.2335,-1.2783,-1.3083,-1.3346,0.8768,0.8768,0.8488,0.8374,0.8281,0.7758,0.7489,0.7401,0.6952,0.6692,0.6642,0.6489,0.6437,0.6387,0.6387,0.6387,0.6387,0.6387,0.6387,0.6387,0.6387,0.6387,0.6387,0.6387,0.6371,0.638,0.6312,0.63,0.6262,0.6097,0.5996,0.5904,0.5874,0.5812,0.5704,0.5555,0.5235,0.4739,0.4162,0.3537,0.2913,0.2017,0.1436,0.1165,0.0223,-0.0356,-0.0711,-0.1151,-0.1346,-0.1309,-0.1306,-0.1304,-0.1296,-0.1335,-0.1294,-0.1294,-0.1294,-0.1297,-0.1308,-0.1326,-0.1378,-0.1381,-0.1352,-0.137,-0.1377,-0.1423,-0.1473,-0.166,-0.193,-0.2289,-0.2647,-0.3361,-0.4255,-0.5369,-0.652,-0.7665,-0.834,-0.8616,-0.8616,-0.8616,-0.8616,-0.8616,-0.8616,-0.8616,-0.8616,-0.8616,-0.8616,-0.8616,-0.8616,-0.8612,-0.8563,-0.8575,-0.8531,-0.8514,-0.8461,-0.8296,-0.8208,-0.8049,-0.7999,-0.7923,-0.8013,-0.8072,-0.8408,-0.8746,-0.8822,-0.9236,-0.9311,-0.9425,-0.9949,-1.055,-1.0999,-1.1484,-1.2268,-1.2753,-1.3053,0.8937,0.8881,0.8712,0.8654,0.8617,0.8028,0.7802,0.7697,0.7211,0.6892,0.6792,0.6642,0.6489,0.6387,0.6387,0.6387,0.6387,0.6387,0.6387,0.6387,0.6387,0.6387,0.6387,0.6387,0.6387,0.6381,0.6369,0.6344,0.632,0.6219,0.6124,0.6053,0.5953,0.5869,0.5812,0.5707,0.5599,0.5238,0.4835,0.4389,0.3855,0.3048,0.2288,0.1839,0.0897,0.0314,-0.0314,-0.1031,-0.1374,-0.1348,-0.1341,-0.1337,-0.1324,-0.1366,-0.1323,-0.1323,-0.1323,-0.1327,-0.1342,-0.1401,-0.1408,-0.1411,-0.1383,-0.1389,-0.139,-0.1391,-0.1391,-0.148,-0.1705,-0.193,-0.2288,-0.2869,-0.3807,-0.4875,-0.5805,-0.6823,-0.7937,-0.8116,-0.8296,-0.8476,-0.8616,-0.8616,-0.8616,-0.8616,-0.8616,-0.8616,-0.8616,-0.8616,-0.8616,-0.8616,-0.8616,-0.8616,-0.8616,-0.858,-0.8563,-0.8473,-0.8371,-0.8174,-0.7939,-0.7841,-0.7807,-0.7824,-0.7991,-0.8289,-0.836,-0.8475,-0.8627,-0.8818,-0.9122,-0.9685,-1.0137,-1.0663,-1.1372,-1.212,-1.2452,0.8937,0.8937,0.8937,0.8871,0.8811,0.8345,0.8105,0.7991,0.7503,0.7141,0.6945,0.6845,0.6642,0.6439,0.6437,0.6387,0.6387,0.6387,0.6387,0.6387,0.6387,0.6387,0.6387,0.6387,0.6387,0.6384,0.6387,0.6379,0.6399,0.632,0.6325,0.6254,0.604,0.5947,0.5907,0.5775,0.5715,0.5623,0.5154,0.4743,0.4342,0.3719,0.3005,0.2288,0.175,0.0942,-0.0045,-0.0852,-0.1253,-0.13,-0.1346,-0.1418,-0.1397,-0.1395,-0.1395,-0.1395,-0.1396,-0.1405,-0.1381,-0.1384,-0.1388,-0.1388,-0.1388,-0.1391,-0.1391,-0.1391,-0.1391,-0.1391,-0.1391,-0.1705,-0.2153,-0.2601,-0.3224,-0.4115,-0.4469,-0.5312,-0.6643,-0.7353,-0.7757,-0.8384,-0.8524,-0.8616,-0.8616,-0.8616,-0.8616,-0.8616,-0.8616,-0.8616,-0.8616,-0.8616,-0.8616,-0.8616,-0.8616,-0.8616,-0.8608,-0.8596,-0.8502,-0.8371,-0.802,-0.7854,-0.7805,-0.7824,-0.7773,-0.7868,-0.7983,-0.8131,-0.8322,-0.8475,-0.8627,-0.8856,-0.9382,-0.9798,-1.0288,-1.1037,-1.1558,0.8937,0.8937,0.8937,0.8814,0.874,0.8507,0.8369,0.8203,0.7724,0.7494,0.7344,0.6992,0.6795,0.6692,0.6539,0.6387,0.6387,0.6387,0.6387,0.6387,0.6387,0.6387,0.6387,0.6387,0.6387,0.6387,0.6387,0.6387,0.6373,0.6401,0.6352,0.6314,0.6257,0.614,0.6037,0.5931,0.5866,0.5759,0.533,0.5027,0.471,0.4084,0.3502,0.305,0.2288,0.1391,0.0538,-0.0224,-0.0583,-0.0762,-0.1076,-0.1341,-0.1379,-0.1423,-0.1422,-0.1422,-0.1423,-0.1383,-0.1389,-0.1391,-0.1391,-0.1391,-0.1391,-0.1391,-0.1391,-0.1391,-0.1391,-0.1391,-0.1436,-0.1615,-0.2064,-0.2288,-0.2689,-0.3135,-0.3358,-0.3669,-0.4736,-0.6334,-0.7309,-0.7713,-0.8208,-0.8616,-0.8568,-0.8568,-0.8568,-0.8616,-0.8616,-0.8616,-0.8616,-0.8616,-0.8616,-0.8616,-0.8616,-0.8616,-0.8616,-0.8604,-0.8539,-0.8445,-0.818,-0.7918,-0.7866,-0.78,-0.7748,-0.7696,-0.7599,-0.7787,-0.8016,-0.8097,-0.825,-0.8441,-0.8665,-0.9117,-0.9609,-1.0212,-1.0775,0.8937,0.8937,0.8937,0.8852,0.8699,0.8547,0.8401,0.8258,0.7959,0.7746,0.7547,0.7294,0.7045,0.6795,0.6642,0.6539,0.6437,0.6387,0.6387,0.6387,0.6387,0.6387,0.6387,0.6387,0.6387,0.6387,0.6387,0.6387,0.6387,0.6384,0.6354,0.6344,0.6301,0.623,0.6213,0.6048,0.5994,0.5983,0.5698,0.5413,0.5003,0.4634,0.3974,0.3504,0.2467,0.157,0.1211,0.0493,0.0,-0.0404,-0.0762,-0.1076,-0.1346,-0.1391,-0.1391,-0.1391,-0.1391,-0.1391,-0.1391,-0.1391,-0.1391,-0.1391,-0.1391,-0.1391,-0.1391,-0.1391,-0.1391,-0.1391,-0.1436,-0.157,-0.1795,-0.184,-0.2063,-0.2422,-0.2599,-0.2825,-0.3582,-0.5048,-0.6331,-0.6732,-0.7448,-0.7893,-0.8116,-0.8208,-0.8524,-0.8524,-0.8568,-0.8568,-0.8616,-0.8616,-0.8616,-0.8616,-0.8616,-0.8616,-0.8616,-0.8592,-0.8547,-0.8449,-0.829,-0.8073,-0.7975,-0.7845,-0.7747,-0.7653,-0.7559,-0.7522,-0.771,-0.7791,-0.7872,-0.7983,-0.8208,-0.8551,-0.8932,-0.9463,-1.0024,0.8937,0.8881,0.8858,0.8815,0.8665,0.8509,0.836,0.8218,0.8099,0.7842,0.7646,0.7643,0.7294,0.6995,0.6795,0.6642,0.6439,0.6387,0.6387,0.6387,0.6387,0.6387,0.6387,0.6387,0.6387,0.6387,0.6387,0.6387,0.6387,0.6387,0.6381,0.6365,0.635,0.6306,0.6268,0.6181,0.6113,0.6108,0.602,0.5831,0.5439,0.5194,0.4603,0.3651,0.2914,0.2224,0.1902,0.131,0.0631,0.0,-0.0269,-0.0673,-0.1076,-0.1391,-0.1391,-0.1391,-0.1391,-0.1391,-0.1391,-0.1391,-0.1391,-0.1391,-0.1391,-0.1391,-0.1391,-0.1391,-0.1391,-0.1391,-0.1436,-0.1436,-0.1391,-0.148,-0.166,-0.1974,-0.2064,-0.2287,-0.2732,-0.3623,-0.4512,-0.5575,-0.6467,-0.7044,-0.7404,-0.7632,-0.8076,-0.8388,-0.8432,-0.8524,-0.8524,-0.8568,-0.8568,-0.8616,-0.8616,-0.8616,-0.8616,-0.8612,-0.8563,-0.851,-0.8384,-0.8239,-0.8122,-0.8036,-0.7902,-0.7702,-0.76,-0.7575,-0.7539,-0.7599,-0.7638,-0.7599,-0.7753,-0.8131,-0.8441,-0.8751,-0.9349,0.8937,0.8927,0.8801,0.8662,0.8513,0.8367,0.8228,0.8092,0.8002,0.7988,0.7889,0.7696,0.7547,0.7344,0.6992,0.6692,0.6489,0.6437,0.6387,0.6387,0.6387,0.6387,0.6387,0.6387,0.6387,0.6387,0.6387,0.6387,0.6387,0.6387,0.6387,0.6431,0.6412,0.6399,0.6363,0.6301,0.6236,0.6225,0.6165,0.6008,0.5879,0.5477,0.4949,0.4027,0.351,0.3166,0.272,0.2115,0.1599,0.1349,0.0269,-0.0314,-0.0676,-0.1081,-0.1305,-0.1391,-0.1391,-0.1391,-0.1391,-0.1392,-0.1391,-0.1391,-0.1396,-0.1395,-0.1395,-0.1395,-0.1401,-0.1399,-0.1397,-0.1394,-0.1391,-0.1395,-0.1436,-0.1526,-0.1615,-0.1614,-0.1839,-0.2376,-0.3269,-0.4425,-0.5356,-0.6154,-0.647,-0.6874,-0.7319,-0.7584,-0.7672,-0.8028,-0.8344,-0.8432,-0.8524,-0.8568,-0.8616,-0.8616,-0.8616,-0.8616,-0.8596,-0.8592,-0.851,-0.8449,-0.8312,-0.8268,-0.8159,-0.7926,-0.7743,-0.7673,-0.7624,-0.7559,-0.7518,-0.7561,-0.7638,-0.7753,-0.8059,-0.8403,-0.8861,0.8937,0.8868,0.8774,0.8625,0.8472,0.833,0.818,0.8002,0.7988,0.7988,0.7992,0.7892,0.7696,0.7547,0.7347,0.6992,0.6639,0.6437,0.6437,0.6387,0.6387,0.6387,0.6387,0.6387,0.6387,0.6387,0.6387,0.6387,0.6387,0.6387,0.6387,0.6387,0.6387,0.6387,0.6379,0.6336,0.6355,0.6336,0.6293,0.623,0.6128,0.5704,0.5095,0.4761,0.4191,0.374,0.3437,0.2864,0.2291,0.1856,0.125,0.0463,-0.0139,-0.0646,-0.1009,-0.1309,-0.1393,-0.1392,-0.1395,-0.1402,-0.1459,-0.1461,-0.147,-0.1435,-0.1436,-0.1438,-0.1432,-0.1434,-0.1435,-0.1475,-0.1462,-0.1459,-0.1451,-0.1393,-0.1391,-0.1392,-0.1436,-0.166,-0.242,-0.3403,-0.438,-0.5134,-0.5494,-0.5941,-0.6517,-0.6782,-0.6915,-0.7404,-0.794,-0.8028,-0.8076,-0.8432,-0.8524,-0.8616,-0.8616,-0.8616,-0.8616,-0.8616,-0.8604,-0.8547,-0.8518,-0.8457,-0.83,-0.8122,-0.8004,-0.7824,-0.7698,-0.7629,-0.7575,-0.7522,-0.7565,-0.7642,-0.7834,-0.8097,-0.8574,0.8937,0.8868,0.8737,0.8594,0.8465,0.8296,0.8153,0.8005,0.7988,0.7988,0.7988,0.7988,0.7892,0.7693,0.7547,0.7294,0.6795,0.6539,0.6489,0.6387,0.6387,0.6387,0.6387,0.6387,0.6387,0.6387,0.6387,0.6387,0.6387,0.6387,0.6387,0.6387,0.6387,0.6387,0.6381,0.6376,0.6387,0.6387,0.6384,0.6382,0.62,0.5876,0.5535,0.5439,0.462,0.4188,0.3832,0.3448,0.291,0.2423,0.1946,0.1425,0.0381,-0.0095,-0.0563,-0.1097,-0.1318,-0.1408,-0.1415,-0.1474,-0.1489,-0.1491,-0.1511,-0.1474,-0.1475,-0.1469,-0.1473,-0.1478,-0.1475,-0.1513,-0.1493,-0.149,-0.1475,-0.1455,-0.1446,-0.1442,-0.1393,-0.1525,-0.1615,-0.2553,-0.3489,-0.4115,-0.4516,-0.5053,-0.563,-0.6077,-0.6254,-0.6605,-0.7095,-0.7272,-0.7448,-0.8072,-0.8384,-0.8568,-0.8616,-0.8616,-0.8616,-0.8616,-0.8616,-0.8588,-0.8588,-0.8584,-0.8461,-0.8296,-0.8126,-0.7988,-0.7849,-0.7718,-0.7622,-0.7573,-0.7521,-0.7675,-0.7957,-0.8155,-0.8456,0.8937,0.8858,0.8628,0.8496,0.8445,0.8191,0.8015,0.7992,0.7988,0.7988,0.7988,0.7988,0.7988,0.7892,0.7693,0.7294,0.6945,0.6745,0.6589,0.6437,0.6387,0.6387,0.6387,0.6387,0.6387,0.6387,0.6387,0.6387,0.6387,0.6387,0.6387,0.6387,0.6387,0.6387,0.6387,0.6387,0.6387,0.6387,0.6387,0.6376,0.6357,0.6283,0.5976,0.5681,0.5325,0.4897,0.4206,0.3855,0.3448,0.297,0.2339,0.1953,0.1523,0.0381,-0.019,-0.0616,-0.0994,-0.1515,-0.1464,-0.1516,-0.1521,-0.1521,-0.153,-0.148,-0.1488,-0.1489,-0.1488,-0.1478,-0.1482,-0.1482,-0.1524,-0.1473,-0.1504,-0.1486,-0.1471,-0.1458,-0.1446,-0.1391,-0.1525,-0.1749,-0.2688,-0.3181,-0.3628,-0.4164,-0.4743,-0.5191,-0.5591,-0.5944,-0.6343,-0.6605,-0.6827,-0.7448,-0.8025,-0.8252,-0.8432,-0.848,-0.8568,-0.8568,-0.8612,-0.8616,-0.8616,-0.8616,-0.8612,-0.8482,-0.8264,-0.8142,-0.8048,-0.7918,-0.7764,-0.7683,-0.7659,-0.7907,-0.8251,-0.8347,-0.8347,0.8937,0.8854,0.8608,0.8535,0.8445,0.8113,0.7988,0.7988,0.7988,0.7988,0.7988,0.7988,0.7988,0.7942,0.7743,0.7394,0.7092,0.6892,0.6642,0.6439,0.6387,0.6387,0.6387,0.6387,0.6387,0.6387,0.6387,0.6387,0.6387,0.6387,0.6387,0.6387,0.6387,0.6387,0.6387,0.6387,0.6387,0.6387,0.6387,0.6387,0.6387,0.6387,0.6287,0.6034,0.5737,0.5307,0.4885,0.418,0.3922,0.3495,0.3003,0.2412,0.2018,0.1281,0.069,-0.0394,-0.0641,-0.1073,-0.1437,-0.1496,-0.1549,-0.1557,-0.1565,-0.158,-0.1577,-0.1575,-0.1575,-0.1578,-0.1578,-0.157,-0.1555,-0.1552,-0.1534,-0.1515,-0.1497,-0.148,-0.1463,-0.1397,-0.148,-0.166,-0.184,-0.2377,-0.2914,-0.3451,-0.3942,-0.43,-0.4746,-0.5191,-0.5722,-0.6251,-0.6473,-0.6782,-0.736,-0.7848,-0.8072,-0.8208,-0.8476,-0.8524,-0.8568,-0.8568,-0.8616,-0.8616,-0.8616,-0.8563,-0.8357,-0.8276,-0.826,-0.8101,-0.7894,-0.7837,-0.7809,-0.8026,-0.8199,-0.8078,-0.8119,0.8828,0.8801,0.8594,0.8462,0.8404,0.815,0.7988,0.7988,0.7988,0.7988,0.7988,0.7988,0.7988,0.7988,0.7793,0.7593,0.7291,0.6992,0.6742,0.6589,0.6437,0.6387,0.6387,0.6387,0.6387,0.6387,0.6387,0.6387,0.6387,0.6387,0.6387,0.6387,0.6387,0.6387,0.6387,0.6387,0.6387,0.6387,0.6387,0.6387,0.6387,0.6387,0.6387,0.6287,0.6037,0.5737,0.5486,0.4931,0.4477,0.3874,0.3618,0.3061,0.246,0.1955,0.1405,0.0452,-0.005,-0.0647,-0.1081,-0.1375,-0.1531,-0.159,-0.1598,-0.1608,-0.1561,-0.1566,-0.1566,-0.1609,-0.156,-0.16,-0.159,-0.1583,-0.1566,-0.1544,-0.1522,-0.1506,-0.1489,-0.1468,-0.1453,-0.1543,-0.1675,-0.1795,-0.2287,-0.2826,-0.3229,-0.3451,-0.3898,-0.4435,-0.5057,-0.5722,-0.5988,-0.6166,-0.6697,-0.7183,-0.736,-0.7672,-0.8032,-0.8296,-0.83,-0.8476,-0.8476,-0.8568,-0.8616,-0.8539,-0.8422,-0.8426,-0.8414,-0.8215,-0.804,-0.8077,-0.8089,-0.8008,-0.8004,-0.7926,-0.7991,0.8726,0.8713,0.8547,0.846,0.8333,0.8109,0.7988,0.7988,0.7988,0.7988,0.7988,0.7988,0.7988,0.7988,0.7942,0.7793,0.7543,0.7291,0.7042,0.6792,0.6539,0.6489,0.6437,0.6437,0.6387,0.6387,0.6387,0.6387,0.6387,0.6387,0.6387,0.6387,0.6387,0.6387,0.6387,0.6387,0.6387,0.6387,0.6387,0.6387,0.6387,0.6387,0.6387,0.6387,0.6337,0.6137,0.5634,0.5386,0.4985,0.4234,0.3934,0.3682,0.3077,0.2522,0.1917,0.1362,0.0555,-0.005,-0.045,-0.115,-0.1559,-0.1562,-0.1564,-0.1566,-0.1566,-0.1566,-0.1566,-0.1566,-0.1566,-0.1565,-0.1611,-0.161,-0.1592,-0.1575,-0.1553,-0.1538,-0.1519,-0.1494,-0.148,-0.1472,-0.1558,-0.1643,-0.1731,-0.2239,-0.2658,-0.2922,-0.3542,-0.4078,-0.4433,-0.4966,-0.5277,-0.5589,-0.6077,-0.6387,-0.6476,-0.6786,-0.7231,-0.7496,-0.7584,-0.7984,-0.834,-0.8432,-0.8344,-0.86,-0.8551,-0.854,-0.8536,-0.8341,-0.8247,-0.8357,-0.8349,-0.8182,-0.8134,-0.8113,-0.8167,0.8604,0.8435,0.8377,0.8319,0.831,0.8106,0.7988,0.7988,0.7988,0.7988,0.7988,0.7988,0.7988,0.7988,0.7988,0.7842,0.7593,0.7494,0.7294,0.7042,0.6792,0.6692,0.6592,0.6489,0.6387,0.6387,0.6387,0.6387,0.6387,0.6387,0.6387,0.6387,0.6387,0.6387,0.6387,0.6387,0.6387,0.6387,0.6387,0.6387,0.6387,0.6387,0.6387,0.6387,0.6387,0.6337,0.6084,0.5737,0.5386,0.4935,0.4384,0.3982,0.3632,0.3027,0.2522,0.2118,0.1262,0.0807,0.0151,-0.0757,-0.1566,-0.1566,-0.1566,-0.1566,-0.1566,-0.1566,-0.1566,-0.1566,-0.1566,-0.1566,-0.1566,-0.1566,-0.1609,-0.1598,-0.1584,-0.1568,-0.155,-0.1525,-0.151,-0.1505,-0.1502,-0.1546,-0.159,-0.1682,-0.2064,-0.2436,-0.3102,-0.3676,-0.3987,-0.43,-0.4612,-0.4924,-0.5411,-0.5677,-0.5766,-0.6077,-0.6476,-0.665,-0.6827,-0.7272,-0.7716,-0.7848,-0.7893,-0.8252,-0.8568,-0.852,-0.848,-0.8438,-0.8469,-0.8522,-0.8445,-0.8256,-0.8256,-0.8308,-0.8325,0.8459,0.8269,0.8221,0.8201,0.8187,0.8082,0.7988,0.7988,0.7988,0.7988,0.7988,0.7988,0.7988,0.7988,0.7988,0.7939,0.7743,0.7646,0.749,0.7241,0.6992,0.6845,0.6692,0.6589,0.6387,0.6387,0.6387,0.6387,0.6387,0.6387,0.6387,0.6387,0.6387,0.6387,0.6387,0.6387,0.6387,0.6387,0.6387,0.6387,0.6387,0.6387,0.6387,0.6387,0.6387,0.6387,0.6284,0.6034,0.5787,0.5386,0.4935,0.4383,0.3982,0.3581,0.3077,0.2573,0.2068,0.1714,0.0958,-0.0202,-0.1313,-0.1516,-0.1566,-0.1566,-0.1566,-0.1566,-0.1566,-0.1566,-0.1566,-0.1566,-0.1566,-0.1566,-0.1566,-0.1606,-0.1601,-0.1588,-0.1578,-0.156,-0.1548,-0.1538,-0.1532,-0.1472,-0.1517,-0.1606,-0.1867,-0.2149,-0.2524,-0.3099,-0.3449,-0.3762,-0.4032,-0.4344,-0.4701,-0.4924,-0.5102,-0.5322,-0.5544,-0.5988,-0.621,-0.6517,-0.6871,-0.7048,-0.7445,-0.7848,-0.816,-0.834,-0.8448,-0.8491,-0.8555,-0.86,-0.8502,-0.8404,-0.8394,-0.8438,-0.8442,0.8333,0.8303,0.8113,0.8002,0.8012,0.7992,0.7988,0.7988,0.7988,0.7988,0.7988,0.7988,0.7988,0.7988,0.7988,0.7939,0.7892,0.7746,0.7593,0.7494,0.7191,0.6895,0.6742,0.6639,0.6489,0.6437,0.6387,0.6387,0.6387,0.6387,0.6387,0.6387,0.6387,0.6387,0.6387,0.6387,0.6387,0.6387,0.6387,0.6387,0.6387,0.6387,0.6387,0.6387,0.6387,0.6387,0.6337,0.6337,0.6087,0.5737,0.5486,0.4935,0.4334,0.4083,0.3681,0.3179,0.2521,0.2117,0.1816,0.0404,-0.0505,-0.1313,-0.1415,-0.1516,-0.1566,-0.1566,-0.1465,-0.1364,-0.1516,-0.1566,-0.1566,-0.1566,-0.1566,-0.1564,-0.1609,-0.1605,-0.1596,-0.159,-0.1577,-0.157,-0.1547,-0.148,-0.148,-0.1572,-0.1749,-0.1999,-0.2138,-0.2479,-0.2884,-0.3243,-0.3564,-0.3808,-0.4076,-0.4302,-0.448,-0.4433,-0.4654,-0.5146,-0.5547,-0.5811,-0.6118,-0.6387,-0.6827,-0.7401,-0.758,-0.7672,-0.812,-0.856,-0.8568,-0.8616,-0.8616,-0.8567,-0.8596,-0.8592,-0.8571,0.8208,0.8116,0.8012,0.7988,0.7988,0.7988,0.7988,0.7988,0.7988,0.7988,0.7988,0.7988,0.7988,0.7988,0.7988,0.7988,0.7988,0.7942,0.7842,0.7793,0.7444,0.7241,0.7039,0.6789,0.6589,0.6439,0.6387,0.6387,0.6387,0.6387,0.6387,0.6387,0.6387,0.6387,0.6387,0.6387,0.6387,0.6387,0.6387,0.6387,0.6387,0.6387,0.6387,0.6387,0.6387,0.6387,0.6387,0.6387,0.6287,0.6037,0.5884,0.5386,0.4935,0.4784,0.4284,0.3831,0.3325,0.2874,0.232,0.1261,0.0555,-0.0404,-0.1162,-0.1162,-0.0909,-0.1364,-0.1263,-0.1111,-0.1263,-0.1414,-0.1566,-0.1566,-0.1566,-0.1566,-0.1563,-0.1564,-0.1609,-0.1607,-0.1601,-0.1601,-0.1538,-0.1531,-0.1529,-0.1512,-0.1691,-0.1826,-0.1983,-0.2082,-0.244,-0.2838,-0.3152,-0.3289,-0.3494,-0.3721,-0.3855,-0.3942,-0.4119,-0.4567,-0.4835,-0.501,-0.5322,-0.5677,-0.6121,-0.665,-0.6827,-0.7003,-0.7672,-0.8208,-0.8524,-0.8616,-0.8616,-0.8616,-0.8608,-0.8608,-0.8604,0.8133,0.7992,0.7988,0.7988,0.7988,0.7988,0.7988,0.7988,0.7988,0.7988,0.7988,0.7988,0.7988,0.7988,0.7988,0.7988,0.7988,0.7988,0.7988,0.7939,0.7693,0.7441,0.7188,0.6939,0.6639,0.6489,0.6387,0.6387,0.6387,0.6387,0.6387,0.6387,0.6387,0.6387,0.6387,0.6387,0.6387,0.6387,0.6387,0.6387,0.6387,0.6387,0.6387,0.6387,0.6387,0.6387,0.6387,0.6387,0.6387,0.6284,0.6084,0.5787,0.5536,0.5286,0.4784,0.4433,0.3982,0.3429,0.2724,0.2017,0.1312,0.0656,-0.0303,-0.0454,-0.0151,-0.0353,-0.0353,-0.0353,-0.0757,-0.101,-0.1162,-0.1212,-0.1516,-0.1516,-0.1566,-0.1566,-0.1566,-0.1563,-0.1563,-0.1565,-0.1566,-0.1566,-0.1565,-0.1603,-0.1633,-0.1725,-0.1814,-0.1921,-0.2021,-0.2377,-0.2681,-0.2779,-0.3012,-0.323,-0.3409,-0.3496,-0.3717,-0.4032,-0.421,-0.4389,-0.4656,-0.5013,-0.5455,-0.5855,-0.6033,-0.6432,-0.7268,-0.7845,-0.8072,-0.8388,-0.8616,-0.8616,-0.8616,-0.8616,-0.8616,0.7988,0.7988,0.7988,0.7988,0.7988,0.7988,0.7988,0.7988,0.7988,0.7988,0.7988,0.7988,0.7988,0.7988,0.7988,0.7988,0.7988,0.7988,0.7988,0.7939,0.7796,0.749,0.7241,0.6992,0.6742,0.6539,0.6387,0.6387,0.6387,0.6387,0.6387,0.6387,0.6387,0.6387,0.6387,0.6387,0.6387,0.6387,0.6387,0.6387,0.6387,0.6387,0.6387,0.6387,0.6387,0.6387,0.6387,0.6387,0.6387,0.6387,0.6337,0.6037,0.5837,0.5636,0.5284,0.4885,0.4334,0.3681,0.3229,0.2572,0.222,0.1765,0.1261,0.1008,0.0706,0.0605,0.0504,0.0454,0.0151,-0.0151,-0.0353,-0.0909,-0.1364,-0.1465,-0.1516,-0.1566,-0.1566,-0.1566,-0.1566,-0.1566,-0.1566,-0.1566,-0.1566,-0.1609,-0.1603,-0.1602,-0.1692,-0.1677,-0.1836,-0.1941,-0.2202,-0.2258,-0.2503,-0.2789,-0.2963,-0.3048,-0.3451,-0.3764,-0.3808,-0.3942,-0.4166,-0.4478,-0.4879,-0.5191,-0.5371,-0.5813,-0.6561,-0.7136,-0.7625,-0.7896,-0.8076,-0.8524,-0.8476,-0.8568,-0.8616,0.7988,0.7988,0.7988,0.7988,0.7988,0.7988,0.7988,0.7988,0.7988,0.7988,0.7988,0.7988,0.7988,0.7988,0.7988,0.7988,0.7988,0.7988,0.7988,0.7942,0.7892,0.7693,0.7494,0.7191,0.6942,0.6692,0.6539,0.6437,0.6387,0.6387,0.6387,0.6387,0.6387,0.6387,0.6387,0.6387,0.6387,0.6387,0.6387,0.6387,0.6387,0.6387,0.6387,0.6387,0.6387,0.6387,0.6387,0.6387,0.6387,0.6387,0.6387,0.6237,0.6237,0.6137,0.5934,0.5336,0.4636,0.3883,0.3682,0.3179,0.2826,0.2775,0.2472,0.2169,0.1765,0.1311,0.121,0.121,0.0958,0.0555,0.0252,-0.0202,-0.0606,-0.0808,-0.101,-0.1364,-0.1414,-0.1516,-0.1566,-0.1566,-0.1566,-0.1566,-0.1566,-0.1565,-0.1611,-0.1564,-0.1612,-0.1601,-0.1629,-0.1739,-0.1803,-0.1867,-0.2015,-0.2349,-0.2516,-0.2644,-0.3136,-0.3496,-0.3451,-0.3585,-0.3987,-0.4255,-0.4389,-0.4656,-0.4968,-0.5324,-0.5769,-0.6343,-0.6915,-0.7092,-0.7319,-0.7896,-0.8384,-0.8476,-0.8568,0.7988,0.7988,0.7988,0.7988,0.7988,0.7988,0.7988,0.7988,0.7988,0.7988,0.7988,0.7988,0.7988,0.7988,0.7988,0.7988,0.7988,0.7988,0.7988,0.7988,0.7988,0.7793,0.759,0.7391,0.7141,0.6892,0.6642,0.6539,0.6437,0.6387,0.6387,0.6387,0.6387,0.6387,0.6387,0.6387,0.6387,0.6387,0.6387,0.6387,0.6387,0.6387,0.6387,0.6387,0.6387,0.6387,0.6387,0.6387,0.6387,0.6387,0.6387,0.6387,0.6387,0.6387,0.6137,0.5586,0.5135,0.4435,0.4033,0.3732,0.343,0.3279,0.323,0.2927,0.2573,0.2219,0.227,0.227,0.1714,0.121,0.0958,0.0656,0.0353,0.005,-0.0505,-0.1061,-0.1263,-0.1415,-0.1516,-0.1566,-0.1566,-0.1566,-0.1566,-0.1566,-0.1566,-0.1566,-0.1566,-0.1562,-0.159,-0.1606,-0.1629,-0.1651,-0.1708,-0.1902,-0.2072,-0.2241,-0.2556,-0.2825,-0.2825,-0.3093,-0.3628,-0.3942,-0.4076,-0.4344,-0.4656,-0.5013,-0.5324,-0.568,-0.6121,-0.6343,-0.665,-0.7228,-0.7852,-0.8384,-0.8476,0.7988,0.7988,0.7988,0.7988,0.7988,0.7988,0.7988,0.7988,0.7988,0.7988,0.7988,0.7988,0.7988,0.7988,0.7988,0.7988,0.7988,0.7988,0.7988,0.7988,0.7988,0.7839,0.7743,0.7593,0.7344,0.6995,0.6745,0.6592,0.6439,0.6387,0.6387,0.6387,0.6387,0.6387,0.6387,0.6387,0.6387,0.6387,0.6387,0.6387,0.6387,0.6387,0.6387,0.6387,0.6387,0.6387,0.6387,0.6387,0.6387,0.6387,0.6387,0.6387,0.6387,0.6387,0.6087,0.5837,0.5534,0.5035,0.4535,0.4183,0.3883,0.3581,0.3279,0.3279,0.3128,0.2826,0.2826,0.2826,0.2321,0.2118,0.1866,0.1361,0.1009,0.0706,0.0252,-0.0151,-0.0353,-0.0757,-0.1263,-0.1414,-0.1566,-0.1566,-0.1566,-0.1566,-0.1566,-0.1566,-0.1566,-0.1566,-0.1601,-0.157,-0.1546,-0.1525,-0.1593,-0.1651,-0.1621,-0.1794,-0.1884,-0.2064,-0.2243,-0.2601,-0.3181,-0.3496,-0.3721,-0.3987,-0.4255,-0.4656,-0.4968,-0.5235,-0.5411,-0.5722,-0.6074,-0.6564,-0.7183,-0.7764,-0.834,0.7988,0.7988,0.7988,0.7988,0.7988,0.7988,0.7988,0.7988,0.7988,0.7988,0.7988,0.7988,0.7988,0.7988,0.7988,0.7988,0.7988,0.7988,0.7988,0.7988,0.7988,0.7988,0.7842,0.7693,0.7497,0.7347,0.7045,0.6692,0.6489,0.6437,0.6387,0.6387,0.6387,0.6387,0.6387,0.6387,0.6387,0.6387,0.6387,0.6387,0.6387,0.6387,0.6387,0.6387,0.6387,0.6387,0.6387,0.6387,0.6387,0.6387,0.6387,0.6387,0.6387,0.6387,0.6337,0.6184,0.5834,0.5486,0.5135,0.4786,0.4485,0.4284,0.4033,0.3882,0.3682,0.3381,0.318,0.313,0.3029,0.2927,0.2675,0.2118,0.1664,0.1361,0.1008,0.0756,0.0504,-0.0202,-0.0909,-0.1162,-0.1414,-0.1516,-0.1516,-0.1566,-0.1566,-0.1566,-0.1566,-0.1564,-0.1608,-0.1585,-0.156,-0.1539,-0.1478,-0.1496,-0.1413,-0.1436,-0.166,-0.184,-0.2109,-0.2422,-0.2778,-0.2959,-0.3183,-0.3542,-0.3855,-0.4212,-0.4433,-0.4523,-0.4788,-0.5099,-0.5411,-0.5811,-0.6121,-0.6612,-0.7544,0.7988,0.7988,0.7988,0.7988,0.7988,0.7988,0.7988,0.7988,0.7988,0.7988,0.7988,0.7988,0.7988,0.7988,0.7988,0.7988,0.7988,0.7988,0.7988,0.7988,0.7988,0.7988,0.7892,0.7842,0.7696,0.7497,0.7045,0.6692,0.6539,0.6437,0.6387,0.6387,0.6387,0.6387,0.6387,0.6387,0.6387,0.6387,0.6387,0.6387,0.6387,0.6387,0.6387,0.6387,0.6387,0.6387,0.6387,0.6387,0.6387,0.6387,0.6387,0.6387,0.6387,0.6387,0.6387,0.6337,0.6134,0.5837,0.5586,0.5336,0.5035,0.4834,0.4636,0.4383,0.3934,0.3632,0.343,0.333,0.318,0.3029,0.3029,0.2624,0.2522,0.2321,0.1765,0.1311,0.0908,0.0353,0.0,-0.0101,-0.0454,-0.0909,-0.1061,-0.1465,-0.1465,-0.1566,-0.1566,-0.1516,-0.1558,-0.1602,-0.1575,-0.1551,-0.1536,-0.1453,-0.1405,-0.1436,-0.148,-0.1705,-0.1932,-0.2109,-0.2332,-0.2511,-0.269,-0.3093,-0.3408,-0.3721,-0.3942,-0.4121,-0.4253,-0.461,-0.4832,-0.5057,-0.5324,-0.5683,-0.6479,0.7988,0.7988,0.7988,0.7988,0.7988,0.7988,0.7988,0.7988,0.7988,0.7988,0.7988,0.7988,0.7988,0.7988,0.7988,0.7988,0.7988,0.7988,0.7988,0.7988,0.7988,0.7988,0.7988,0.7939,0.7793,0.7547,0.7194,0.6945,0.6745,0.6592,0.6489,0.6437,0.6387,0.6387,0.6387,0.6387,0.6387,0.6387,0.6387,0.6387,0.6387,0.6387,0.6387,0.6387,0.6387,0.6387,0.6387,0.6387,0.6387,0.6387,0.6387,0.6387,0.6387,0.6387,0.6387,0.6387,0.6337,0.6087,0.5837,0.5737,0.5434,0.5183,0.4985,0.4734,0.4334,0.4033,0.3831,0.3632,0.3481,0.323,0.323,0.318,0.313,0.3079,0.2422,0.1816,0.1361,0.0958,0.0907,0.0806,0.0303,-0.0202,-0.0505,-0.0959,-0.1162,-0.1313,-0.1414,-0.1465,-0.1463,-0.1557,-0.1592,-0.1566,-0.1545,-0.1502,-0.1413,-0.1446,-0.1451,-0.149,-0.1673,-0.1801,-0.193,-0.2018,-0.2242,-0.269,-0.3048,-0.3274,-0.3631,-0.3898,-0.4076,-0.421,-0.4476,-0.4701,-0.4835,-0.5191,-0.5547,0.7988,0.7988,0.7988,0.8038,0.8038,0.8038,0.7988,0.7988,0.7988,0.7988,0.7988,0.7988,0.7988,0.7988,0.7988,0.7988,0.7988,0.7988,0.7988,0.7988,0.7988,0.7988,0.7988,0.7988,0.7842,0.7643,0.7397,0.7197,0.6995,0.6795,0.6592,0.6437,0.6387,0.6387,0.6387,0.6387,0.6387,0.6437,0.6437,0.6387,0.6387,0.6387,0.6387,0.6387,0.6387,0.6387,0.6387,0.6387,0.6387,0.6387,0.6387,0.6387,0.6387,0.6387,0.6387,0.6387,0.6387,0.6337,0.6137,0.6137,0.5887,0.5884,0.5687,0.5386,0.5035,0.4734,0.4533,0.4282,0.3982,0.3432,0.3331,0.323,0.318,0.318,0.2775,0.2422,0.2017,0.1765,0.1613,0.1311,0.0857,0.0605,0.0504,0.0202,0.0101,-0.0101,-0.0505,-0.0555,-0.0707,-0.1057,-0.1455,-0.1485,-0.1413,-0.1541,-0.1515,-0.1481,-0.1474,-0.1466,-0.1455,-0.1582,-0.1619,-0.1526,-0.1794,-0.2242,-0.2511,-0.2736,-0.3138,-0.354,-0.3898,-0.4076,-0.4255,-0.4431,-0.4567,-0.4701,-0.5057]}]]